<?xml version="1.0" encoding="UTF-8" standalone="no" ?>
<gpx xmlns="http://www.topografix.com/GPX/1/1" xmlns:xsi="http://www.w3.org/2001/XMLSchema-instance" xsi:schemaLocation="http://www.topografix.com/GPX/1/1 http://www.topografix.com/GPX/1/1/gpx.xsd" version="1.1" creator="VisuGPX - https://www.visugpx.com">
  <metadata>
    <name>Relais du Chat</name>
    <desc><![CDATA[La classique
]]></desc>
  </metadata>
  <trk>
    <name><![CDATA[2015-09-08-01]]></name>
    <trkseg>
      <trkpt lat="45.65609" lon="5.86271">
        <ele>231.3</ele>
        <time>2015-09-08T07:33:00Z</time>
      </trkpt>
      <trkpt lat="45.65609" lon="5.86271">
        <ele>231.3</ele>
        <time>2015-09-08T07:33:01Z</time>
      </trkpt>
      <trkpt lat="45.656" lon="5.8627">
        <ele>231.2</ele>
        <time>2015-09-08T07:33:14Z</time>
      </trkpt>
      <trkpt lat="45.6559" lon="5.86268">
        <ele>231.2</ele>
        <time>2015-09-08T07:33:19Z</time>
      </trkpt>
      <trkpt lat="45.65579" lon="5.86267">
        <ele>231.2</ele>
        <time>2015-09-08T07:33:24Z</time>
      </trkpt>
      <trkpt lat="45.6557" lon="5.86265">
        <ele>231.2</ele>
        <time>2015-09-08T07:33:28Z</time>
      </trkpt>
      <trkpt lat="45.6556" lon="5.8626">
        <ele>229.9</ele>
        <time>2015-09-08T07:33:33Z</time>
      </trkpt>
      <trkpt lat="45.65551" lon="5.86252">
        <ele>230.2</ele>
        <time>2015-09-08T07:33:37Z</time>
      </trkpt>
      <trkpt lat="45.65545" lon="5.8624">
        <ele>230.5</ele>
        <time>2015-09-08T07:33:41Z</time>
      </trkpt>
      <trkpt lat="45.65537" lon="5.86229">
        <ele>229.6</ele>
        <time>2015-09-08T07:33:45Z</time>
      </trkpt>
      <trkpt lat="45.6553" lon="5.86217">
        <ele>230.1</ele>
        <time>2015-09-08T07:33:49Z</time>
      </trkpt>
      <trkpt lat="45.65527" lon="5.86202">
        <ele>228.9</ele>
        <time>2015-09-08T07:33:53Z</time>
      </trkpt>
      <trkpt lat="45.65524" lon="5.86188">
        <ele>233.9</ele>
        <time>2015-09-08T07:33:57Z</time>
      </trkpt>
      <trkpt lat="45.65521" lon="5.86171">
        <ele>232.6</ele>
        <time>2015-09-08T07:34:01Z</time>
      </trkpt>
      <trkpt lat="45.65519" lon="5.86157">
        <ele>232.4</ele>
        <time>2015-09-08T07:34:04Z</time>
      </trkpt>
      <trkpt lat="45.65517" lon="5.86142">
        <ele>232.2</ele>
        <time>2015-09-08T07:34:07Z</time>
      </trkpt>
      <trkpt lat="45.65515" lon="5.86127">
        <ele>232.1</ele>
        <time>2015-09-08T07:34:10Z</time>
      </trkpt>
      <trkpt lat="45.65511" lon="5.8611">
        <ele>231.9</ele>
        <time>2015-09-08T07:34:13Z</time>
      </trkpt>
      <trkpt lat="45.65509" lon="5.86093">
        <ele>231.8</ele>
        <time>2015-09-08T07:34:16Z</time>
      </trkpt>
      <trkpt lat="45.65507" lon="5.86075">
        <ele>231.7</ele>
        <time>2015-09-08T07:34:19Z</time>
      </trkpt>
      <trkpt lat="45.65505" lon="5.86058">
        <ele>231.6</ele>
        <time>2015-09-08T07:34:22Z</time>
      </trkpt>
      <trkpt lat="45.65504" lon="5.8604">
        <ele>231.4</ele>
        <time>2015-09-08T07:34:25Z</time>
      </trkpt>
      <trkpt lat="45.65506" lon="5.86022">
        <ele>231.3</ele>
        <time>2015-09-08T07:34:28Z</time>
      </trkpt>
      <trkpt lat="45.65509" lon="5.86005">
        <ele>231.2</ele>
        <time>2015-09-08T07:34:31Z</time>
      </trkpt>
      <trkpt lat="45.65513" lon="5.85991">
        <ele>231.1</ele>
        <time>2015-09-08T07:34:34Z</time>
      </trkpt>
      <trkpt lat="45.6551" lon="5.85977">
        <ele>231</ele>
        <time>2015-09-08T07:34:39Z</time>
      </trkpt>
      <trkpt lat="45.65498" lon="5.85977">
        <ele>231</ele>
        <time>2015-09-08T07:34:43Z</time>
      </trkpt>
      <trkpt lat="45.65488" lon="5.8598">
        <ele>231</ele>
        <time>2015-09-08T07:34:46Z</time>
      </trkpt>
      <trkpt lat="45.65477" lon="5.85985">
        <ele>231</ele>
        <time>2015-09-08T07:34:49Z</time>
      </trkpt>
      <trkpt lat="45.65468" lon="5.85993">
        <ele>231</ele>
        <time>2015-09-08T07:34:52Z</time>
      </trkpt>
      <trkpt lat="45.65459" lon="5.86006">
        <ele>231</ele>
        <time>2015-09-08T07:34:55Z</time>
      </trkpt>
      <trkpt lat="45.65453" lon="5.86016">
        <ele>231</ele>
        <time>2015-09-08T07:34:57Z</time>
      </trkpt>
      <trkpt lat="45.65448" lon="5.86026">
        <ele>231</ele>
        <time>2015-09-08T07:34:59Z</time>
      </trkpt>
      <trkpt lat="45.65439" lon="5.86041">
        <ele>231</ele>
        <time>2015-09-08T07:35:02Z</time>
      </trkpt>
      <trkpt lat="45.6543" lon="5.86055">
        <ele>231.1</ele>
        <time>2015-09-08T07:35:05Z</time>
      </trkpt>
      <trkpt lat="45.65423" lon="5.86065">
        <ele>231.1</ele>
        <time>2015-09-08T07:35:07Z</time>
      </trkpt>
      <trkpt lat="45.65416" lon="5.86073">
        <ele>231.1</ele>
        <time>2015-09-08T07:35:09Z</time>
      </trkpt>
      <trkpt lat="45.65408" lon="5.86078">
        <ele>231.1</ele>
        <time>2015-09-08T07:35:11Z</time>
      </trkpt>
      <trkpt lat="45.65395" lon="5.86082">
        <ele>231.2</ele>
        <time>2015-09-08T07:35:14Z</time>
      </trkpt>
      <trkpt lat="45.65386" lon="5.86082">
        <ele>231.2</ele>
        <time>2015-09-08T07:35:16Z</time>
      </trkpt>
      <trkpt lat="45.65376" lon="5.86081">
        <ele>231.2</ele>
        <time>2015-09-08T07:35:18Z</time>
      </trkpt>
      <trkpt lat="45.65367" lon="5.8608">
        <ele>231.2</ele>
        <time>2015-09-08T07:35:20Z</time>
      </trkpt>
      <trkpt lat="45.65354" lon="5.86079">
        <ele>231.2</ele>
        <time>2015-09-08T07:35:23Z</time>
      </trkpt>
      <trkpt lat="45.6534" lon="5.86078">
        <ele>231.3</ele>
        <time>2015-09-08T07:35:26Z</time>
      </trkpt>
      <trkpt lat="45.65331" lon="5.86078">
        <ele>231.3</ele>
        <time>2015-09-08T07:35:28Z</time>
      </trkpt>
      <trkpt lat="45.65322" lon="5.86076">
        <ele>231.3</ele>
        <time>2015-09-08T07:35:30Z</time>
      </trkpt>
      <trkpt lat="45.65312" lon="5.86075">
        <ele>231.3</ele>
        <time>2015-09-08T07:35:32Z</time>
      </trkpt>
      <trkpt lat="45.65303" lon="5.86075">
        <ele>231.3</ele>
        <time>2015-09-08T07:35:34Z</time>
      </trkpt>
      <trkpt lat="45.65293" lon="5.86075">
        <ele>231.4</ele>
        <time>2015-09-08T07:35:36Z</time>
      </trkpt>
      <trkpt lat="45.65283" lon="5.86074">
        <ele>231.4</ele>
        <time>2015-09-08T07:35:38Z</time>
      </trkpt>
      <trkpt lat="45.65273" lon="5.86073">
        <ele>231.4</ele>
        <time>2015-09-08T07:35:40Z</time>
      </trkpt>
      <trkpt lat="45.65263" lon="5.8607">
        <ele>231.5</ele>
        <time>2015-09-08T07:35:42Z</time>
      </trkpt>
      <trkpt lat="45.65253" lon="5.86066">
        <ele>231.5</ele>
        <time>2015-09-08T07:35:44Z</time>
      </trkpt>
      <trkpt lat="45.65242" lon="5.8606">
        <ele>231.5</ele>
        <time>2015-09-08T07:35:46Z</time>
      </trkpt>
      <trkpt lat="45.65231" lon="5.86051">
        <ele>231.5</ele>
        <time>2015-09-08T07:35:48Z</time>
      </trkpt>
      <trkpt lat="45.6522" lon="5.86041">
        <ele>231.5</ele>
        <time>2015-09-08T07:35:50Z</time>
      </trkpt>
      <trkpt lat="45.65209" lon="5.86032">
        <ele>231.4</ele>
        <time>2015-09-08T07:35:52Z</time>
      </trkpt>
      <trkpt lat="45.65199" lon="5.86023">
        <ele>231.4</ele>
        <time>2015-09-08T07:35:54Z</time>
      </trkpt>
      <trkpt lat="45.65191" lon="5.86012">
        <ele>231.4</ele>
        <time>2015-09-08T07:35:56Z</time>
      </trkpt>
      <trkpt lat="45.65184" lon="5.86">
        <ele>231.4</ele>
        <time>2015-09-08T07:35:58Z</time>
      </trkpt>
      <trkpt lat="45.6518" lon="5.85987">
        <ele>231.4</ele>
        <time>2015-09-08T07:36:00Z</time>
      </trkpt>
      <trkpt lat="45.65176" lon="5.85975">
        <ele>231.5</ele>
        <time>2015-09-08T07:36:02Z</time>
      </trkpt>
      <trkpt lat="45.6517" lon="5.85958">
        <ele>231.7</ele>
        <time>2015-09-08T07:36:05Z</time>
      </trkpt>
      <trkpt lat="45.6516" lon="5.85946">
        <ele>232</ele>
        <time>2015-09-08T07:36:08Z</time>
      </trkpt>
      <trkpt lat="45.65148" lon="5.8594">
        <ele>232.3</ele>
        <time>2015-09-08T07:36:11Z</time>
      </trkpt>
      <trkpt lat="45.65139" lon="5.85941">
        <ele>232.4</ele>
        <time>2015-09-08T07:36:13Z</time>
      </trkpt>
      <trkpt lat="45.65129" lon="5.85943">
        <ele>232.6</ele>
        <time>2015-09-08T07:36:15Z</time>
      </trkpt>
      <trkpt lat="45.65119" lon="5.85947">
        <ele>232.7</ele>
        <time>2015-09-08T07:36:17Z</time>
      </trkpt>
      <trkpt lat="45.6511" lon="5.8595">
        <ele>232.8</ele>
        <time>2015-09-08T07:36:19Z</time>
      </trkpt>
      <trkpt lat="45.651" lon="5.85953">
        <ele>232.9</ele>
        <time>2015-09-08T07:36:21Z</time>
      </trkpt>
      <trkpt lat="45.65089" lon="5.85955">
        <ele>233</ele>
        <time>2015-09-08T07:36:23Z</time>
      </trkpt>
      <trkpt lat="45.65079" lon="5.85957">
        <ele>233</ele>
        <time>2015-09-08T07:36:25Z</time>
      </trkpt>
      <trkpt lat="45.65067" lon="5.85958">
        <ele>233</ele>
        <time>2015-09-08T07:36:27Z</time>
      </trkpt>
      <trkpt lat="45.65055" lon="5.85958">
        <ele>233</ele>
        <time>2015-09-08T07:36:29Z</time>
      </trkpt>
      <trkpt lat="45.65044" lon="5.85958">
        <ele>233</ele>
        <time>2015-09-08T07:36:31Z</time>
      </trkpt>
      <trkpt lat="45.65032" lon="5.85959">
        <ele>232.9</ele>
        <time>2015-09-08T07:36:33Z</time>
      </trkpt>
      <trkpt lat="45.6502" lon="5.8596">
        <ele>232.9</ele>
        <time>2015-09-08T07:36:35Z</time>
      </trkpt>
      <trkpt lat="45.65009" lon="5.85961">
        <ele>233</ele>
        <time>2015-09-08T07:36:37Z</time>
      </trkpt>
      <trkpt lat="45.64998" lon="5.85962">
        <ele>233.1</ele>
        <time>2015-09-08T07:36:39Z</time>
      </trkpt>
      <trkpt lat="45.64989" lon="5.85964">
        <ele>233.3</ele>
        <time>2015-09-08T07:36:41Z</time>
      </trkpt>
      <trkpt lat="45.64979" lon="5.85966">
        <ele>233.4</ele>
        <time>2015-09-08T07:36:43Z</time>
      </trkpt>
      <trkpt lat="45.64969" lon="5.85968">
        <ele>233.5</ele>
        <time>2015-09-08T07:36:45Z</time>
      </trkpt>
      <trkpt lat="45.6496" lon="5.85969">
        <ele>233.7</ele>
        <time>2015-09-08T07:36:47Z</time>
      </trkpt>
      <trkpt lat="45.64947" lon="5.85972">
        <ele>234</ele>
        <time>2015-09-08T07:36:50Z</time>
      </trkpt>
      <trkpt lat="45.64936" lon="5.85976">
        <ele>234.2</ele>
        <time>2015-09-08T07:36:53Z</time>
      </trkpt>
      <trkpt lat="45.64927" lon="5.85976">
        <ele>234.4</ele>
        <time>2015-09-08T07:36:55Z</time>
      </trkpt>
      <trkpt lat="45.64914" lon="5.85977">
        <ele>234.8</ele>
        <time>2015-09-08T07:36:58Z</time>
      </trkpt>
      <trkpt lat="45.64902" lon="5.85976">
        <ele>235.3</ele>
        <time>2015-09-08T07:37:01Z</time>
      </trkpt>
      <trkpt lat="45.64889" lon="5.85977">
        <ele>235.7</ele>
        <time>2015-09-08T07:37:04Z</time>
      </trkpt>
      <trkpt lat="45.64878" lon="5.8598">
        <ele>236.1</ele>
        <time>2015-09-08T07:37:08Z</time>
      </trkpt>
      <trkpt lat="45.64872" lon="5.85971">
        <ele>236.5</ele>
        <time>2015-09-08T07:37:12Z</time>
      </trkpt>
      <trkpt lat="45.64871" lon="5.85955">
        <ele>236.7</ele>
        <time>2015-09-08T07:37:16Z</time>
      </trkpt>
      <trkpt lat="45.64868" lon="5.85941">
        <ele>237.1</ele>
        <time>2015-09-08T07:37:20Z</time>
      </trkpt>
      <trkpt lat="45.64861" lon="5.85929">
        <ele>237.5</ele>
        <time>2015-09-08T07:37:24Z</time>
      </trkpt>
      <trkpt lat="45.64859" lon="5.85912">
        <ele>238</ele>
        <time>2015-09-08T07:37:28Z</time>
      </trkpt>
      <trkpt lat="45.64858" lon="5.85898">
        <ele>238.3</ele>
        <time>2015-09-08T07:37:31Z</time>
      </trkpt>
      <trkpt lat="45.64857" lon="5.85882">
        <ele>238.9</ele>
        <time>2015-09-08T07:37:35Z</time>
      </trkpt>
      <trkpt lat="45.64857" lon="5.85866">
        <ele>239.8</ele>
        <time>2015-09-08T07:37:39Z</time>
      </trkpt>
      <trkpt lat="45.64857" lon="5.8585">
        <ele>240.5</ele>
        <time>2015-09-08T07:37:43Z</time>
      </trkpt>
      <trkpt lat="45.64857" lon="5.85835">
        <ele>241.3</ele>
        <time>2015-09-08T07:37:47Z</time>
      </trkpt>
      <trkpt lat="45.64856" lon="5.85818">
        <ele>242.1</ele>
        <time>2015-09-08T07:37:51Z</time>
      </trkpt>
      <trkpt lat="45.64854" lon="5.85802">
        <ele>243</ele>
        <time>2015-09-08T07:37:55Z</time>
      </trkpt>
      <trkpt lat="45.64848" lon="5.85789">
        <ele>243.9</ele>
        <time>2015-09-08T07:37:59Z</time>
      </trkpt>
      <trkpt lat="45.64847" lon="5.85773">
        <ele>244.7</ele>
        <time>2015-09-08T07:38:03Z</time>
      </trkpt>
      <trkpt lat="45.64845" lon="5.85758">
        <ele>245.7</ele>
        <time>2015-09-08T07:38:07Z</time>
      </trkpt>
      <trkpt lat="45.64843" lon="5.85742">
        <ele>246.6</ele>
        <time>2015-09-08T07:38:11Z</time>
      </trkpt>
      <trkpt lat="45.64839" lon="5.85727">
        <ele>247.4</ele>
        <time>2015-09-08T07:38:15Z</time>
      </trkpt>
      <trkpt lat="45.64834" lon="5.85713">
        <ele>248.2</ele>
        <time>2015-09-08T07:38:19Z</time>
      </trkpt>
      <trkpt lat="45.64828" lon="5.857">
        <ele>249</ele>
        <time>2015-09-08T07:38:23Z</time>
      </trkpt>
      <trkpt lat="45.64823" lon="5.85686">
        <ele>249.7</ele>
        <time>2015-09-08T07:38:27Z</time>
      </trkpt>
      <trkpt lat="45.6482" lon="5.85672">
        <ele>250.6</ele>
        <time>2015-09-08T07:38:31Z</time>
      </trkpt>
      <trkpt lat="45.64816" lon="5.85658">
        <ele>251.5</ele>
        <time>2015-09-08T07:38:35Z</time>
      </trkpt>
      <trkpt lat="45.6481" lon="5.85645">
        <ele>252.2</ele>
        <time>2015-09-08T07:38:39Z</time>
      </trkpt>
      <trkpt lat="45.64803" lon="5.85633">
        <ele>252.9</ele>
        <time>2015-09-08T07:38:43Z</time>
      </trkpt>
      <trkpt lat="45.64796" lon="5.85623">
        <ele>253.6</ele>
        <time>2015-09-08T07:38:47Z</time>
      </trkpt>
      <trkpt lat="45.6479" lon="5.85611">
        <ele>254.5</ele>
        <time>2015-09-08T07:38:51Z</time>
      </trkpt>
      <trkpt lat="45.64786" lon="5.85597">
        <ele>255.3</ele>
        <time>2015-09-08T07:38:55Z</time>
      </trkpt>
      <trkpt lat="45.64789" lon="5.85585">
        <ele>255.8</ele>
        <time>2015-09-08T07:38:58Z</time>
      </trkpt>
      <trkpt lat="45.64795" lon="5.85575">
        <ele>256.5</ele>
        <time>2015-09-08T07:39:01Z</time>
      </trkpt>
      <trkpt lat="45.64804" lon="5.85567">
        <ele>257.3</ele>
        <time>2015-09-08T07:39:05Z</time>
      </trkpt>
      <trkpt lat="45.64814" lon="5.85561">
        <ele>258.1</ele>
        <time>2015-09-08T07:39:09Z</time>
      </trkpt>
      <trkpt lat="45.64823" lon="5.85557">
        <ele>258.9</ele>
        <time>2015-09-08T07:39:13Z</time>
      </trkpt>
      <trkpt lat="45.64833" lon="5.85558">
        <ele>259.7</ele>
        <time>2015-09-08T07:39:17Z</time>
      </trkpt>
      <trkpt lat="45.64842" lon="5.8556">
        <ele>260.6</ele>
        <time>2015-09-08T07:39:21Z</time>
      </trkpt>
      <trkpt lat="45.64852" lon="5.85563">
        <ele>261.4</ele>
        <time>2015-09-08T07:39:25Z</time>
      </trkpt>
      <trkpt lat="45.64861" lon="5.85567">
        <ele>262</ele>
        <time>2015-09-08T07:39:28Z</time>
      </trkpt>
      <trkpt lat="45.64872" lon="5.8557">
        <ele>262.7</ele>
        <time>2015-09-08T07:39:32Z</time>
      </trkpt>
      <trkpt lat="45.64883" lon="5.85571">
        <ele>263.5</ele>
        <time>2015-09-08T07:39:36Z</time>
      </trkpt>
      <trkpt lat="45.64894" lon="5.85568">
        <ele>264.4</ele>
        <time>2015-09-08T07:39:40Z</time>
      </trkpt>
      <trkpt lat="45.64904" lon="5.85562">
        <ele>265.2</ele>
        <time>2015-09-08T07:39:44Z</time>
      </trkpt>
      <trkpt lat="45.64914" lon="5.85554">
        <ele>266</ele>
        <time>2015-09-08T07:39:48Z</time>
      </trkpt>
      <trkpt lat="45.64923" lon="5.85549">
        <ele>266.8</ele>
        <time>2015-09-08T07:39:52Z</time>
      </trkpt>
      <trkpt lat="45.64934" lon="5.85545">
        <ele>267.8</ele>
        <time>2015-09-08T07:39:57Z</time>
      </trkpt>
      <trkpt lat="45.64944" lon="5.85542">
        <ele>268.8</ele>
        <time>2015-09-08T07:40:02Z</time>
      </trkpt>
      <trkpt lat="45.64954" lon="5.85539">
        <ele>269.8</ele>
        <time>2015-09-08T07:40:06Z</time>
      </trkpt>
      <trkpt lat="45.64964" lon="5.85537">
        <ele>270.9</ele>
        <time>2015-09-08T07:40:11Z</time>
      </trkpt>
      <trkpt lat="45.64975" lon="5.85534">
        <ele>272.1</ele>
        <time>2015-09-08T07:40:16Z</time>
      </trkpt>
      <trkpt lat="45.64986" lon="5.85531">
        <ele>273.3</ele>
        <time>2015-09-08T07:40:21Z</time>
      </trkpt>
      <trkpt lat="45.64995" lon="5.85527">
        <ele>274.6</ele>
        <time>2015-09-08T07:40:26Z</time>
      </trkpt>
      <trkpt lat="45.65006" lon="5.85521">
        <ele>275.9</ele>
        <time>2015-09-08T07:40:31Z</time>
      </trkpt>
      <trkpt lat="45.65015" lon="5.85515">
        <ele>276.9</ele>
        <time>2015-09-08T07:40:35Z</time>
      </trkpt>
      <trkpt lat="45.65025" lon="5.85511">
        <ele>278</ele>
        <time>2015-09-08T07:40:40Z</time>
      </trkpt>
      <trkpt lat="45.65035" lon="5.85505">
        <ele>279.2</ele>
        <time>2015-09-08T07:40:45Z</time>
      </trkpt>
      <trkpt lat="45.65043" lon="5.855">
        <ele>280.2</ele>
        <time>2015-09-08T07:40:49Z</time>
      </trkpt>
      <trkpt lat="45.65053" lon="5.85492">
        <ele>281.9</ele>
        <time>2015-09-08T07:40:55Z</time>
      </trkpt>
      <trkpt lat="45.65063" lon="5.85485">
        <ele>282.9</ele>
        <time>2015-09-08T07:40:59Z</time>
      </trkpt>
      <trkpt lat="45.65072" lon="5.85477">
        <ele>283.9</ele>
        <time>2015-09-08T07:41:03Z</time>
      </trkpt>
      <trkpt lat="45.6508" lon="5.85469">
        <ele>284.9</ele>
        <time>2015-09-08T07:41:07Z</time>
      </trkpt>
      <trkpt lat="45.65088" lon="5.85459">
        <ele>286.1</ele>
        <time>2015-09-08T07:41:12Z</time>
      </trkpt>
      <trkpt lat="45.65097" lon="5.85452">
        <ele>287.1</ele>
        <time>2015-09-08T07:41:16Z</time>
      </trkpt>
      <trkpt lat="45.65106" lon="5.85445">
        <ele>288</ele>
        <time>2015-09-08T07:41:20Z</time>
      </trkpt>
      <trkpt lat="45.65116" lon="5.85439">
        <ele>289</ele>
        <time>2015-09-08T07:41:25Z</time>
      </trkpt>
      <trkpt lat="45.65125" lon="5.85436">
        <ele>289.7</ele>
        <time>2015-09-08T07:41:29Z</time>
      </trkpt>
      <trkpt lat="45.65135" lon="5.85434">
        <ele>290.4</ele>
        <time>2015-09-08T07:41:33Z</time>
      </trkpt>
      <trkpt lat="45.65144" lon="5.85432">
        <ele>290.9</ele>
        <time>2015-09-08T07:41:37Z</time>
      </trkpt>
      <trkpt lat="45.65154" lon="5.85429">
        <ele>291.5</ele>
        <time>2015-09-08T07:41:41Z</time>
      </trkpt>
      <trkpt lat="45.65164" lon="5.85422">
        <ele>292</ele>
        <time>2015-09-08T07:41:45Z</time>
      </trkpt>
      <trkpt lat="45.65171" lon="5.85411">
        <ele>292.5</ele>
        <time>2015-09-08T07:41:49Z</time>
      </trkpt>
      <trkpt lat="45.65177" lon="5.85399">
        <ele>293</ele>
        <time>2015-09-08T07:41:53Z</time>
      </trkpt>
      <trkpt lat="45.65182" lon="5.85387">
        <ele>293.5</ele>
        <time>2015-09-08T07:41:57Z</time>
      </trkpt>
      <trkpt lat="45.65186" lon="5.85374">
        <ele>294.1</ele>
        <time>2015-09-08T07:42:01Z</time>
      </trkpt>
      <trkpt lat="45.65188" lon="5.85358">
        <ele>294.9</ele>
        <time>2015-09-08T07:42:06Z</time>
      </trkpt>
      <trkpt lat="45.65188" lon="5.85345">
        <ele>295.5</ele>
        <time>2015-09-08T07:42:10Z</time>
      </trkpt>
      <trkpt lat="45.65186" lon="5.85331">
        <ele>296.2</ele>
        <time>2015-09-08T07:42:14Z</time>
      </trkpt>
      <trkpt lat="45.65184" lon="5.85318">
        <ele>296.9</ele>
        <time>2015-09-08T07:42:18Z</time>
      </trkpt>
      <trkpt lat="45.65184" lon="5.85305">
        <ele>297.5</ele>
        <time>2015-09-08T07:42:22Z</time>
      </trkpt>
      <trkpt lat="45.65189" lon="5.85291">
        <ele>298.5</ele>
        <time>2015-09-08T07:42:27Z</time>
      </trkpt>
      <trkpt lat="45.65197" lon="5.85284">
        <ele>299.3</ele>
        <time>2015-09-08T07:42:31Z</time>
      </trkpt>
      <trkpt lat="45.65207" lon="5.85284">
        <ele>300</ele>
        <time>2015-09-08T07:42:35Z</time>
      </trkpt>
      <trkpt lat="45.65217" lon="5.85286">
        <ele>300.7</ele>
        <time>2015-09-08T07:42:39Z</time>
      </trkpt>
      <trkpt lat="45.65227" lon="5.85289">
        <ele>301.5</ele>
        <time>2015-09-08T07:42:43Z</time>
      </trkpt>
      <trkpt lat="45.65238" lon="5.85293">
        <ele>302.3</ele>
        <time>2015-09-08T07:42:47Z</time>
      </trkpt>
      <trkpt lat="45.65247" lon="5.85294">
        <ele>303.1</ele>
        <time>2015-09-08T07:42:51Z</time>
      </trkpt>
      <trkpt lat="45.65257" lon="5.85292">
        <ele>304</ele>
        <time>2015-09-08T07:42:55Z</time>
      </trkpt>
      <trkpt lat="45.65266" lon="5.85288">
        <ele>304.9</ele>
        <time>2015-09-08T07:42:59Z</time>
      </trkpt>
      <trkpt lat="45.65275" lon="5.85282">
        <ele>305.9</ele>
        <time>2015-09-08T07:43:03Z</time>
      </trkpt>
      <trkpt lat="45.65284" lon="5.85274">
        <ele>306.9</ele>
        <time>2015-09-08T07:43:07Z</time>
      </trkpt>
      <trkpt lat="45.65293" lon="5.85264">
        <ele>307.7</ele>
        <time>2015-09-08T07:43:11Z</time>
      </trkpt>
      <trkpt lat="45.653" lon="5.85253">
        <ele>308.6</ele>
        <time>2015-09-08T07:43:15Z</time>
      </trkpt>
      <trkpt lat="45.65307" lon="5.85243">
        <ele>309.5</ele>
        <time>2015-09-08T07:43:19Z</time>
      </trkpt>
      <trkpt lat="45.65313" lon="5.85231">
        <ele>310.3</ele>
        <time>2015-09-08T07:43:23Z</time>
      </trkpt>
      <trkpt lat="45.65318" lon="5.85219">
        <ele>311</ele>
        <time>2015-09-08T07:43:27Z</time>
      </trkpt>
      <trkpt lat="45.65324" lon="5.85206">
        <ele>311.7</ele>
        <time>2015-09-08T07:43:31Z</time>
      </trkpt>
      <trkpt lat="45.65329" lon="5.85192">
        <ele>312.5</ele>
        <time>2015-09-08T07:43:35Z</time>
      </trkpt>
      <trkpt lat="45.65334" lon="5.85179">
        <ele>313.2</ele>
        <time>2015-09-08T07:43:39Z</time>
      </trkpt>
      <trkpt lat="45.65342" lon="5.8517">
        <ele>313.9</ele>
        <time>2015-09-08T07:43:43Z</time>
      </trkpt>
      <trkpt lat="45.6535" lon="5.8516">
        <ele>314.7</ele>
        <time>2015-09-08T07:43:47Z</time>
      </trkpt>
      <trkpt lat="45.65357" lon="5.8515">
        <ele>315.4</ele>
        <time>2015-09-08T07:43:51Z</time>
      </trkpt>
      <trkpt lat="45.65364" lon="5.85139">
        <ele>316.2</ele>
        <time>2015-09-08T07:43:55Z</time>
      </trkpt>
      <trkpt lat="45.6537" lon="5.85128">
        <ele>316.9</ele>
        <time>2015-09-08T07:43:59Z</time>
      </trkpt>
      <trkpt lat="45.65379" lon="5.85122">
        <ele>317.7</ele>
        <time>2015-09-08T07:44:03Z</time>
      </trkpt>
      <trkpt lat="45.6539" lon="5.85123">
        <ele>318.3</ele>
        <time>2015-09-08T07:44:07Z</time>
      </trkpt>
      <trkpt lat="45.654" lon="5.85123">
        <ele>319</ele>
        <time>2015-09-08T07:44:11Z</time>
      </trkpt>
      <trkpt lat="45.65409" lon="5.85124">
        <ele>319.5</ele>
        <time>2015-09-08T07:44:14Z</time>
      </trkpt>
      <trkpt lat="45.6542" lon="5.85125">
        <ele>320.1</ele>
        <time>2015-09-08T07:44:18Z</time>
      </trkpt>
      <trkpt lat="45.65431" lon="5.85125">
        <ele>320.5</ele>
        <time>2015-09-08T07:44:22Z</time>
      </trkpt>
      <trkpt lat="45.65442" lon="5.85122">
        <ele>320.9</ele>
        <time>2015-09-08T07:44:26Z</time>
      </trkpt>
      <trkpt lat="45.65454" lon="5.85117">
        <ele>321.2</ele>
        <time>2015-09-08T07:44:30Z</time>
      </trkpt>
      <trkpt lat="45.65463" lon="5.85116">
        <ele>321.5</ele>
        <time>2015-09-08T07:44:33Z</time>
      </trkpt>
      <trkpt lat="45.65472" lon="5.85113">
        <ele>321.7</ele>
        <time>2015-09-08T07:44:36Z</time>
      </trkpt>
      <trkpt lat="45.65481" lon="5.85105">
        <ele>322</ele>
        <time>2015-09-08T07:44:39Z</time>
      </trkpt>
      <trkpt lat="45.65489" lon="5.85094">
        <ele>322.4</ele>
        <time>2015-09-08T07:44:43Z</time>
      </trkpt>
      <trkpt lat="45.65496" lon="5.85081">
        <ele>323.1</ele>
        <time>2015-09-08T07:44:48Z</time>
      </trkpt>
      <trkpt lat="45.65503" lon="5.8507">
        <ele>323.8</ele>
        <time>2015-09-08T07:44:53Z</time>
      </trkpt>
      <trkpt lat="45.65511" lon="5.85063">
        <ele>324.8</ele>
        <time>2015-09-08T07:44:58Z</time>
      </trkpt>
      <trkpt lat="45.65521" lon="5.8506">
        <ele>325.8</ele>
        <time>2015-09-08T07:45:03Z</time>
      </trkpt>
      <trkpt lat="45.65532" lon="5.85059">
        <ele>326.9</ele>
        <time>2015-09-08T07:45:08Z</time>
      </trkpt>
      <trkpt lat="45.65543" lon="5.85057">
        <ele>327.9</ele>
        <time>2015-09-08T07:45:13Z</time>
      </trkpt>
      <trkpt lat="45.65553" lon="5.85056">
        <ele>328.7</ele>
        <time>2015-09-08T07:45:17Z</time>
      </trkpt>
      <trkpt lat="45.65563" lon="5.85055">
        <ele>329.5</ele>
        <time>2015-09-08T07:45:21Z</time>
      </trkpt>
      <trkpt lat="45.65573" lon="5.85053">
        <ele>330.3</ele>
        <time>2015-09-08T07:45:25Z</time>
      </trkpt>
      <trkpt lat="45.65583" lon="5.85052">
        <ele>331.1</ele>
        <time>2015-09-08T07:45:29Z</time>
      </trkpt>
      <trkpt lat="45.65593" lon="5.85049">
        <ele>332</ele>
        <time>2015-09-08T07:45:33Z</time>
      </trkpt>
      <trkpt lat="45.65603" lon="5.85046">
        <ele>332.7</ele>
        <time>2015-09-08T07:45:37Z</time>
      </trkpt>
      <trkpt lat="45.65613" lon="5.85039">
        <ele>333.4</ele>
        <time>2015-09-08T07:45:41Z</time>
      </trkpt>
      <trkpt lat="45.65623" lon="5.85033">
        <ele>333.9</ele>
        <time>2015-09-08T07:45:45Z</time>
      </trkpt>
      <trkpt lat="45.65634" lon="5.85029">
        <ele>334.3</ele>
        <time>2015-09-08T07:45:49Z</time>
      </trkpt>
      <trkpt lat="45.65645" lon="5.85028">
        <ele>334.8</ele>
        <time>2015-09-08T07:45:53Z</time>
      </trkpt>
      <trkpt lat="45.65657" lon="5.8503">
        <ele>335.2</ele>
        <time>2015-09-08T07:45:57Z</time>
      </trkpt>
      <trkpt lat="45.65669" lon="5.85032">
        <ele>335.7</ele>
        <time>2015-09-08T07:46:01Z</time>
      </trkpt>
      <trkpt lat="45.65678" lon="5.85035">
        <ele>336.1</ele>
        <time>2015-09-08T07:46:04Z</time>
      </trkpt>
      <trkpt lat="45.65689" lon="5.85038">
        <ele>336.5</ele>
        <time>2015-09-08T07:46:08Z</time>
      </trkpt>
      <trkpt lat="45.657" lon="5.85041">
        <ele>336.9</ele>
        <time>2015-09-08T07:46:12Z</time>
      </trkpt>
      <trkpt lat="45.65712" lon="5.85041">
        <ele>337.3</ele>
        <time>2015-09-08T07:46:16Z</time>
      </trkpt>
      <trkpt lat="45.65723" lon="5.85042">
        <ele>337.8</ele>
        <time>2015-09-08T07:46:20Z</time>
      </trkpt>
      <trkpt lat="45.65734" lon="5.85044">
        <ele>338.4</ele>
        <time>2015-09-08T07:46:24Z</time>
      </trkpt>
      <trkpt lat="45.65744" lon="5.85045">
        <ele>339</ele>
        <time>2015-09-08T07:46:28Z</time>
      </trkpt>
      <trkpt lat="45.65755" lon="5.85048">
        <ele>339.6</ele>
        <time>2015-09-08T07:46:32Z</time>
      </trkpt>
      <trkpt lat="45.65766" lon="5.85052">
        <ele>340.2</ele>
        <time>2015-09-08T07:46:36Z</time>
      </trkpt>
      <trkpt lat="45.65778" lon="5.85056">
        <ele>340.8</ele>
        <time>2015-09-08T07:46:40Z</time>
      </trkpt>
      <trkpt lat="45.65789" lon="5.8506">
        <ele>341.3</ele>
        <time>2015-09-08T07:46:44Z</time>
      </trkpt>
      <trkpt lat="45.65797" lon="5.85063">
        <ele>341.6</ele>
        <time>2015-09-08T07:46:47Z</time>
      </trkpt>
      <trkpt lat="45.65806" lon="5.85067">
        <ele>341.9</ele>
        <time>2015-09-08T07:46:50Z</time>
      </trkpt>
      <trkpt lat="45.65818" lon="5.8507">
        <ele>342.2</ele>
        <time>2015-09-08T07:46:54Z</time>
      </trkpt>
      <trkpt lat="45.65829" lon="5.85065">
        <ele>342.5</ele>
        <time>2015-09-08T07:46:58Z</time>
      </trkpt>
      <trkpt lat="45.65838" lon="5.85061">
        <ele>342.7</ele>
        <time>2015-09-08T07:47:01Z</time>
      </trkpt>
      <trkpt lat="45.65847" lon="5.85059">
        <ele>343</ele>
        <time>2015-09-08T07:47:04Z</time>
      </trkpt>
      <trkpt lat="45.65856" lon="5.85056">
        <ele>343.3</ele>
        <time>2015-09-08T07:47:07Z</time>
      </trkpt>
      <trkpt lat="45.65867" lon="5.85053">
        <ele>343.6</ele>
        <time>2015-09-08T07:47:11Z</time>
      </trkpt>
      <trkpt lat="45.65875" lon="5.85046">
        <ele>344</ele>
        <time>2015-09-08T07:47:15Z</time>
      </trkpt>
      <trkpt lat="45.65874" lon="5.85032">
        <ele>344.8</ele>
        <time>2015-09-08T07:47:20Z</time>
      </trkpt>
      <trkpt lat="45.65866" lon="5.85023">
        <ele>345.8</ele>
        <time>2015-09-08T07:47:25Z</time>
      </trkpt>
      <trkpt lat="45.65857" lon="5.85019">
        <ele>346.5</ele>
        <time>2015-09-08T07:47:29Z</time>
      </trkpt>
      <trkpt lat="45.65847" lon="5.85016">
        <ele>347.2</ele>
        <time>2015-09-08T07:47:33Z</time>
      </trkpt>
      <trkpt lat="45.65838" lon="5.85012">
        <ele>347.9</ele>
        <time>2015-09-08T07:47:37Z</time>
      </trkpt>
      <trkpt lat="45.6583" lon="5.85007">
        <ele>348.5</ele>
        <time>2015-09-08T07:47:41Z</time>
      </trkpt>
      <trkpt lat="45.65821" lon="5.85">
        <ele>349.5</ele>
        <time>2015-09-08T07:47:46Z</time>
      </trkpt>
      <trkpt lat="45.65813" lon="5.84993">
        <ele>350.2</ele>
        <time>2015-09-08T07:47:50Z</time>
      </trkpt>
      <trkpt lat="45.65804" lon="5.84987">
        <ele>350.9</ele>
        <time>2015-09-08T07:47:54Z</time>
      </trkpt>
      <trkpt lat="45.65794" lon="5.8498">
        <ele>351.8</ele>
        <time>2015-09-08T07:47:59Z</time>
      </trkpt>
      <trkpt lat="45.65785" lon="5.84972">
        <ele>352.9</ele>
        <time>2015-09-08T07:48:04Z</time>
      </trkpt>
      <trkpt lat="45.65776" lon="5.84965">
        <ele>353.9</ele>
        <time>2015-09-08T07:48:09Z</time>
      </trkpt>
      <trkpt lat="45.65766" lon="5.84956">
        <ele>355</ele>
        <time>2015-09-08T07:48:14Z</time>
      </trkpt>
      <trkpt lat="45.65757" lon="5.84947">
        <ele>356.2</ele>
        <time>2015-09-08T07:48:19Z</time>
      </trkpt>
      <trkpt lat="45.65748" lon="5.84942">
        <ele>357</ele>
        <time>2015-09-08T07:48:23Z</time>
      </trkpt>
      <trkpt lat="45.6574" lon="5.84935">
        <ele>357.9</ele>
        <time>2015-09-08T07:48:27Z</time>
      </trkpt>
      <trkpt lat="45.65731" lon="5.84928">
        <ele>359</ele>
        <time>2015-09-08T07:48:32Z</time>
      </trkpt>
      <trkpt lat="45.65721" lon="5.84921">
        <ele>360.1</ele>
        <time>2015-09-08T07:48:37Z</time>
      </trkpt>
      <trkpt lat="45.65712" lon="5.84913">
        <ele>361.3</ele>
        <time>2015-09-08T07:48:42Z</time>
      </trkpt>
      <trkpt lat="45.65703" lon="5.84908">
        <ele>362.5</ele>
        <time>2015-09-08T07:48:47Z</time>
      </trkpt>
      <trkpt lat="45.65693" lon="5.84904">
        <ele>363.8</ele>
        <time>2015-09-08T07:48:52Z</time>
      </trkpt>
      <trkpt lat="45.65682" lon="5.84899">
        <ele>365.1</ele>
        <time>2015-09-08T07:48:57Z</time>
      </trkpt>
      <trkpt lat="45.65672" lon="5.84892">
        <ele>366.4</ele>
        <time>2015-09-08T07:49:02Z</time>
      </trkpt>
      <trkpt lat="45.65662" lon="5.84888">
        <ele>367.4</ele>
        <time>2015-09-08T07:49:06Z</time>
      </trkpt>
      <trkpt lat="45.65652" lon="5.84884">
        <ele>368.6</ele>
        <time>2015-09-08T07:49:11Z</time>
      </trkpt>
      <trkpt lat="45.65643" lon="5.84883">
        <ele>369.6</ele>
        <time>2015-09-08T07:49:15Z</time>
      </trkpt>
      <trkpt lat="45.65632" lon="5.84882">
        <ele>370.7</ele>
        <time>2015-09-08T07:49:20Z</time>
      </trkpt>
      <trkpt lat="45.65623" lon="5.84882">
        <ele>371.6</ele>
        <time>2015-09-08T07:49:24Z</time>
      </trkpt>
      <trkpt lat="45.65612" lon="5.84881">
        <ele>372.9</ele>
        <time>2015-09-08T07:49:29Z</time>
      </trkpt>
      <trkpt lat="45.65601" lon="5.84879">
        <ele>374.2</ele>
        <time>2015-09-08T07:49:34Z</time>
      </trkpt>
      <trkpt lat="45.65591" lon="5.84877">
        <ele>375.7</ele>
        <time>2015-09-08T07:49:40Z</time>
      </trkpt>
      <trkpt lat="45.65581" lon="5.84876">
        <ele>376.9</ele>
        <time>2015-09-08T07:49:45Z</time>
      </trkpt>
      <trkpt lat="45.65572" lon="5.84875">
        <ele>378</ele>
        <time>2015-09-08T07:49:49Z</time>
      </trkpt>
      <trkpt lat="45.65562" lon="5.84873">
        <ele>379.2</ele>
        <time>2015-09-08T07:49:54Z</time>
      </trkpt>
      <trkpt lat="45.6555" lon="5.84871">
        <ele>380.4</ele>
        <time>2015-09-08T07:49:59Z</time>
      </trkpt>
      <trkpt lat="45.65541" lon="5.84867">
        <ele>381.2</ele>
        <time>2015-09-08T07:50:03Z</time>
      </trkpt>
      <trkpt lat="45.65539" lon="5.84853">
        <ele>382.4</ele>
        <time>2015-09-08T07:50:08Z</time>
      </trkpt>
      <trkpt lat="45.65549" lon="5.84848">
        <ele>383.7</ele>
        <time>2015-09-08T07:50:13Z</time>
      </trkpt>
      <trkpt lat="45.65559" lon="5.84848">
        <ele>384.9</ele>
        <time>2015-09-08T07:50:18Z</time>
      </trkpt>
      <trkpt lat="45.6557" lon="5.84847">
        <ele>386.2</ele>
        <time>2015-09-08T07:50:24Z</time>
      </trkpt>
      <trkpt lat="45.65579" lon="5.84843">
        <ele>387.3</ele>
        <time>2015-09-08T07:50:29Z</time>
      </trkpt>
      <trkpt lat="45.65588" lon="5.8484">
        <ele>388.2</ele>
        <time>2015-09-08T07:50:33Z</time>
      </trkpt>
      <trkpt lat="45.65597" lon="5.84833">
        <ele>389.2</ele>
        <time>2015-09-08T07:50:37Z</time>
      </trkpt>
      <trkpt lat="45.65605" lon="5.84825">
        <ele>390.2</ele>
        <time>2015-09-08T07:50:41Z</time>
      </trkpt>
      <trkpt lat="45.65614" lon="5.84819">
        <ele>391.4</ele>
        <time>2015-09-08T07:50:46Z</time>
      </trkpt>
      <trkpt lat="45.65622" lon="5.84811">
        <ele>392.3</ele>
        <time>2015-09-08T07:50:50Z</time>
      </trkpt>
      <trkpt lat="45.65631" lon="5.84806">
        <ele>393.2</ele>
        <time>2015-09-08T07:50:54Z</time>
      </trkpt>
      <trkpt lat="45.6564" lon="5.84801">
        <ele>394.3</ele>
        <time>2015-09-08T07:50:59Z</time>
      </trkpt>
      <trkpt lat="45.6565" lon="5.84798">
        <ele>395.1</ele>
        <time>2015-09-08T07:51:03Z</time>
      </trkpt>
      <trkpt lat="45.6566" lon="5.84797">
        <ele>396</ele>
        <time>2015-09-08T07:51:07Z</time>
      </trkpt>
      <trkpt lat="45.65667" lon="5.84787">
        <ele>397.2</ele>
        <time>2015-09-08T07:51:12Z</time>
      </trkpt>
      <trkpt lat="45.65661" lon="5.84777">
        <ele>398.1</ele>
        <time>2015-09-08T07:51:16Z</time>
      </trkpt>
      <trkpt lat="45.6565" lon="5.84776">
        <ele>399.2</ele>
        <time>2015-09-08T07:51:21Z</time>
      </trkpt>
      <trkpt lat="45.65641" lon="5.84777">
        <ele>400.3</ele>
        <time>2015-09-08T07:51:26Z</time>
      </trkpt>
      <trkpt lat="45.65631" lon="5.8478">
        <ele>401.4</ele>
        <time>2015-09-08T07:51:32Z</time>
      </trkpt>
      <trkpt lat="45.65621" lon="5.84783">
        <ele>402.4</ele>
        <time>2015-09-08T07:51:37Z</time>
      </trkpt>
      <trkpt lat="45.6561" lon="5.8478">
        <ele>403.4</ele>
        <time>2015-09-08T07:51:42Z</time>
      </trkpt>
      <trkpt lat="45.65601" lon="5.84772">
        <ele>404.6</ele>
        <time>2015-09-08T07:51:47Z</time>
      </trkpt>
      <trkpt lat="45.65593" lon="5.84765">
        <ele>405.5</ele>
        <time>2015-09-08T07:51:51Z</time>
      </trkpt>
      <trkpt lat="45.65584" lon="5.84761">
        <ele>406.4</ele>
        <time>2015-09-08T07:51:55Z</time>
      </trkpt>
      <trkpt lat="45.65574" lon="5.84755">
        <ele>407.6</ele>
        <time>2015-09-08T07:52:00Z</time>
      </trkpt>
      <trkpt lat="45.65565" lon="5.8475">
        <ele>408.5</ele>
        <time>2015-09-08T07:52:04Z</time>
      </trkpt>
      <trkpt lat="45.65555" lon="5.84746">
        <ele>409.7</ele>
        <time>2015-09-08T07:52:09Z</time>
      </trkpt>
      <trkpt lat="45.65545" lon="5.84743">
        <ele>410.9</ele>
        <time>2015-09-08T07:52:14Z</time>
      </trkpt>
      <trkpt lat="45.65535" lon="5.84741">
        <ele>412.2</ele>
        <time>2015-09-08T07:52:19Z</time>
      </trkpt>
      <trkpt lat="45.65526" lon="5.84741">
        <ele>413.2</ele>
        <time>2015-09-08T07:52:23Z</time>
      </trkpt>
      <trkpt lat="45.65516" lon="5.84739">
        <ele>414.2</ele>
        <time>2015-09-08T07:52:27Z</time>
      </trkpt>
      <trkpt lat="45.65506" lon="5.84738">
        <ele>415.3</ele>
        <time>2015-09-08T07:52:32Z</time>
      </trkpt>
      <trkpt lat="45.65495" lon="5.84735">
        <ele>416.5</ele>
        <time>2015-09-08T07:52:37Z</time>
      </trkpt>
      <trkpt lat="45.65484" lon="5.84732">
        <ele>417.7</ele>
        <time>2015-09-08T07:52:42Z</time>
      </trkpt>
      <trkpt lat="45.65474" lon="5.84731">
        <ele>418.9</ele>
        <time>2015-09-08T07:52:47Z</time>
      </trkpt>
      <trkpt lat="45.65463" lon="5.8473">
        <ele>420.2</ele>
        <time>2015-09-08T07:52:52Z</time>
      </trkpt>
      <trkpt lat="45.65452" lon="5.84727">
        <ele>421.4</ele>
        <time>2015-09-08T07:52:57Z</time>
      </trkpt>
      <trkpt lat="45.65443" lon="5.84725">
        <ele>422.6</ele>
        <time>2015-09-08T07:53:02Z</time>
      </trkpt>
      <trkpt lat="45.65433" lon="5.84723">
        <ele>423.9</ele>
        <time>2015-09-08T07:53:07Z</time>
      </trkpt>
      <trkpt lat="45.65423" lon="5.84721">
        <ele>425</ele>
        <time>2015-09-08T07:53:12Z</time>
      </trkpt>
      <trkpt lat="45.65412" lon="5.84722">
        <ele>426.1</ele>
        <time>2015-09-08T07:53:17Z</time>
      </trkpt>
      <trkpt lat="45.65403" lon="5.84723">
        <ele>426.9</ele>
        <time>2015-09-08T07:53:21Z</time>
      </trkpt>
      <trkpt lat="45.65393" lon="5.84723">
        <ele>427.7</ele>
        <time>2015-09-08T07:53:25Z</time>
      </trkpt>
      <trkpt lat="45.65385" lon="5.84719">
        <ele>428.6</ele>
        <time>2015-09-08T07:53:29Z</time>
      </trkpt>
      <trkpt lat="45.65375" lon="5.84716">
        <ele>429.9</ele>
        <time>2015-09-08T07:53:34Z</time>
      </trkpt>
      <trkpt lat="45.65365" lon="5.84709">
        <ele>431.2</ele>
        <time>2015-09-08T07:53:39Z</time>
      </trkpt>
      <trkpt lat="45.65356" lon="5.84704">
        <ele>432.3</ele>
        <time>2015-09-08T07:53:43Z</time>
      </trkpt>
      <trkpt lat="45.65349" lon="5.84696">
        <ele>433.4</ele>
        <time>2015-09-08T07:53:47Z</time>
      </trkpt>
      <trkpt lat="45.65341" lon="5.84688">
        <ele>434.7</ele>
        <time>2015-09-08T07:53:52Z</time>
      </trkpt>
      <trkpt lat="45.65332" lon="5.8468">
        <ele>435.7</ele>
        <time>2015-09-08T07:53:56Z</time>
      </trkpt>
      <trkpt lat="45.65322" lon="5.84674">
        <ele>437</ele>
        <time>2015-09-08T07:54:01Z</time>
      </trkpt>
      <trkpt lat="45.65313" lon="5.84669">
        <ele>438.1</ele>
        <time>2015-09-08T07:54:06Z</time>
      </trkpt>
      <trkpt lat="45.65305" lon="5.84661">
        <ele>439.3</ele>
        <time>2015-09-08T07:54:11Z</time>
      </trkpt>
      <trkpt lat="45.65299" lon="5.84649">
        <ele>440.3</ele>
        <time>2015-09-08T07:54:16Z</time>
      </trkpt>
      <trkpt lat="45.65304" lon="5.84638">
        <ele>441.1</ele>
        <time>2015-09-08T07:54:20Z</time>
      </trkpt>
      <trkpt lat="45.65313" lon="5.84637">
        <ele>442</ele>
        <time>2015-09-08T07:54:24Z</time>
      </trkpt>
      <trkpt lat="45.65323" lon="5.84636">
        <ele>442.8</ele>
        <time>2015-09-08T07:54:28Z</time>
      </trkpt>
      <trkpt lat="45.65333" lon="5.84633">
        <ele>443.8</ele>
        <time>2015-09-08T07:54:33Z</time>
      </trkpt>
      <trkpt lat="45.65343" lon="5.84627">
        <ele>444.9</ele>
        <time>2015-09-08T07:54:38Z</time>
      </trkpt>
      <trkpt lat="45.65351" lon="5.84622">
        <ele>445.6</ele>
        <time>2015-09-08T07:54:42Z</time>
      </trkpt>
      <trkpt lat="45.6536" lon="5.84615">
        <ele>446.7</ele>
        <time>2015-09-08T07:54:47Z</time>
      </trkpt>
      <trkpt lat="45.65369" lon="5.8461">
        <ele>447.6</ele>
        <time>2015-09-08T07:54:51Z</time>
      </trkpt>
      <trkpt lat="45.65377" lon="5.84602">
        <ele>448.5</ele>
        <time>2015-09-08T07:54:55Z</time>
      </trkpt>
      <trkpt lat="45.65386" lon="5.84595">
        <ele>449.4</ele>
        <time>2015-09-08T07:54:59Z</time>
      </trkpt>
      <trkpt lat="45.65395" lon="5.84588">
        <ele>450.6</ele>
        <time>2015-09-08T07:55:04Z</time>
      </trkpt>
      <trkpt lat="45.65404" lon="5.84585">
        <ele>451.7</ele>
        <time>2015-09-08T07:55:09Z</time>
      </trkpt>
      <trkpt lat="45.65414" lon="5.84582">
        <ele>453</ele>
        <time>2015-09-08T07:55:14Z</time>
      </trkpt>
      <trkpt lat="45.65424" lon="5.84578">
        <ele>454</ele>
        <time>2015-09-08T07:55:18Z</time>
      </trkpt>
      <trkpt lat="45.65433" lon="5.84572">
        <ele>454.9</ele>
        <time>2015-09-08T07:55:22Z</time>
      </trkpt>
      <trkpt lat="45.65437" lon="5.84559">
        <ele>455.9</ele>
        <time>2015-09-08T07:55:27Z</time>
      </trkpt>
      <trkpt lat="45.65428" lon="5.84552">
        <ele>456.9</ele>
        <time>2015-09-08T07:55:32Z</time>
      </trkpt>
      <trkpt lat="45.65419" lon="5.84555">
        <ele>457.9</ele>
        <time>2015-09-08T07:55:37Z</time>
      </trkpt>
      <trkpt lat="45.65409" lon="5.84555">
        <ele>459</ele>
        <time>2015-09-08T07:55:42Z</time>
      </trkpt>
      <trkpt lat="45.654" lon="5.8455">
        <ele>460</ele>
        <time>2015-09-08T07:55:47Z</time>
      </trkpt>
      <trkpt lat="45.65392" lon="5.84542">
        <ele>460.8</ele>
        <time>2015-09-08T07:55:51Z</time>
      </trkpt>
      <trkpt lat="45.65384" lon="5.84536">
        <ele>461.6</ele>
        <time>2015-09-08T07:55:55Z</time>
      </trkpt>
      <trkpt lat="45.65374" lon="5.8453">
        <ele>462.6</ele>
        <time>2015-09-08T07:55:59Z</time>
      </trkpt>
      <trkpt lat="45.65366" lon="5.84522">
        <ele>463.5</ele>
        <time>2015-09-08T07:56:03Z</time>
      </trkpt>
      <trkpt lat="45.65358" lon="5.84515">
        <ele>464.3</ele>
        <time>2015-09-08T07:56:07Z</time>
      </trkpt>
      <trkpt lat="45.65349" lon="5.84507">
        <ele>465.1</ele>
        <time>2015-09-08T07:56:11Z</time>
      </trkpt>
      <trkpt lat="45.65341" lon="5.845">
        <ele>465.9</ele>
        <time>2015-09-08T07:56:15Z</time>
      </trkpt>
      <trkpt lat="45.65331" lon="5.84494">
        <ele>466.7</ele>
        <time>2015-09-08T07:56:19Z</time>
      </trkpt>
      <trkpt lat="45.65323" lon="5.84488">
        <ele>467.6</ele>
        <time>2015-09-08T07:56:23Z</time>
      </trkpt>
      <trkpt lat="45.65314" lon="5.84482">
        <ele>468.5</ele>
        <time>2015-09-08T07:56:27Z</time>
      </trkpt>
      <trkpt lat="45.65305" lon="5.84479">
        <ele>469.3</ele>
        <time>2015-09-08T07:56:30Z</time>
      </trkpt>
      <trkpt lat="45.65296" lon="5.84473">
        <ele>470.5</ele>
        <time>2015-09-08T07:56:35Z</time>
      </trkpt>
      <trkpt lat="45.65288" lon="5.84466">
        <ele>471.7</ele>
        <time>2015-09-08T07:56:40Z</time>
      </trkpt>
      <trkpt lat="45.65277" lon="5.84462">
        <ele>472.6</ele>
        <time>2015-09-08T07:56:44Z</time>
      </trkpt>
      <trkpt lat="45.65267" lon="5.84459">
        <ele>473.5</ele>
        <time>2015-09-08T07:56:48Z</time>
      </trkpt>
      <trkpt lat="45.65257" lon="5.84457">
        <ele>474.8</ele>
        <time>2015-09-08T07:56:53Z</time>
      </trkpt>
      <trkpt lat="45.65247" lon="5.84458">
        <ele>475.7</ele>
        <time>2015-09-08T07:56:57Z</time>
      </trkpt>
      <trkpt lat="45.65236" lon="5.8446">
        <ele>476.6</ele>
        <time>2015-09-08T07:57:01Z</time>
      </trkpt>
      <trkpt lat="45.65225" lon="5.84461">
        <ele>477.6</ele>
        <time>2015-09-08T07:57:06Z</time>
      </trkpt>
      <trkpt lat="45.65215" lon="5.84467">
        <ele>478.5</ele>
        <time>2015-09-08T07:57:10Z</time>
      </trkpt>
      <trkpt lat="45.65204" lon="5.84471">
        <ele>479.4</ele>
        <time>2015-09-08T07:57:14Z</time>
      </trkpt>
      <trkpt lat="45.65192" lon="5.84471">
        <ele>480.3</ele>
        <time>2015-09-08T07:57:18Z</time>
      </trkpt>
      <trkpt lat="45.65182" lon="5.8447">
        <ele>481.2</ele>
        <time>2015-09-08T07:57:22Z</time>
      </trkpt>
      <trkpt lat="45.65173" lon="5.84468">
        <ele>482.2</ele>
        <time>2015-09-08T07:57:26Z</time>
      </trkpt>
      <trkpt lat="45.65162" lon="5.84466">
        <ele>483.1</ele>
        <time>2015-09-08T07:57:30Z</time>
      </trkpt>
      <trkpt lat="45.65153" lon="5.84462">
        <ele>483.8</ele>
        <time>2015-09-08T07:57:33Z</time>
      </trkpt>
      <trkpt lat="45.65142" lon="5.84459">
        <ele>484.7</ele>
        <time>2015-09-08T07:57:37Z</time>
      </trkpt>
      <trkpt lat="45.65131" lon="5.84454">
        <ele>485.5</ele>
        <time>2015-09-08T07:57:41Z</time>
      </trkpt>
      <trkpt lat="45.65121" lon="5.84453">
        <ele>486.2</ele>
        <time>2015-09-08T07:57:44Z</time>
      </trkpt>
      <trkpt lat="45.65111" lon="5.8445">
        <ele>487.1</ele>
        <time>2015-09-08T07:57:48Z</time>
      </trkpt>
      <trkpt lat="45.651" lon="5.84447">
        <ele>487.9</ele>
        <time>2015-09-08T07:57:52Z</time>
      </trkpt>
      <trkpt lat="45.6509" lon="5.84444">
        <ele>488.4</ele>
        <time>2015-09-08T07:57:55Z</time>
      </trkpt>
      <trkpt lat="45.65079" lon="5.8444">
        <ele>489.1</ele>
        <time>2015-09-08T07:57:59Z</time>
      </trkpt>
      <trkpt lat="45.65069" lon="5.84434">
        <ele>489.9</ele>
        <time>2015-09-08T07:58:03Z</time>
      </trkpt>
      <trkpt lat="45.65066" lon="5.84418">
        <ele>490.6</ele>
        <time>2015-09-08T07:58:07Z</time>
      </trkpt>
      <trkpt lat="45.65076" lon="5.84414">
        <ele>491.7</ele>
        <time>2015-09-08T07:58:12Z</time>
      </trkpt>
      <trkpt lat="45.65087" lon="5.84414">
        <ele>493</ele>
        <time>2015-09-08T07:58:17Z</time>
      </trkpt>
      <trkpt lat="45.65097" lon="5.84412">
        <ele>493.9</ele>
        <time>2015-09-08T07:58:21Z</time>
      </trkpt>
      <trkpt lat="45.65107" lon="5.84409">
        <ele>494.6</ele>
        <time>2015-09-08T07:58:24Z</time>
      </trkpt>
      <trkpt lat="45.65118" lon="5.84403">
        <ele>495.5</ele>
        <time>2015-09-08T07:58:28Z</time>
      </trkpt>
      <trkpt lat="45.65128" lon="5.84396">
        <ele>496.3</ele>
        <time>2015-09-08T07:58:32Z</time>
      </trkpt>
      <trkpt lat="45.65136" lon="5.84391">
        <ele>497</ele>
        <time>2015-09-08T07:58:35Z</time>
      </trkpt>
      <trkpt lat="45.65143" lon="5.84381">
        <ele>498</ele>
        <time>2015-09-08T07:58:39Z</time>
      </trkpt>
      <trkpt lat="45.65146" lon="5.84368">
        <ele>499.1</ele>
        <time>2015-09-08T07:58:43Z</time>
      </trkpt>
      <trkpt lat="45.65152" lon="5.84357">
        <ele>500.3</ele>
        <time>2015-09-08T07:58:47Z</time>
      </trkpt>
      <trkpt lat="45.6516" lon="5.8435">
        <ele>501.4</ele>
        <time>2015-09-08T07:58:51Z</time>
      </trkpt>
      <trkpt lat="45.6517" lon="5.84351">
        <ele>502.8</ele>
        <time>2015-09-08T07:58:56Z</time>
      </trkpt>
      <trkpt lat="45.65179" lon="5.84352">
        <ele>504.2</ele>
        <time>2015-09-08T07:59:01Z</time>
      </trkpt>
      <trkpt lat="45.65189" lon="5.84353">
        <ele>505.9</ele>
        <time>2015-09-08T07:59:07Z</time>
      </trkpt>
      <trkpt lat="45.65201" lon="5.84354">
        <ele>507.1</ele>
        <time>2015-09-08T07:59:12Z</time>
      </trkpt>
      <trkpt lat="45.65212" lon="5.84354">
        <ele>508.5</ele>
        <time>2015-09-08T07:59:17Z</time>
      </trkpt>
      <trkpt lat="45.65222" lon="5.84355">
        <ele>509.5</ele>
        <time>2015-09-08T07:59:21Z</time>
      </trkpt>
      <trkpt lat="45.65231" lon="5.84354">
        <ele>510.6</ele>
        <time>2015-09-08T07:59:25Z</time>
      </trkpt>
      <trkpt lat="45.65241" lon="5.84355">
        <ele>511.7</ele>
        <time>2015-09-08T07:59:29Z</time>
      </trkpt>
      <trkpt lat="45.65252" lon="5.84352">
        <ele>513</ele>
        <time>2015-09-08T07:59:34Z</time>
      </trkpt>
      <trkpt lat="45.65262" lon="5.84346">
        <ele>513.9</ele>
        <time>2015-09-08T07:59:38Z</time>
      </trkpt>
      <trkpt lat="45.65271" lon="5.84338">
        <ele>515.2</ele>
        <time>2015-09-08T07:59:43Z</time>
      </trkpt>
      <trkpt lat="45.65279" lon="5.8433">
        <ele>516.5</ele>
        <time>2015-09-08T07:59:48Z</time>
      </trkpt>
      <trkpt lat="45.65289" lon="5.84325">
        <ele>517.9</ele>
        <time>2015-09-08T07:59:53Z</time>
      </trkpt>
      <trkpt lat="45.65297" lon="5.84321">
        <ele>519.7</ele>
        <time>2015-09-08T07:59:59Z</time>
      </trkpt>
      <trkpt lat="45.65307" lon="5.84319">
        <ele>520.9</ele>
        <time>2015-09-08T08:00:03Z</time>
      </trkpt>
      <trkpt lat="45.65317" lon="5.84315">
        <ele>522.3</ele>
        <time>2015-09-08T08:00:08Z</time>
      </trkpt>
      <trkpt lat="45.65327" lon="5.84311">
        <ele>524.4</ele>
        <time>2015-09-08T08:00:16Z</time>
      </trkpt>
      <trkpt lat="45.65336" lon="5.84308">
        <ele>525.4</ele>
        <time>2015-09-08T08:00:20Z</time>
      </trkpt>
      <trkpt lat="45.65347" lon="5.84307">
        <ele>526.7</ele>
        <time>2015-09-08T08:00:25Z</time>
      </trkpt>
      <trkpt lat="45.65358" lon="5.84306">
        <ele>528</ele>
        <time>2015-09-08T08:00:30Z</time>
      </trkpt>
      <trkpt lat="45.65368" lon="5.84305">
        <ele>529.5</ele>
        <time>2015-09-08T08:00:36Z</time>
      </trkpt>
      <trkpt lat="45.6538" lon="5.84306">
        <ele>530.6</ele>
        <time>2015-09-08T08:00:40Z</time>
      </trkpt>
      <trkpt lat="45.65389" lon="5.84307">
        <ele>532</ele>
        <time>2015-09-08T08:00:45Z</time>
      </trkpt>
      <trkpt lat="45.65399" lon="5.84306">
        <ele>533.4</ele>
        <time>2015-09-08T08:00:50Z</time>
      </trkpt>
      <trkpt lat="45.65409" lon="5.843">
        <ele>535.2</ele>
        <time>2015-09-08T08:00:56Z</time>
      </trkpt>
      <trkpt lat="45.65415" lon="5.8429">
        <ele>536.6</ele>
        <time>2015-09-08T08:01:01Z</time>
      </trkpt>
      <trkpt lat="45.65422" lon="5.84279">
        <ele>537.9</ele>
        <time>2015-09-08T08:01:06Z</time>
      </trkpt>
      <trkpt lat="45.65431" lon="5.8427">
        <ele>538.9</ele>
        <time>2015-09-08T08:01:10Z</time>
      </trkpt>
      <trkpt lat="45.6544" lon="5.84271">
        <ele>540</ele>
        <time>2015-09-08T08:01:15Z</time>
      </trkpt>
      <trkpt lat="45.65451" lon="5.84276">
        <ele>541.4</ele>
        <time>2015-09-08T08:01:20Z</time>
      </trkpt>
      <trkpt lat="45.6546" lon="5.84283">
        <ele>542.7</ele>
        <time>2015-09-08T08:01:25Z</time>
      </trkpt>
      <trkpt lat="45.65468" lon="5.84292">
        <ele>544.1</ele>
        <time>2015-09-08T08:01:30Z</time>
      </trkpt>
      <trkpt lat="45.65476" lon="5.84301">
        <ele>545.4</ele>
        <time>2015-09-08T08:01:35Z</time>
      </trkpt>
      <trkpt lat="45.65487" lon="5.84306">
        <ele>547.5</ele>
        <time>2015-09-08T08:01:42Z</time>
      </trkpt>
      <trkpt lat="45.65495" lon="5.84299">
        <ele>548.9</ele>
        <time>2015-09-08T08:01:47Z</time>
      </trkpt>
      <trkpt lat="45.65501" lon="5.84287">
        <ele>550.1</ele>
        <time>2015-09-08T08:01:52Z</time>
      </trkpt>
      <trkpt lat="45.65509" lon="5.84277">
        <ele>551.4</ele>
        <time>2015-09-08T08:01:57Z</time>
      </trkpt>
      <trkpt lat="45.65518" lon="5.84273">
        <ele>552.9</ele>
        <time>2015-09-08T08:02:03Z</time>
      </trkpt>
      <trkpt lat="45.65528" lon="5.84278">
        <ele>554.1</ele>
        <time>2015-09-08T08:02:08Z</time>
      </trkpt>
      <trkpt lat="45.65537" lon="5.84284">
        <ele>555.3</ele>
        <time>2015-09-08T08:02:13Z</time>
      </trkpt>
      <trkpt lat="45.65545" lon="5.84293">
        <ele>556.5</ele>
        <time>2015-09-08T08:02:18Z</time>
      </trkpt>
      <trkpt lat="45.65553" lon="5.84301">
        <ele>557.9</ele>
        <time>2015-09-08T08:02:23Z</time>
      </trkpt>
      <trkpt lat="45.65561" lon="5.8431">
        <ele>559.2</ele>
        <time>2015-09-08T08:02:28Z</time>
      </trkpt>
      <trkpt lat="45.6557" lon="5.84316">
        <ele>560.7</ele>
        <time>2015-09-08T08:02:34Z</time>
      </trkpt>
      <trkpt lat="45.6558" lon="5.84316">
        <ele>562</ele>
        <time>2015-09-08T08:02:39Z</time>
      </trkpt>
      <trkpt lat="45.6559" lon="5.84312">
        <ele>563.3</ele>
        <time>2015-09-08T08:02:44Z</time>
      </trkpt>
      <trkpt lat="45.656" lon="5.84317">
        <ele>565.1</ele>
        <time>2015-09-08T08:02:51Z</time>
      </trkpt>
      <trkpt lat="45.65608" lon="5.84323">
        <ele>566.2</ele>
        <time>2015-09-08T08:02:55Z</time>
      </trkpt>
      <trkpt lat="45.65617" lon="5.84327">
        <ele>567.6</ele>
        <time>2015-09-08T08:03:00Z</time>
      </trkpt>
      <trkpt lat="45.65627" lon="5.84327">
        <ele>569.3</ele>
        <time>2015-09-08T08:03:06Z</time>
      </trkpt>
      <trkpt lat="45.65638" lon="5.84323">
        <ele>570.8</ele>
        <time>2015-09-08T08:03:11Z</time>
      </trkpt>
      <trkpt lat="45.65649" lon="5.84321">
        <ele>572.1</ele>
        <time>2015-09-08T08:03:16Z</time>
      </trkpt>
      <trkpt lat="45.65659" lon="5.8432">
        <ele>573.5</ele>
        <time>2015-09-08T08:03:21Z</time>
      </trkpt>
      <trkpt lat="45.65668" lon="5.84317">
        <ele>575</ele>
        <time>2015-09-08T08:03:26Z</time>
      </trkpt>
      <trkpt lat="45.65678" lon="5.84314">
        <ele>576.2</ele>
        <time>2015-09-08T08:03:31Z</time>
      </trkpt>
      <trkpt lat="45.65688" lon="5.84312">
        <ele>578.1</ele>
        <time>2015-09-08T08:03:38Z</time>
      </trkpt>
      <trkpt lat="45.65697" lon="5.84314">
        <ele>579.2</ele>
        <time>2015-09-08T08:03:43Z</time>
      </trkpt>
      <trkpt lat="45.65708" lon="5.84317">
        <ele>580</ele>
        <time>2015-09-08T08:03:46Z</time>
      </trkpt>
      <trkpt lat="45.65716" lon="5.84324">
        <ele>581</ele>
        <time>2015-09-08T08:03:50Z</time>
      </trkpt>
      <trkpt lat="45.65723" lon="5.84333">
        <ele>582.4</ele>
        <time>2015-09-08T08:03:55Z</time>
      </trkpt>
      <trkpt lat="45.65729" lon="5.84347">
        <ele>584</ele>
        <time>2015-09-08T08:04:01Z</time>
      </trkpt>
      <trkpt lat="45.65737" lon="5.84355">
        <ele>585.4</ele>
        <time>2015-09-08T08:04:06Z</time>
      </trkpt>
      <trkpt lat="45.65745" lon="5.84362">
        <ele>587</ele>
        <time>2015-09-08T08:04:12Z</time>
      </trkpt>
      <trkpt lat="45.65754" lon="5.84367">
        <ele>588</ele>
        <time>2015-09-08T08:04:16Z</time>
      </trkpt>
      <trkpt lat="45.65763" lon="5.84375">
        <ele>589.3</ele>
        <time>2015-09-08T08:04:21Z</time>
      </trkpt>
      <trkpt lat="45.65767" lon="5.84389">
        <ele>590.6</ele>
        <time>2015-09-08T08:04:26Z</time>
      </trkpt>
      <trkpt lat="45.65768" lon="5.84404">
        <ele>591.8</ele>
        <time>2015-09-08T08:04:31Z</time>
      </trkpt>
      <trkpt lat="45.65773" lon="5.84415">
        <ele>592.8</ele>
        <time>2015-09-08T08:04:36Z</time>
      </trkpt>
      <trkpt lat="45.65783" lon="5.84416">
        <ele>593.9</ele>
        <time>2015-09-08T08:04:41Z</time>
      </trkpt>
      <trkpt lat="45.65791" lon="5.84407">
        <ele>594.6</ele>
        <time>2015-09-08T08:04:45Z</time>
      </trkpt>
      <trkpt lat="45.65794" lon="5.84393">
        <ele>595.2</ele>
        <time>2015-09-08T08:04:49Z</time>
      </trkpt>
      <trkpt lat="45.65788" lon="5.8438">
        <ele>596</ele>
        <time>2015-09-08T08:04:54Z</time>
      </trkpt>
      <trkpt lat="45.6578" lon="5.8437">
        <ele>596.6</ele>
        <time>2015-09-08T08:04:58Z</time>
      </trkpt>
      <trkpt lat="45.65773" lon="5.84361">
        <ele>597.3</ele>
        <time>2015-09-08T08:05:02Z</time>
      </trkpt>
      <trkpt lat="45.65767" lon="5.8435">
        <ele>598.1</ele>
        <time>2015-09-08T08:05:07Z</time>
      </trkpt>
      <trkpt lat="45.65759" lon="5.84343">
        <ele>599.1</ele>
        <time>2015-09-08T08:05:12Z</time>
      </trkpt>
      <trkpt lat="45.65752" lon="5.84329">
        <ele>600.1</ele>
        <time>2015-09-08T08:05:17Z</time>
      </trkpt>
      <trkpt lat="45.65749" lon="5.84314">
        <ele>601.2</ele>
        <time>2015-09-08T08:05:22Z</time>
      </trkpt>
      <trkpt lat="45.65747" lon="5.84301">
        <ele>602.2</ele>
        <time>2015-09-08T08:05:27Z</time>
      </trkpt>
      <trkpt lat="45.65742" lon="5.84289">
        <ele>603.3</ele>
        <time>2015-09-08T08:05:32Z</time>
      </trkpt>
      <trkpt lat="45.65735" lon="5.84278">
        <ele>604.7</ele>
        <time>2015-09-08T08:05:38Z</time>
      </trkpt>
      <trkpt lat="45.65727" lon="5.8427">
        <ele>605.6</ele>
        <time>2015-09-08T08:05:42Z</time>
      </trkpt>
      <trkpt lat="45.6572" lon="5.84263">
        <ele>606.5</ele>
        <time>2015-09-08T08:05:46Z</time>
      </trkpt>
      <trkpt lat="45.6571" lon="5.84255">
        <ele>607.5</ele>
        <time>2015-09-08T08:05:50Z</time>
      </trkpt>
      <trkpt lat="45.65701" lon="5.84249">
        <ele>608.4</ele>
        <time>2015-09-08T08:05:54Z</time>
      </trkpt>
      <trkpt lat="45.65692" lon="5.84243">
        <ele>609.4</ele>
        <time>2015-09-08T08:05:58Z</time>
      </trkpt>
      <trkpt lat="45.65684" lon="5.84235">
        <ele>610.7</ele>
        <time>2015-09-08T08:06:03Z</time>
      </trkpt>
      <trkpt lat="45.65675" lon="5.84226">
        <ele>612.2</ele>
        <time>2015-09-08T08:06:09Z</time>
      </trkpt>
      <trkpt lat="45.65667" lon="5.84219">
        <ele>613.2</ele>
        <time>2015-09-08T08:06:13Z</time>
      </trkpt>
      <trkpt lat="45.65659" lon="5.8421">
        <ele>614.6</ele>
        <time>2015-09-08T08:06:18Z</time>
      </trkpt>
      <trkpt lat="45.65652" lon="5.842">
        <ele>615.6</ele>
        <time>2015-09-08T08:06:22Z</time>
      </trkpt>
      <trkpt lat="45.65645" lon="5.8419">
        <ele>616.9</ele>
        <time>2015-09-08T08:06:27Z</time>
      </trkpt>
      <trkpt lat="45.65637" lon="5.84181">
        <ele>618.2</ele>
        <time>2015-09-08T08:06:32Z</time>
      </trkpt>
      <trkpt lat="45.65629" lon="5.84171">
        <ele>619.4</ele>
        <time>2015-09-08T08:06:37Z</time>
      </trkpt>
      <trkpt lat="45.65622" lon="5.84159">
        <ele>620.7</ele>
        <time>2015-09-08T08:06:42Z</time>
      </trkpt>
      <trkpt lat="45.65614" lon="5.84152">
        <ele>621.7</ele>
        <time>2015-09-08T08:06:46Z</time>
      </trkpt>
      <trkpt lat="45.65605" lon="5.84147">
        <ele>622.7</ele>
        <time>2015-09-08T08:06:50Z</time>
      </trkpt>
      <trkpt lat="45.65595" lon="5.84142">
        <ele>623.6</ele>
        <time>2015-09-08T08:06:54Z</time>
      </trkpt>
      <trkpt lat="45.65589" lon="5.84131">
        <ele>624.7</ele>
        <time>2015-09-08T08:06:59Z</time>
      </trkpt>
      <trkpt lat="45.65583" lon="5.84121">
        <ele>625.8</ele>
        <time>2015-09-08T08:07:04Z</time>
      </trkpt>
      <trkpt lat="45.65574" lon="5.84117">
        <ele>626.7</ele>
        <time>2015-09-08T08:07:08Z</time>
      </trkpt>
      <trkpt lat="45.65564" lon="5.84118">
        <ele>628</ele>
        <time>2015-09-08T08:07:13Z</time>
      </trkpt>
      <trkpt lat="45.65553" lon="5.84118">
        <ele>629.2</ele>
        <time>2015-09-08T08:07:18Z</time>
      </trkpt>
      <trkpt lat="45.65543" lon="5.84117">
        <ele>630.4</ele>
        <time>2015-09-08T08:07:23Z</time>
      </trkpt>
      <trkpt lat="45.65533" lon="5.84111">
        <ele>631.7</ele>
        <time>2015-09-08T08:07:28Z</time>
      </trkpt>
      <trkpt lat="45.65524" lon="5.84103">
        <ele>632.9</ele>
        <time>2015-09-08T08:07:33Z</time>
      </trkpt>
      <trkpt lat="45.65514" lon="5.84096">
        <ele>634.1</ele>
        <time>2015-09-08T08:07:38Z</time>
      </trkpt>
      <trkpt lat="45.65504" lon="5.8409">
        <ele>635.3</ele>
        <time>2015-09-08T08:07:43Z</time>
      </trkpt>
      <trkpt lat="45.65495" lon="5.84084">
        <ele>636.5</ele>
        <time>2015-09-08T08:07:48Z</time>
      </trkpt>
      <trkpt lat="45.65486" lon="5.8408">
        <ele>637.5</ele>
        <time>2015-09-08T08:07:52Z</time>
      </trkpt>
      <trkpt lat="45.65477" lon="5.84075">
        <ele>638.5</ele>
        <time>2015-09-08T08:07:56Z</time>
      </trkpt>
      <trkpt lat="45.65467" lon="5.84069">
        <ele>639.6</ele>
        <time>2015-09-08T08:08:01Z</time>
      </trkpt>
      <trkpt lat="45.65459" lon="5.84064">
        <ele>640.5</ele>
        <time>2015-09-08T08:08:05Z</time>
      </trkpt>
      <trkpt lat="45.6545" lon="5.84057">
        <ele>641.6</ele>
        <time>2015-09-08T08:08:10Z</time>
      </trkpt>
      <trkpt lat="45.65441" lon="5.84053">
        <ele>642.8</ele>
        <time>2015-09-08T08:08:15Z</time>
      </trkpt>
      <trkpt lat="45.6543" lon="5.84048">
        <ele>644.1</ele>
        <time>2015-09-08T08:08:20Z</time>
      </trkpt>
      <trkpt lat="45.65421" lon="5.84043">
        <ele>645.2</ele>
        <time>2015-09-08T08:08:25Z</time>
      </trkpt>
      <trkpt lat="45.65413" lon="5.84036">
        <ele>646.4</ele>
        <time>2015-09-08T08:08:30Z</time>
      </trkpt>
      <trkpt lat="45.65404" lon="5.84027">
        <ele>647.7</ele>
        <time>2015-09-08T08:08:35Z</time>
      </trkpt>
      <trkpt lat="45.65397" lon="5.84015">
        <ele>649</ele>
        <time>2015-09-08T08:08:40Z</time>
      </trkpt>
      <trkpt lat="45.65391" lon="5.84004">
        <ele>650.3</ele>
        <time>2015-09-08T08:08:45Z</time>
      </trkpt>
      <trkpt lat="45.65383" lon="5.83996">
        <ele>651.4</ele>
        <time>2015-09-08T08:08:50Z</time>
      </trkpt>
      <trkpt lat="45.65375" lon="5.83987">
        <ele>652.6</ele>
        <time>2015-09-08T08:08:55Z</time>
      </trkpt>
      <trkpt lat="45.65368" lon="5.83979">
        <ele>653.7</ele>
        <time>2015-09-08T08:09:00Z</time>
      </trkpt>
      <trkpt lat="45.6536" lon="5.83971">
        <ele>654.8</ele>
        <time>2015-09-08T08:09:05Z</time>
      </trkpt>
      <trkpt lat="45.65352" lon="5.8396">
        <ele>656</ele>
        <time>2015-09-08T08:09:10Z</time>
      </trkpt>
      <trkpt lat="45.65344" lon="5.83953">
        <ele>657</ele>
        <time>2015-09-08T08:09:14Z</time>
      </trkpt>
      <trkpt lat="45.65336" lon="5.83946">
        <ele>657.9</ele>
        <time>2015-09-08T08:09:18Z</time>
      </trkpt>
      <trkpt lat="45.65328" lon="5.83938">
        <ele>658.9</ele>
        <time>2015-09-08T08:09:23Z</time>
      </trkpt>
      <trkpt lat="45.6532" lon="5.83929">
        <ele>659.8</ele>
        <time>2015-09-08T08:09:27Z</time>
      </trkpt>
      <trkpt lat="45.65311" lon="5.83922">
        <ele>660.8</ele>
        <time>2015-09-08T08:09:31Z</time>
      </trkpt>
      <trkpt lat="45.65303" lon="5.83914">
        <ele>661.9</ele>
        <time>2015-09-08T08:09:36Z</time>
      </trkpt>
      <trkpt lat="45.65294" lon="5.83907">
        <ele>663.1</ele>
        <time>2015-09-08T08:09:41Z</time>
      </trkpt>
      <trkpt lat="45.65286" lon="5.83899">
        <ele>664.4</ele>
        <time>2015-09-08T08:09:46Z</time>
      </trkpt>
      <trkpt lat="45.65277" lon="5.83892">
        <ele>665.6</ele>
        <time>2015-09-08T08:09:51Z</time>
      </trkpt>
      <trkpt lat="45.65268" lon="5.83889">
        <ele>666.3</ele>
        <time>2015-09-08T08:09:54Z</time>
      </trkpt>
      <trkpt lat="45.65258" lon="5.83886">
        <ele>667</ele>
        <time>2015-09-08T08:09:57Z</time>
      </trkpt>
      <trkpt lat="45.65249" lon="5.83884">
        <ele>668</ele>
        <time>2015-09-08T08:10:01Z</time>
      </trkpt>
      <trkpt lat="45.6524" lon="5.83879">
        <ele>668.9</ele>
        <time>2015-09-08T08:10:05Z</time>
      </trkpt>
      <trkpt lat="45.65232" lon="5.83871">
        <ele>670.2</ele>
        <time>2015-09-08T08:10:10Z</time>
      </trkpt>
      <trkpt lat="45.65224" lon="5.83863">
        <ele>671.4</ele>
        <time>2015-09-08T08:10:15Z</time>
      </trkpt>
      <trkpt lat="45.65215" lon="5.83859">
        <ele>672.4</ele>
        <time>2015-09-08T08:10:19Z</time>
      </trkpt>
      <trkpt lat="45.65207" lon="5.83851">
        <ele>673.5</ele>
        <time>2015-09-08T08:10:24Z</time>
      </trkpt>
      <trkpt lat="45.65197" lon="5.83844">
        <ele>674.6</ele>
        <time>2015-09-08T08:10:29Z</time>
      </trkpt>
      <trkpt lat="45.65188" lon="5.83834">
        <ele>675.8</ele>
        <time>2015-09-08T08:10:34Z</time>
      </trkpt>
      <trkpt lat="45.6518" lon="5.83826">
        <ele>676.9</ele>
        <time>2015-09-08T08:10:39Z</time>
      </trkpt>
      <trkpt lat="45.65177" lon="5.83811">
        <ele>678.1</ele>
        <time>2015-09-08T08:10:44Z</time>
      </trkpt>
      <trkpt lat="45.65172" lon="5.83798">
        <ele>679.3</ele>
        <time>2015-09-08T08:10:49Z</time>
      </trkpt>
      <trkpt lat="45.6516" lon="5.83796">
        <ele>679.9</ele>
        <time>2015-09-08T08:10:52Z</time>
      </trkpt>
      <trkpt lat="45.6515" lon="5.838">
        <ele>681</ele>
        <time>2015-09-08T08:10:57Z</time>
      </trkpt>
      <trkpt lat="45.6514" lon="5.83802">
        <ele>681.9</ele>
        <time>2015-09-08T08:11:01Z</time>
      </trkpt>
      <trkpt lat="45.65129" lon="5.83795">
        <ele>683</ele>
        <time>2015-09-08T08:11:06Z</time>
      </trkpt>
      <trkpt lat="45.65124" lon="5.83782">
        <ele>684.2</ele>
        <time>2015-09-08T08:11:11Z</time>
      </trkpt>
      <trkpt lat="45.6512" lon="5.8377">
        <ele>685.5</ele>
        <time>2015-09-08T08:11:16Z</time>
      </trkpt>
      <trkpt lat="45.65116" lon="5.83756">
        <ele>686.8</ele>
        <time>2015-09-08T08:11:21Z</time>
      </trkpt>
      <trkpt lat="45.65108" lon="5.83745">
        <ele>688</ele>
        <time>2015-09-08T08:11:26Z</time>
      </trkpt>
      <trkpt lat="45.65092" lon="5.83741">
        <ele>688.8</ele>
        <time>2015-09-08T08:11:29Z</time>
      </trkpt>
      <trkpt lat="45.65082" lon="5.83744">
        <ele>690.1</ele>
        <time>2015-09-08T08:11:34Z</time>
      </trkpt>
      <trkpt lat="45.65073" lon="5.83747">
        <ele>691.4</ele>
        <time>2015-09-08T08:11:39Z</time>
      </trkpt>
      <trkpt lat="45.65066" lon="5.83739">
        <ele>692.8</ele>
        <time>2015-09-08T08:11:45Z</time>
      </trkpt>
      <trkpt lat="45.65057" lon="5.83731">
        <ele>694</ele>
        <time>2015-09-08T08:11:50Z</time>
      </trkpt>
      <trkpt lat="45.65048" lon="5.83723">
        <ele>695</ele>
        <time>2015-09-08T08:11:55Z</time>
      </trkpt>
      <trkpt lat="45.65038" lon="5.83722">
        <ele>695.7</ele>
        <time>2015-09-08T08:11:58Z</time>
      </trkpt>
      <trkpt lat="45.65028" lon="5.83722">
        <ele>696.8</ele>
        <time>2015-09-08T08:12:03Z</time>
      </trkpt>
      <trkpt lat="45.65018" lon="5.83722">
        <ele>698</ele>
        <time>2015-09-08T08:12:08Z</time>
      </trkpt>
      <trkpt lat="45.6501" lon="5.83717">
        <ele>699.3</ele>
        <time>2015-09-08T08:12:13Z</time>
      </trkpt>
      <trkpt lat="45.65005" lon="5.83706">
        <ele>700.5</ele>
        <time>2015-09-08T08:12:18Z</time>
      </trkpt>
      <trkpt lat="45.64997" lon="5.83696">
        <ele>701.6</ele>
        <time>2015-09-08T08:12:23Z</time>
      </trkpt>
      <trkpt lat="45.64987" lon="5.83693">
        <ele>702.3</ele>
        <time>2015-09-08T08:12:26Z</time>
      </trkpt>
      <trkpt lat="45.64978" lon="5.83692">
        <ele>703.2</ele>
        <time>2015-09-08T08:12:30Z</time>
      </trkpt>
      <trkpt lat="45.64969" lon="5.83688">
        <ele>704</ele>
        <time>2015-09-08T08:12:33Z</time>
      </trkpt>
      <trkpt lat="45.64959" lon="5.83684">
        <ele>705.2</ele>
        <time>2015-09-08T08:12:38Z</time>
      </trkpt>
      <trkpt lat="45.64951" lon="5.83678">
        <ele>706.6</ele>
        <time>2015-09-08T08:12:44Z</time>
      </trkpt>
      <trkpt lat="45.64942" lon="5.83671">
        <ele>707.7</ele>
        <time>2015-09-08T08:12:49Z</time>
      </trkpt>
      <trkpt lat="45.64931" lon="5.83667">
        <ele>708.9</ele>
        <time>2015-09-08T08:12:54Z</time>
      </trkpt>
      <trkpt lat="45.64923" lon="5.83661">
        <ele>710.2</ele>
        <time>2015-09-08T08:12:59Z</time>
      </trkpt>
      <trkpt lat="45.64914" lon="5.83656">
        <ele>711.1</ele>
        <time>2015-09-08T08:13:03Z</time>
      </trkpt>
      <trkpt lat="45.64906" lon="5.83651">
        <ele>711.9</ele>
        <time>2015-09-08T08:13:07Z</time>
      </trkpt>
      <trkpt lat="45.64896" lon="5.83645">
        <ele>713</ele>
        <time>2015-09-08T08:13:12Z</time>
      </trkpt>
      <trkpt lat="45.64887" lon="5.83643">
        <ele>714</ele>
        <time>2015-09-08T08:13:16Z</time>
      </trkpt>
      <trkpt lat="45.64878" lon="5.83638">
        <ele>715.2</ele>
        <time>2015-09-08T08:13:21Z</time>
      </trkpt>
      <trkpt lat="45.64869" lon="5.83633">
        <ele>716.4</ele>
        <time>2015-09-08T08:13:26Z</time>
      </trkpt>
      <trkpt lat="45.6486" lon="5.8363">
        <ele>717.4</ele>
        <time>2015-09-08T08:13:30Z</time>
      </trkpt>
      <trkpt lat="45.6485" lon="5.83625">
        <ele>718.5</ele>
        <time>2015-09-08T08:13:34Z</time>
      </trkpt>
      <trkpt lat="45.64841" lon="5.83618">
        <ele>719.6</ele>
        <time>2015-09-08T08:13:39Z</time>
      </trkpt>
      <trkpt lat="45.64831" lon="5.83612">
        <ele>720.8</ele>
        <time>2015-09-08T08:13:44Z</time>
      </trkpt>
      <trkpt lat="45.64821" lon="5.83608">
        <ele>721.7</ele>
        <time>2015-09-08T08:13:48Z</time>
      </trkpt>
      <trkpt lat="45.64812" lon="5.83602">
        <ele>722.8</ele>
        <time>2015-09-08T08:13:53Z</time>
      </trkpt>
      <trkpt lat="45.64803" lon="5.83598">
        <ele>723.8</ele>
        <time>2015-09-08T08:13:57Z</time>
      </trkpt>
      <trkpt lat="45.64793" lon="5.83593">
        <ele>724.9</ele>
        <time>2015-09-08T08:14:02Z</time>
      </trkpt>
      <trkpt lat="45.64784" lon="5.8359">
        <ele>725.8</ele>
        <time>2015-09-08T08:14:06Z</time>
      </trkpt>
      <trkpt lat="45.64775" lon="5.83585">
        <ele>726.9</ele>
        <time>2015-09-08T08:14:11Z</time>
      </trkpt>
      <trkpt lat="45.64766" lon="5.83581">
        <ele>727.9</ele>
        <time>2015-09-08T08:14:15Z</time>
      </trkpt>
      <trkpt lat="45.64758" lon="5.83576">
        <ele>728.8</ele>
        <time>2015-09-08T08:14:19Z</time>
      </trkpt>
      <trkpt lat="45.64748" lon="5.83569">
        <ele>730</ele>
        <time>2015-09-08T08:14:24Z</time>
      </trkpt>
      <trkpt lat="45.64739" lon="5.8356">
        <ele>731.2</ele>
        <time>2015-09-08T08:14:29Z</time>
      </trkpt>
      <trkpt lat="45.64731" lon="5.83549">
        <ele>732.6</ele>
        <time>2015-09-08T08:14:35Z</time>
      </trkpt>
      <trkpt lat="45.64723" lon="5.83541">
        <ele>733.5</ele>
        <time>2015-09-08T08:14:39Z</time>
      </trkpt>
      <trkpt lat="45.64715" lon="5.83534">
        <ele>734.6</ele>
        <time>2015-09-08T08:14:44Z</time>
      </trkpt>
      <trkpt lat="45.64706" lon="5.83527">
        <ele>735.9</ele>
        <time>2015-09-08T08:14:49Z</time>
      </trkpt>
      <trkpt lat="45.64697" lon="5.83523">
        <ele>736.9</ele>
        <time>2015-09-08T08:14:53Z</time>
      </trkpt>
      <trkpt lat="45.64687" lon="5.83519">
        <ele>738</ele>
        <time>2015-09-08T08:14:58Z</time>
      </trkpt>
      <trkpt lat="45.64683" lon="5.83506">
        <ele>739.3</ele>
        <time>2015-09-08T08:15:03Z</time>
      </trkpt>
      <trkpt lat="45.64689" lon="5.83497">
        <ele>740.5</ele>
        <time>2015-09-08T08:15:08Z</time>
      </trkpt>
      <trkpt lat="45.64699" lon="5.83498">
        <ele>742.5</ele>
        <time>2015-09-08T08:15:17Z</time>
      </trkpt>
      <trkpt lat="45.64708" lon="5.835">
        <ele>743.3</ele>
        <time>2015-09-08T08:15:21Z</time>
      </trkpt>
      <trkpt lat="45.64717" lon="5.83504">
        <ele>744.9</ele>
        <time>2015-09-08T08:15:28Z</time>
      </trkpt>
      <trkpt lat="45.64728" lon="5.83508">
        <ele>745.9</ele>
        <time>2015-09-08T08:15:33Z</time>
      </trkpt>
      <trkpt lat="45.64737" lon="5.83514">
        <ele>746.8</ele>
        <time>2015-09-08T08:15:37Z</time>
      </trkpt>
      <trkpt lat="45.64746" lon="5.83518">
        <ele>747.4</ele>
        <time>2015-09-08T08:15:40Z</time>
      </trkpt>
      <trkpt lat="45.64755" lon="5.83517">
        <ele>748.5</ele>
        <time>2015-09-08T08:15:45Z</time>
      </trkpt>
      <trkpt lat="45.64764" lon="5.83515">
        <ele>749.1</ele>
        <time>2015-09-08T08:15:48Z</time>
      </trkpt>
      <trkpt lat="45.64774" lon="5.83512">
        <ele>750.1</ele>
        <time>2015-09-08T08:15:53Z</time>
      </trkpt>
      <trkpt lat="45.64784" lon="5.83509">
        <ele>751.3</ele>
        <time>2015-09-08T08:15:59Z</time>
      </trkpt>
      <trkpt lat="45.64793" lon="5.83508">
        <ele>752.6</ele>
        <time>2015-09-08T08:16:05Z</time>
      </trkpt>
      <trkpt lat="45.64803" lon="5.83507">
        <ele>753.5</ele>
        <time>2015-09-08T08:16:09Z</time>
      </trkpt>
      <trkpt lat="45.64815" lon="5.83509">
        <ele>754.8</ele>
        <time>2015-09-08T08:16:15Z</time>
      </trkpt>
      <trkpt lat="45.64824" lon="5.83511">
        <ele>755.6</ele>
        <time>2015-09-08T08:16:19Z</time>
      </trkpt>
      <trkpt lat="45.64834" lon="5.83513">
        <ele>756.7</ele>
        <time>2015-09-08T08:16:24Z</time>
      </trkpt>
      <trkpt lat="45.64845" lon="5.83515">
        <ele>757.8</ele>
        <time>2015-09-08T08:16:29Z</time>
      </trkpt>
      <trkpt lat="45.64855" lon="5.83516">
        <ele>758.9</ele>
        <time>2015-09-08T08:16:34Z</time>
      </trkpt>
      <trkpt lat="45.64864" lon="5.83518">
        <ele>759.8</ele>
        <time>2015-09-08T08:16:38Z</time>
      </trkpt>
      <trkpt lat="45.64874" lon="5.83518">
        <ele>760.8</ele>
        <time>2015-09-08T08:16:42Z</time>
      </trkpt>
      <trkpt lat="45.64884" lon="5.8352">
        <ele>761.9</ele>
        <time>2015-09-08T08:16:46Z</time>
      </trkpt>
      <trkpt lat="45.64895" lon="5.8352">
        <ele>762.8</ele>
        <time>2015-09-08T08:16:50Z</time>
      </trkpt>
      <trkpt lat="45.64905" lon="5.83518">
        <ele>764</ele>
        <time>2015-09-08T08:16:55Z</time>
      </trkpt>
      <trkpt lat="45.64915" lon="5.83517">
        <ele>765.2</ele>
        <time>2015-09-08T08:17:00Z</time>
      </trkpt>
      <trkpt lat="45.64926" lon="5.83518">
        <ele>766.2</ele>
        <time>2015-09-08T08:17:05Z</time>
      </trkpt>
      <trkpt lat="45.64935" lon="5.83521">
        <ele>767.3</ele>
        <time>2015-09-08T08:17:10Z</time>
      </trkpt>
      <trkpt lat="45.64945" lon="5.83524">
        <ele>768.4</ele>
        <time>2015-09-08T08:17:15Z</time>
      </trkpt>
      <trkpt lat="45.64955" lon="5.83523">
        <ele>769.5</ele>
        <time>2015-09-08T08:17:20Z</time>
      </trkpt>
      <trkpt lat="45.64964" lon="5.83519">
        <ele>770.8</ele>
        <time>2015-09-08T08:17:25Z</time>
      </trkpt>
      <trkpt lat="45.64974" lon="5.83515">
        <ele>771.9</ele>
        <time>2015-09-08T08:17:30Z</time>
      </trkpt>
      <trkpt lat="45.64984" lon="5.83512">
        <ele>773.2</ele>
        <time>2015-09-08T08:17:35Z</time>
      </trkpt>
      <trkpt lat="45.64994" lon="5.83509">
        <ele>774.4</ele>
        <time>2015-09-08T08:17:40Z</time>
      </trkpt>
      <trkpt lat="45.65006" lon="5.83508">
        <ele>775.4</ele>
        <time>2015-09-08T08:17:44Z</time>
      </trkpt>
      <trkpt lat="45.65015" lon="5.83509">
        <ele>776.4</ele>
        <time>2015-09-08T08:17:48Z</time>
      </trkpt>
      <trkpt lat="45.65025" lon="5.8351">
        <ele>778</ele>
        <time>2015-09-08T08:17:55Z</time>
      </trkpt>
      <trkpt lat="45.65035" lon="5.83513">
        <ele>779.3</ele>
        <time>2015-09-08T08:18:00Z</time>
      </trkpt>
      <trkpt lat="45.65044" lon="5.83513">
        <ele>780.3</ele>
        <time>2015-09-08T08:18:04Z</time>
      </trkpt>
      <trkpt lat="45.65055" lon="5.83512">
        <ele>781.6</ele>
        <time>2015-09-08T08:18:09Z</time>
      </trkpt>
      <trkpt lat="45.65065" lon="5.83512">
        <ele>782.5</ele>
        <time>2015-09-08T08:18:13Z</time>
      </trkpt>
      <trkpt lat="45.65076" lon="5.83511">
        <ele>783.7</ele>
        <time>2015-09-08T08:18:18Z</time>
      </trkpt>
      <trkpt lat="45.65085" lon="5.83508">
        <ele>784.9</ele>
        <time>2015-09-08T08:18:23Z</time>
      </trkpt>
      <trkpt lat="45.65095" lon="5.83508">
        <ele>785.9</ele>
        <time>2015-09-08T08:18:28Z</time>
      </trkpt>
      <trkpt lat="45.65104" lon="5.83509">
        <ele>786.8</ele>
        <time>2015-09-08T08:18:32Z</time>
      </trkpt>
      <trkpt lat="45.65113" lon="5.83513">
        <ele>787.8</ele>
        <time>2015-09-08T08:18:36Z</time>
      </trkpt>
      <trkpt lat="45.65124" lon="5.83517">
        <ele>789</ele>
        <time>2015-09-08T08:18:41Z</time>
      </trkpt>
      <trkpt lat="45.65135" lon="5.83519">
        <ele>789.8</ele>
        <time>2015-09-08T08:18:45Z</time>
      </trkpt>
      <trkpt lat="45.65146" lon="5.83521">
        <ele>790.8</ele>
        <time>2015-09-08T08:18:49Z</time>
      </trkpt>
      <trkpt lat="45.65156" lon="5.83521">
        <ele>792.1</ele>
        <time>2015-09-08T08:18:54Z</time>
      </trkpt>
      <trkpt lat="45.65166" lon="5.8352">
        <ele>793.3</ele>
        <time>2015-09-08T08:18:59Z</time>
      </trkpt>
      <trkpt lat="45.65176" lon="5.8352">
        <ele>794.6</ele>
        <time>2015-09-08T08:19:04Z</time>
      </trkpt>
      <trkpt lat="45.65185" lon="5.83517">
        <ele>795.6</ele>
        <time>2015-09-08T08:19:08Z</time>
      </trkpt>
      <trkpt lat="45.65195" lon="5.83519">
        <ele>796.8</ele>
        <time>2015-09-08T08:19:13Z</time>
      </trkpt>
      <trkpt lat="45.65205" lon="5.83525">
        <ele>797.9</ele>
        <time>2015-09-08T08:19:18Z</time>
      </trkpt>
      <trkpt lat="45.65216" lon="5.83525">
        <ele>798.8</ele>
        <time>2015-09-08T08:19:22Z</time>
      </trkpt>
      <trkpt lat="45.65225" lon="5.83522">
        <ele>799.7</ele>
        <time>2015-09-08T08:19:26Z</time>
      </trkpt>
      <trkpt lat="45.65233" lon="5.83517">
        <ele>800.8</ele>
        <time>2015-09-08T08:19:31Z</time>
      </trkpt>
      <trkpt lat="45.65242" lon="5.83514">
        <ele>801.9</ele>
        <time>2015-09-08T08:19:36Z</time>
      </trkpt>
      <trkpt lat="45.65253" lon="5.83513">
        <ele>803.1</ele>
        <time>2015-09-08T08:19:42Z</time>
      </trkpt>
      <trkpt lat="45.65262" lon="5.83513">
        <ele>803.7</ele>
        <time>2015-09-08T08:19:45Z</time>
      </trkpt>
      <trkpt lat="45.65272" lon="5.83513">
        <ele>804.8</ele>
        <time>2015-09-08T08:19:49Z</time>
      </trkpt>
      <trkpt lat="45.65282" lon="5.83512">
        <ele>805.8</ele>
        <time>2015-09-08T08:19:53Z</time>
      </trkpt>
      <trkpt lat="45.65292" lon="5.8351">
        <ele>806.7</ele>
        <time>2015-09-08T08:19:57Z</time>
      </trkpt>
      <trkpt lat="45.65303" lon="5.83507">
        <ele>807.7</ele>
        <time>2015-09-08T08:20:01Z</time>
      </trkpt>
      <trkpt lat="45.65312" lon="5.83507">
        <ele>808.6</ele>
        <time>2015-09-08T08:20:05Z</time>
      </trkpt>
      <trkpt lat="45.65321" lon="5.83509">
        <ele>809.6</ele>
        <time>2015-09-08T08:20:09Z</time>
      </trkpt>
      <trkpt lat="45.6533" lon="5.83512">
        <ele>810.7</ele>
        <time>2015-09-08T08:20:14Z</time>
      </trkpt>
      <trkpt lat="45.6534" lon="5.83513">
        <ele>811.9</ele>
        <time>2015-09-08T08:20:19Z</time>
      </trkpt>
      <trkpt lat="45.65349" lon="5.83515">
        <ele>813.2</ele>
        <time>2015-09-08T08:20:25Z</time>
      </trkpt>
      <trkpt lat="45.65359" lon="5.83519">
        <ele>814.9</ele>
        <time>2015-09-08T08:20:32Z</time>
      </trkpt>
      <trkpt lat="45.65369" lon="5.83524">
        <ele>816.1</ele>
        <time>2015-09-08T08:20:37Z</time>
      </trkpt>
      <trkpt lat="45.65379" lon="5.83527">
        <ele>817.5</ele>
        <time>2015-09-08T08:20:42Z</time>
      </trkpt>
      <trkpt lat="45.6539" lon="5.83531">
        <ele>818.7</ele>
        <time>2015-09-08T08:20:47Z</time>
      </trkpt>
      <trkpt lat="45.654" lon="5.83535">
        <ele>819.4</ele>
        <time>2015-09-08T08:20:50Z</time>
      </trkpt>
      <trkpt lat="45.6541" lon="5.83537">
        <ele>820.4</ele>
        <time>2015-09-08T08:20:54Z</time>
      </trkpt>
      <trkpt lat="45.6542" lon="5.83539">
        <ele>821.3</ele>
        <time>2015-09-08T08:20:58Z</time>
      </trkpt>
      <trkpt lat="45.65429" lon="5.8354">
        <ele>822.8</ele>
        <time>2015-09-08T08:21:04Z</time>
      </trkpt>
      <trkpt lat="45.65441" lon="5.8354">
        <ele>824</ele>
        <time>2015-09-08T08:21:09Z</time>
      </trkpt>
      <trkpt lat="45.6545" lon="5.83539">
        <ele>825</ele>
        <time>2015-09-08T08:21:13Z</time>
      </trkpt>
      <trkpt lat="45.65461" lon="5.83539">
        <ele>826.1</ele>
        <time>2015-09-08T08:21:18Z</time>
      </trkpt>
      <trkpt lat="45.65472" lon="5.83536">
        <ele>826.9</ele>
        <time>2015-09-08T08:21:22Z</time>
      </trkpt>
      <trkpt lat="45.65482" lon="5.83536">
        <ele>827.9</ele>
        <time>2015-09-08T08:21:27Z</time>
      </trkpt>
      <trkpt lat="45.6549" lon="5.83539">
        <ele>829.4</ele>
        <time>2015-09-08T08:21:33Z</time>
      </trkpt>
      <trkpt lat="45.65499" lon="5.83542">
        <ele>830.3</ele>
        <time>2015-09-08T08:21:37Z</time>
      </trkpt>
      <trkpt lat="45.65508" lon="5.83544">
        <ele>831.7</ele>
        <time>2015-09-08T08:21:43Z</time>
      </trkpt>
      <trkpt lat="45.65518" lon="5.83544">
        <ele>833</ele>
        <time>2015-09-08T08:21:48Z</time>
      </trkpt>
      <trkpt lat="45.65528" lon="5.83542">
        <ele>833.4</ele>
        <time>2015-09-08T08:21:50Z</time>
      </trkpt>
      <trkpt lat="45.65537" lon="5.83537">
        <ele>834.3</ele>
        <time>2015-09-08T08:21:54Z</time>
      </trkpt>
      <trkpt lat="45.65546" lon="5.83533">
        <ele>835.6</ele>
        <time>2015-09-08T08:22:00Z</time>
      </trkpt>
      <trkpt lat="45.65556" lon="5.83537">
        <ele>836.6</ele>
        <time>2015-09-08T08:22:04Z</time>
      </trkpt>
      <trkpt lat="45.65565" lon="5.83546">
        <ele>837.9</ele>
        <time>2015-09-08T08:22:09Z</time>
      </trkpt>
      <trkpt lat="45.65573" lon="5.83555">
        <ele>838.9</ele>
        <time>2015-09-08T08:22:13Z</time>
      </trkpt>
      <trkpt lat="45.65582" lon="5.83562">
        <ele>839.8</ele>
        <time>2015-09-08T08:22:17Z</time>
      </trkpt>
      <trkpt lat="45.65593" lon="5.83566">
        <ele>841</ele>
        <time>2015-09-08T08:22:22Z</time>
      </trkpt>
      <trkpt lat="45.65602" lon="5.83568">
        <ele>842.3</ele>
        <time>2015-09-08T08:22:27Z</time>
      </trkpt>
      <trkpt lat="45.65612" lon="5.83564">
        <ele>843.8</ele>
        <time>2015-09-08T08:22:33Z</time>
      </trkpt>
      <trkpt lat="45.6562" lon="5.83555">
        <ele>844.9</ele>
        <time>2015-09-08T08:22:38Z</time>
      </trkpt>
      <trkpt lat="45.65626" lon="5.83545">
        <ele>846</ele>
        <time>2015-09-08T08:22:42Z</time>
      </trkpt>
      <trkpt lat="45.65634" lon="5.83536">
        <ele>847.2</ele>
        <time>2015-09-08T08:22:47Z</time>
      </trkpt>
      <trkpt lat="45.65643" lon="5.83531">
        <ele>849.3</ele>
        <time>2015-09-08T08:22:55Z</time>
      </trkpt>
      <trkpt lat="45.65654" lon="5.83535">
        <ele>850.2</ele>
        <time>2015-09-08T08:22:59Z</time>
      </trkpt>
      <trkpt lat="45.65663" lon="5.83541">
        <ele>851.5</ele>
        <time>2015-09-08T08:23:05Z</time>
      </trkpt>
      <trkpt lat="45.65672" lon="5.83542">
        <ele>852.8</ele>
        <time>2015-09-08T08:23:10Z</time>
      </trkpt>
      <trkpt lat="45.65683" lon="5.83542">
        <ele>853.4</ele>
        <time>2015-09-08T08:23:13Z</time>
      </trkpt>
      <trkpt lat="45.65693" lon="5.8354">
        <ele>854.2</ele>
        <time>2015-09-08T08:23:17Z</time>
      </trkpt>
      <trkpt lat="45.65705" lon="5.83537">
        <ele>855.2</ele>
        <time>2015-09-08T08:23:22Z</time>
      </trkpt>
      <trkpt lat="45.65715" lon="5.83536">
        <ele>856.3</ele>
        <time>2015-09-08T08:23:27Z</time>
      </trkpt>
      <trkpt lat="45.65725" lon="5.83541">
        <ele>857.2</ele>
        <time>2015-09-08T08:23:31Z</time>
      </trkpt>
      <trkpt lat="45.65735" lon="5.83547">
        <ele>858.4</ele>
        <time>2015-09-08T08:23:36Z</time>
      </trkpt>
      <trkpt lat="45.65746" lon="5.83549">
        <ele>860</ele>
        <time>2015-09-08T08:23:42Z</time>
      </trkpt>
      <trkpt lat="45.65756" lon="5.83547">
        <ele>861</ele>
        <time>2015-09-08T08:23:46Z</time>
      </trkpt>
      <trkpt lat="45.65765" lon="5.83549">
        <ele>862.5</ele>
        <time>2015-09-08T08:23:52Z</time>
      </trkpt>
      <trkpt lat="45.65775" lon="5.83551">
        <ele>863.6</ele>
        <time>2015-09-08T08:23:57Z</time>
      </trkpt>
      <trkpt lat="45.65784" lon="5.83554">
        <ele>864.9</ele>
        <time>2015-09-08T08:24:02Z</time>
      </trkpt>
      <trkpt lat="45.65793" lon="5.83556">
        <ele>866.3</ele>
        <time>2015-09-08T08:24:08Z</time>
      </trkpt>
      <trkpt lat="45.65803" lon="5.83558">
        <ele>867.8</ele>
        <time>2015-09-08T08:24:14Z</time>
      </trkpt>
      <trkpt lat="45.65813" lon="5.83562">
        <ele>868.9</ele>
        <time>2015-09-08T08:24:18Z</time>
      </trkpt>
      <trkpt lat="45.65821" lon="5.83571">
        <ele>870.4</ele>
        <time>2015-09-08T08:24:24Z</time>
      </trkpt>
      <trkpt lat="45.65833" lon="5.83576">
        <ele>871.1</ele>
        <time>2015-09-08T08:24:27Z</time>
      </trkpt>
      <trkpt lat="45.65843" lon="5.83579">
        <ele>872.4</ele>
        <time>2015-09-08T08:24:32Z</time>
      </trkpt>
      <trkpt lat="45.65854" lon="5.83578">
        <ele>873.7</ele>
        <time>2015-09-08T08:24:37Z</time>
      </trkpt>
      <trkpt lat="45.65863" lon="5.83577">
        <ele>875</ele>
        <time>2015-09-08T08:24:42Z</time>
      </trkpt>
      <trkpt lat="45.65873" lon="5.83581">
        <ele>876.1</ele>
        <time>2015-09-08T08:24:47Z</time>
      </trkpt>
      <trkpt lat="45.65882" lon="5.83588">
        <ele>877.3</ele>
        <time>2015-09-08T08:24:52Z</time>
      </trkpt>
      <trkpt lat="45.65892" lon="5.83594">
        <ele>878.2</ele>
        <time>2015-09-08T08:24:56Z</time>
      </trkpt>
      <trkpt lat="45.65901" lon="5.83599">
        <ele>879.2</ele>
        <time>2015-09-08T08:25:00Z</time>
      </trkpt>
      <trkpt lat="45.65911" lon="5.83603">
        <ele>880</ele>
        <time>2015-09-08T08:25:03Z</time>
      </trkpt>
      <trkpt lat="45.6592" lon="5.83607">
        <ele>881.1</ele>
        <time>2015-09-08T08:25:08Z</time>
      </trkpt>
      <trkpt lat="45.65931" lon="5.83609">
        <ele>882.9</ele>
        <time>2015-09-08T08:25:15Z</time>
      </trkpt>
      <trkpt lat="45.6594" lon="5.83611">
        <ele>884.2</ele>
        <time>2015-09-08T08:25:20Z</time>
      </trkpt>
      <trkpt lat="45.6595" lon="5.83616">
        <ele>885.7</ele>
        <time>2015-09-08T08:25:26Z</time>
      </trkpt>
      <trkpt lat="45.65959" lon="5.83618">
        <ele>886.4</ele>
        <time>2015-09-08T08:25:29Z</time>
      </trkpt>
      <trkpt lat="45.65968" lon="5.83621">
        <ele>887.1</ele>
        <time>2015-09-08T08:25:32Z</time>
      </trkpt>
      <trkpt lat="45.65979" lon="5.83629">
        <ele>888</ele>
        <time>2015-09-08T08:25:36Z</time>
      </trkpt>
      <trkpt lat="45.65987" lon="5.83637">
        <ele>889.1</ele>
        <time>2015-09-08T08:25:40Z</time>
      </trkpt>
      <trkpt lat="45.65996" lon="5.83645">
        <ele>890.1</ele>
        <time>2015-09-08T08:25:44Z</time>
      </trkpt>
      <trkpt lat="45.66006" lon="5.8365">
        <ele>891.6</ele>
        <time>2015-09-08T08:25:50Z</time>
      </trkpt>
      <trkpt lat="45.66017" lon="5.83649">
        <ele>892.8</ele>
        <time>2015-09-08T08:25:55Z</time>
      </trkpt>
      <trkpt lat="45.66027" lon="5.8365">
        <ele>893.9</ele>
        <time>2015-09-08T08:25:59Z</time>
      </trkpt>
      <trkpt lat="45.66037" lon="5.83652">
        <ele>895.1</ele>
        <time>2015-09-08T08:26:04Z</time>
      </trkpt>
      <trkpt lat="45.66046" lon="5.8365">
        <ele>896.3</ele>
        <time>2015-09-08T08:26:09Z</time>
      </trkpt>
      <trkpt lat="45.66055" lon="5.83649">
        <ele>897.6</ele>
        <time>2015-09-08T08:26:15Z</time>
      </trkpt>
      <trkpt lat="45.66065" lon="5.83646">
        <ele>898.9</ele>
        <time>2015-09-08T08:26:20Z</time>
      </trkpt>
      <trkpt lat="45.66075" lon="5.83645">
        <ele>900.2</ele>
        <time>2015-09-08T08:26:26Z</time>
      </trkpt>
      <trkpt lat="45.66085" lon="5.83645">
        <ele>901.2</ele>
        <time>2015-09-08T08:26:30Z</time>
      </trkpt>
      <trkpt lat="45.66093" lon="5.83651">
        <ele>902.4</ele>
        <time>2015-09-08T08:26:35Z</time>
      </trkpt>
      <trkpt lat="45.66102" lon="5.83658">
        <ele>903.5</ele>
        <time>2015-09-08T08:26:40Z</time>
      </trkpt>
      <trkpt lat="45.66111" lon="5.83662">
        <ele>904.2</ele>
        <time>2015-09-08T08:26:43Z</time>
      </trkpt>
      <trkpt lat="45.66122" lon="5.83669">
        <ele>905</ele>
        <time>2015-09-08T08:26:47Z</time>
      </trkpt>
      <trkpt lat="45.66131" lon="5.83675">
        <ele>906.1</ele>
        <time>2015-09-08T08:26:51Z</time>
      </trkpt>
      <trkpt lat="45.6614" lon="5.8368">
        <ele>907.3</ele>
        <time>2015-09-08T08:26:56Z</time>
      </trkpt>
      <trkpt lat="45.66151" lon="5.83686">
        <ele>908.5</ele>
        <time>2015-09-08T08:27:01Z</time>
      </trkpt>
      <trkpt lat="45.6616" lon="5.8369">
        <ele>909.4</ele>
        <time>2015-09-08T08:27:05Z</time>
      </trkpt>
      <trkpt lat="45.66169" lon="5.83697">
        <ele>910.7</ele>
        <time>2015-09-08T08:27:10Z</time>
      </trkpt>
      <trkpt lat="45.66178" lon="5.83701">
        <ele>912</ele>
        <time>2015-09-08T08:27:15Z</time>
      </trkpt>
      <trkpt lat="45.66188" lon="5.83703">
        <ele>913.1</ele>
        <time>2015-09-08T08:27:19Z</time>
      </trkpt>
      <trkpt lat="45.66198" lon="5.837">
        <ele>914.4</ele>
        <time>2015-09-08T08:27:24Z</time>
      </trkpt>
      <trkpt lat="45.66207" lon="5.83696">
        <ele>915.6</ele>
        <time>2015-09-08T08:27:29Z</time>
      </trkpt>
      <trkpt lat="45.66218" lon="5.83692">
        <ele>916.9</ele>
        <time>2015-09-08T08:27:34Z</time>
      </trkpt>
      <trkpt lat="45.66228" lon="5.83691">
        <ele>918</ele>
        <time>2015-09-08T08:27:39Z</time>
      </trkpt>
      <trkpt lat="45.66237" lon="5.83691">
        <ele>919.3</ele>
        <time>2015-09-08T08:27:45Z</time>
      </trkpt>
      <trkpt lat="45.66246" lon="5.83684">
        <ele>920.5</ele>
        <time>2015-09-08T08:27:50Z</time>
      </trkpt>
      <trkpt lat="45.66252" lon="5.83672">
        <ele>921.4</ele>
        <time>2015-09-08T08:27:54Z</time>
      </trkpt>
      <trkpt lat="45.66248" lon="5.83659">
        <ele>922.4</ele>
        <time>2015-09-08T08:27:59Z</time>
      </trkpt>
      <trkpt lat="45.6624" lon="5.83652">
        <ele>923.4</ele>
        <time>2015-09-08T08:28:04Z</time>
      </trkpt>
      <trkpt lat="45.66231" lon="5.83646">
        <ele>924.3</ele>
        <time>2015-09-08T08:28:09Z</time>
      </trkpt>
      <trkpt lat="45.66222" lon="5.83641">
        <ele>925.3</ele>
        <time>2015-09-08T08:28:14Z</time>
      </trkpt>
      <trkpt lat="45.66213" lon="5.83635">
        <ele>926.3</ele>
        <time>2015-09-08T08:28:19Z</time>
      </trkpt>
      <trkpt lat="45.66204" lon="5.83628">
        <ele>927.9</ele>
        <time>2015-09-08T08:28:26Z</time>
      </trkpt>
      <trkpt lat="45.66195" lon="5.83622">
        <ele>929.2</ele>
        <time>2015-09-08T08:28:31Z</time>
      </trkpt>
      <trkpt lat="45.66185" lon="5.83614">
        <ele>930.1</ele>
        <time>2015-09-08T08:28:35Z</time>
      </trkpt>
      <trkpt lat="45.66176" lon="5.83611">
        <ele>931</ele>
        <time>2015-09-08T08:28:39Z</time>
      </trkpt>
      <trkpt lat="45.66167" lon="5.83606">
        <ele>932.2</ele>
        <time>2015-09-08T08:28:44Z</time>
      </trkpt>
      <trkpt lat="45.66157" lon="5.83601">
        <ele>933.7</ele>
        <time>2015-09-08T08:28:50Z</time>
      </trkpt>
      <trkpt lat="45.66148" lon="5.83594">
        <ele>934.8</ele>
        <time>2015-09-08T08:28:55Z</time>
      </trkpt>
      <trkpt lat="45.6614" lon="5.83588">
        <ele>935.8</ele>
        <time>2015-09-08T08:28:59Z</time>
      </trkpt>
      <trkpt lat="45.66131" lon="5.83578">
        <ele>937</ele>
        <time>2015-09-08T08:29:04Z</time>
      </trkpt>
      <trkpt lat="45.66125" lon="5.83567">
        <ele>938</ele>
        <time>2015-09-08T08:29:08Z</time>
      </trkpt>
      <trkpt lat="45.66122" lon="5.83554">
        <ele>939.1</ele>
        <time>2015-09-08T08:29:13Z</time>
      </trkpt>
      <trkpt lat="45.66118" lon="5.83543">
        <ele>940.6</ele>
        <time>2015-09-08T08:29:19Z</time>
      </trkpt>
      <trkpt lat="45.66111" lon="5.83532">
        <ele>941.8</ele>
        <time>2015-09-08T08:29:24Z</time>
      </trkpt>
      <trkpt lat="45.66104" lon="5.8352">
        <ele>943</ele>
        <time>2015-09-08T08:29:29Z</time>
      </trkpt>
      <trkpt lat="45.66097" lon="5.83508">
        <ele>944.3</ele>
        <time>2015-09-08T08:29:34Z</time>
      </trkpt>
      <trkpt lat="45.66088" lon="5.835">
        <ele>944.8</ele>
        <time>2015-09-08T08:29:36Z</time>
      </trkpt>
      <trkpt lat="45.6608" lon="5.83494">
        <ele>945.7</ele>
        <time>2015-09-08T08:29:40Z</time>
      </trkpt>
      <trkpt lat="45.6607" lon="5.83492">
        <ele>946.6</ele>
        <time>2015-09-08T08:29:44Z</time>
      </trkpt>
      <trkpt lat="45.66061" lon="5.83492">
        <ele>947.4</ele>
        <time>2015-09-08T08:29:48Z</time>
      </trkpt>
      <trkpt lat="45.66051" lon="5.8349">
        <ele>948.5</ele>
        <time>2015-09-08T08:29:53Z</time>
      </trkpt>
      <trkpt lat="45.66041" lon="5.83487">
        <ele>949.8</ele>
        <time>2015-09-08T08:29:58Z</time>
      </trkpt>
      <trkpt lat="45.66032" lon="5.83482">
        <ele>950.7</ele>
        <time>2015-09-08T08:30:02Z</time>
      </trkpt>
      <trkpt lat="45.66023" lon="5.83478">
        <ele>951.9</ele>
        <time>2015-09-08T08:30:07Z</time>
      </trkpt>
      <trkpt lat="45.66015" lon="5.83472">
        <ele>953.2</ele>
        <time>2015-09-08T08:30:12Z</time>
      </trkpt>
      <trkpt lat="45.66006" lon="5.83465">
        <ele>954.4</ele>
        <time>2015-09-08T08:30:17Z</time>
      </trkpt>
      <trkpt lat="45.65996" lon="5.83461">
        <ele>955.3</ele>
        <time>2015-09-08T08:30:21Z</time>
      </trkpt>
      <trkpt lat="45.65988" lon="5.83456">
        <ele>956.2</ele>
        <time>2015-09-08T08:30:25Z</time>
      </trkpt>
      <trkpt lat="45.65979" lon="5.83448">
        <ele>957.3</ele>
        <time>2015-09-08T08:30:30Z</time>
      </trkpt>
      <trkpt lat="45.65973" lon="5.83436">
        <ele>958.6</ele>
        <time>2015-09-08T08:30:35Z</time>
      </trkpt>
      <trkpt lat="45.65969" lon="5.83423">
        <ele>959.9</ele>
        <time>2015-09-08T08:30:40Z</time>
      </trkpt>
      <trkpt lat="45.65967" lon="5.8341">
        <ele>961</ele>
        <time>2015-09-08T08:30:45Z</time>
      </trkpt>
      <trkpt lat="45.65958" lon="5.83403">
        <ele>962</ele>
        <time>2015-09-08T08:30:49Z</time>
      </trkpt>
      <trkpt lat="45.6595" lon="5.83395">
        <ele>963</ele>
        <time>2015-09-08T08:30:53Z</time>
      </trkpt>
      <trkpt lat="45.65942" lon="5.83389">
        <ele>963.8</ele>
        <time>2015-09-08T08:30:57Z</time>
      </trkpt>
      <trkpt lat="45.65932" lon="5.83385">
        <ele>964.6</ele>
        <time>2015-09-08T08:31:01Z</time>
      </trkpt>
      <trkpt lat="45.6592" lon="5.83384">
        <ele>965.7</ele>
        <time>2015-09-08T08:31:06Z</time>
      </trkpt>
      <trkpt lat="45.65912" lon="5.83379">
        <ele>966.6</ele>
        <time>2015-09-08T08:31:10Z</time>
      </trkpt>
      <trkpt lat="45.65903" lon="5.83371">
        <ele>967.7</ele>
        <time>2015-09-08T08:31:15Z</time>
      </trkpt>
      <trkpt lat="45.65896" lon="5.8336">
        <ele>968.9</ele>
        <time>2015-09-08T08:31:20Z</time>
      </trkpt>
      <trkpt lat="45.65892" lon="5.83346">
        <ele>970</ele>
        <time>2015-09-08T08:31:25Z</time>
      </trkpt>
      <trkpt lat="45.65887" lon="5.83332">
        <ele>971.2</ele>
        <time>2015-09-08T08:31:30Z</time>
      </trkpt>
      <trkpt lat="45.65879" lon="5.83323">
        <ele>972.4</ele>
        <time>2015-09-08T08:31:35Z</time>
      </trkpt>
      <trkpt lat="45.6587" lon="5.83316">
        <ele>973.2</ele>
        <time>2015-09-08T08:31:39Z</time>
      </trkpt>
      <trkpt lat="45.65861" lon="5.83311">
        <ele>974.2</ele>
        <time>2015-09-08T08:31:43Z</time>
      </trkpt>
      <trkpt lat="45.65853" lon="5.83303">
        <ele>975.2</ele>
        <time>2015-09-08T08:31:47Z</time>
      </trkpt>
      <trkpt lat="45.65844" lon="5.83296">
        <ele>976.5</ele>
        <time>2015-09-08T08:31:52Z</time>
      </trkpt>
      <trkpt lat="45.65835" lon="5.83294">
        <ele>977.5</ele>
        <time>2015-09-08T08:31:56Z</time>
      </trkpt>
      <trkpt lat="45.65825" lon="5.83288">
        <ele>978.8</ele>
        <time>2015-09-08T08:32:01Z</time>
      </trkpt>
      <trkpt lat="45.65816" lon="5.8328">
        <ele>980.2</ele>
        <time>2015-09-08T08:32:06Z</time>
      </trkpt>
      <trkpt lat="45.65809" lon="5.83269">
        <ele>981.4</ele>
        <time>2015-09-08T08:32:11Z</time>
      </trkpt>
      <trkpt lat="45.658" lon="5.83262">
        <ele>982.5</ele>
        <time>2015-09-08T08:32:16Z</time>
      </trkpt>
      <trkpt lat="45.6579" lon="5.83253">
        <ele>983.7</ele>
        <time>2015-09-08T08:32:21Z</time>
      </trkpt>
      <trkpt lat="45.65781" lon="5.83245">
        <ele>984.8</ele>
        <time>2015-09-08T08:32:26Z</time>
      </trkpt>
      <trkpt lat="45.65773" lon="5.83237">
        <ele>986</ele>
        <time>2015-09-08T08:32:31Z</time>
      </trkpt>
      <trkpt lat="45.65765" lon="5.83231">
        <ele>987.1</ele>
        <time>2015-09-08T08:32:36Z</time>
      </trkpt>
      <trkpt lat="45.65756" lon="5.83221">
        <ele>988.2</ele>
        <time>2015-09-08T08:32:41Z</time>
      </trkpt>
      <trkpt lat="45.65745" lon="5.83215">
        <ele>989.4</ele>
        <time>2015-09-08T08:32:46Z</time>
      </trkpt>
      <trkpt lat="45.65736" lon="5.83212">
        <ele>990.3</ele>
        <time>2015-09-08T08:32:50Z</time>
      </trkpt>
      <trkpt lat="45.65726" lon="5.83211">
        <ele>991.2</ele>
        <time>2015-09-08T08:32:54Z</time>
      </trkpt>
      <trkpt lat="45.65715" lon="5.83209">
        <ele>992.3</ele>
        <time>2015-09-08T08:32:59Z</time>
      </trkpt>
      <trkpt lat="45.65705" lon="5.83201">
        <ele>993.6</ele>
        <time>2015-09-08T08:33:04Z</time>
      </trkpt>
      <trkpt lat="45.657" lon="5.8319">
        <ele>994.4</ele>
        <time>2015-09-08T08:33:08Z</time>
      </trkpt>
      <trkpt lat="45.65693" lon="5.83178">
        <ele>995.5</ele>
        <time>2015-09-08T08:33:13Z</time>
      </trkpt>
      <trkpt lat="45.65685" lon="5.83169">
        <ele>996.7</ele>
        <time>2015-09-08T08:33:18Z</time>
      </trkpt>
      <trkpt lat="45.65676" lon="5.83165">
        <ele>997.5</ele>
        <time>2015-09-08T08:33:22Z</time>
      </trkpt>
      <trkpt lat="45.65667" lon="5.83162">
        <ele>998.4</ele>
        <time>2015-09-08T08:33:26Z</time>
      </trkpt>
      <trkpt lat="45.65659" lon="5.83156">
        <ele>999.9</ele>
        <time>2015-09-08T08:33:32Z</time>
      </trkpt>
      <trkpt lat="45.65651" lon="5.83148">
        <ele>1001.1</ele>
        <time>2015-09-08T08:33:37Z</time>
      </trkpt>
      <trkpt lat="45.65643" lon="5.8314">
        <ele>1002.2</ele>
        <time>2015-09-08T08:33:42Z</time>
      </trkpt>
      <trkpt lat="45.65636" lon="5.83133">
        <ele>1003.1</ele>
        <time>2015-09-08T08:33:46Z</time>
      </trkpt>
      <trkpt lat="45.65628" lon="5.83123">
        <ele>1004.5</ele>
        <time>2015-09-08T08:33:52Z</time>
      </trkpt>
      <trkpt lat="45.65619" lon="5.8312">
        <ele>1005.7</ele>
        <time>2015-09-08T08:33:57Z</time>
      </trkpt>
      <trkpt lat="45.65608" lon="5.83118">
        <ele>1006.8</ele>
        <time>2015-09-08T08:34:02Z</time>
      </trkpt>
      <trkpt lat="45.65598" lon="5.83115">
        <ele>1007.6</ele>
        <time>2015-09-08T08:34:06Z</time>
      </trkpt>
      <trkpt lat="45.65588" lon="5.83108">
        <ele>1008.5</ele>
        <time>2015-09-08T08:34:10Z</time>
      </trkpt>
      <trkpt lat="45.6558" lon="5.83098">
        <ele>1009.7</ele>
        <time>2015-09-08T08:34:15Z</time>
      </trkpt>
      <trkpt lat="45.65574" lon="5.83088">
        <ele>1010.8</ele>
        <time>2015-09-08T08:34:20Z</time>
      </trkpt>
      <trkpt lat="45.65566" lon="5.83078">
        <ele>1012.1</ele>
        <time>2015-09-08T08:34:26Z</time>
      </trkpt>
      <trkpt lat="45.65556" lon="5.83071">
        <ele>1013.1</ele>
        <time>2015-09-08T08:34:30Z</time>
      </trkpt>
      <trkpt lat="45.65548" lon="5.83063">
        <ele>1014.1</ele>
        <time>2015-09-08T08:34:34Z</time>
      </trkpt>
      <trkpt lat="45.65541" lon="5.83055">
        <ele>1015.3</ele>
        <time>2015-09-08T08:34:39Z</time>
      </trkpt>
      <trkpt lat="45.65533" lon="5.83047">
        <ele>1016.8</ele>
        <time>2015-09-08T08:34:44Z</time>
      </trkpt>
      <trkpt lat="45.65523" lon="5.83043">
        <ele>1017.8</ele>
        <time>2015-09-08T08:34:48Z</time>
      </trkpt>
      <trkpt lat="45.65514" lon="5.83043">
        <ele>1018.8</ele>
        <time>2015-09-08T08:34:52Z</time>
      </trkpt>
      <trkpt lat="45.65504" lon="5.83043">
        <ele>1019.7</ele>
        <time>2015-09-08T08:34:56Z</time>
      </trkpt>
      <trkpt lat="45.65495" lon="5.83039">
        <ele>1020.9</ele>
        <time>2015-09-08T08:35:00Z</time>
      </trkpt>
      <trkpt lat="45.65486" lon="5.83034">
        <ele>1021.8</ele>
        <time>2015-09-08T08:35:04Z</time>
      </trkpt>
      <trkpt lat="45.65476" lon="5.83026">
        <ele>1022.8</ele>
        <time>2015-09-08T08:35:09Z</time>
      </trkpt>
      <trkpt lat="45.65467" lon="5.83022">
        <ele>1023.7</ele>
        <time>2015-09-08T08:35:13Z</time>
      </trkpt>
      <trkpt lat="45.65458" lon="5.83015">
        <ele>1024.8</ele>
        <time>2015-09-08T08:35:18Z</time>
      </trkpt>
      <trkpt lat="45.65449" lon="5.8301">
        <ele>1025.7</ele>
        <time>2015-09-08T08:35:22Z</time>
      </trkpt>
      <trkpt lat="45.6544" lon="5.83003">
        <ele>1026.9</ele>
        <time>2015-09-08T08:35:27Z</time>
      </trkpt>
      <trkpt lat="45.65433" lon="5.82993">
        <ele>1028.3</ele>
        <time>2015-09-08T08:35:33Z</time>
      </trkpt>
      <trkpt lat="45.65424" lon="5.82986">
        <ele>1029.5</ele>
        <time>2015-09-08T08:35:38Z</time>
      </trkpt>
      <trkpt lat="45.65415" lon="5.82983">
        <ele>1030.4</ele>
        <time>2015-09-08T08:35:42Z</time>
      </trkpt>
      <trkpt lat="45.65405" lon="5.82983">
        <ele>1031.6</ele>
        <time>2015-09-08T08:35:47Z</time>
      </trkpt>
      <trkpt lat="45.65396" lon="5.8298">
        <ele>1032.6</ele>
        <time>2015-09-08T08:35:52Z</time>
      </trkpt>
      <trkpt lat="45.65386" lon="5.82976">
        <ele>1033.8</ele>
        <time>2015-09-08T08:35:57Z</time>
      </trkpt>
      <trkpt lat="45.65379" lon="5.82967">
        <ele>1035</ele>
        <time>2015-09-08T08:36:02Z</time>
      </trkpt>
      <trkpt lat="45.65373" lon="5.82955">
        <ele>1036.1</ele>
        <time>2015-09-08T08:36:07Z</time>
      </trkpt>
      <trkpt lat="45.65366" lon="5.82942">
        <ele>1037.5</ele>
        <time>2015-09-08T08:36:13Z</time>
      </trkpt>
      <trkpt lat="45.65355" lon="5.82936">
        <ele>1038.4</ele>
        <time>2015-09-08T08:36:17Z</time>
      </trkpt>
      <trkpt lat="45.65345" lon="5.82932">
        <ele>1039.4</ele>
        <time>2015-09-08T08:36:21Z</time>
      </trkpt>
      <trkpt lat="45.65336" lon="5.82933">
        <ele>1040.2</ele>
        <time>2015-09-08T08:36:25Z</time>
      </trkpt>
      <trkpt lat="45.65326" lon="5.82931">
        <ele>1041.4</ele>
        <time>2015-09-08T08:36:30Z</time>
      </trkpt>
      <trkpt lat="45.65315" lon="5.82927">
        <ele>1042.6</ele>
        <time>2015-09-08T08:36:35Z</time>
      </trkpt>
      <trkpt lat="45.65306" lon="5.8292">
        <ele>1043.8</ele>
        <time>2015-09-08T08:36:40Z</time>
      </trkpt>
      <trkpt lat="45.65296" lon="5.82916">
        <ele>1045</ele>
        <time>2015-09-08T08:36:45Z</time>
      </trkpt>
      <trkpt lat="45.65287" lon="5.82918">
        <ele>1046.1</ele>
        <time>2015-09-08T08:36:49Z</time>
      </trkpt>
      <trkpt lat="45.65277" lon="5.82915">
        <ele>1047.1</ele>
        <time>2015-09-08T08:36:53Z</time>
      </trkpt>
      <trkpt lat="45.65269" lon="5.82906">
        <ele>1048.4</ele>
        <time>2015-09-08T08:36:58Z</time>
      </trkpt>
      <trkpt lat="45.65261" lon="5.82897">
        <ele>1049.6</ele>
        <time>2015-09-08T08:37:03Z</time>
      </trkpt>
      <trkpt lat="45.65253" lon="5.82892">
        <ele>1050.5</ele>
        <time>2015-09-08T08:37:07Z</time>
      </trkpt>
      <trkpt lat="45.65243" lon="5.82886">
        <ele>1051.7</ele>
        <time>2015-09-08T08:37:12Z</time>
      </trkpt>
      <trkpt lat="45.65233" lon="5.82884">
        <ele>1052.9</ele>
        <time>2015-09-08T08:37:17Z</time>
      </trkpt>
      <trkpt lat="45.65223" lon="5.82882">
        <ele>1054.1</ele>
        <time>2015-09-08T08:37:22Z</time>
      </trkpt>
      <trkpt lat="45.65214" lon="5.82876">
        <ele>1055.2</ele>
        <time>2015-09-08T08:37:26Z</time>
      </trkpt>
      <trkpt lat="45.65205" lon="5.82868">
        <ele>1056.3</ele>
        <time>2015-09-08T08:37:30Z</time>
      </trkpt>
      <trkpt lat="45.65196" lon="5.82859">
        <ele>1057.4</ele>
        <time>2015-09-08T08:37:35Z</time>
      </trkpt>
      <trkpt lat="45.65188" lon="5.82854">
        <ele>1058.3</ele>
        <time>2015-09-08T08:37:39Z</time>
      </trkpt>
      <trkpt lat="45.65178" lon="5.82853">
        <ele>1059.2</ele>
        <time>2015-09-08T08:37:43Z</time>
      </trkpt>
      <trkpt lat="45.65169" lon="5.82852">
        <ele>1059.9</ele>
        <time>2015-09-08T08:37:47Z</time>
      </trkpt>
      <trkpt lat="45.65159" lon="5.82848">
        <ele>1060.8</ele>
        <time>2015-09-08T08:37:51Z</time>
      </trkpt>
      <trkpt lat="45.6515" lon="5.82843">
        <ele>1061.7</ele>
        <time>2015-09-08T08:37:55Z</time>
      </trkpt>
      <trkpt lat="45.65141" lon="5.82838">
        <ele>1062.4</ele>
        <time>2015-09-08T08:37:59Z</time>
      </trkpt>
      <trkpt lat="45.65132" lon="5.82832">
        <ele>1063.4</ele>
        <time>2015-09-08T08:38:04Z</time>
      </trkpt>
      <trkpt lat="45.65122" lon="5.82826">
        <ele>1064.5</ele>
        <time>2015-09-08T08:38:09Z</time>
      </trkpt>
      <trkpt lat="45.65113" lon="5.8282">
        <ele>1065.6</ele>
        <time>2015-09-08T08:38:14Z</time>
      </trkpt>
      <trkpt lat="45.65104" lon="5.82813">
        <ele>1066.7</ele>
        <time>2015-09-08T08:38:19Z</time>
      </trkpt>
      <trkpt lat="45.65098" lon="5.828">
        <ele>1067.8</ele>
        <time>2015-09-08T08:38:24Z</time>
      </trkpt>
      <trkpt lat="45.65089" lon="5.82793">
        <ele>1068.9</ele>
        <time>2015-09-08T08:38:28Z</time>
      </trkpt>
      <trkpt lat="45.6508" lon="5.82789">
        <ele>1070.2</ele>
        <time>2015-09-08T08:38:33Z</time>
      </trkpt>
      <trkpt lat="45.65069" lon="5.82789">
        <ele>1071.5</ele>
        <time>2015-09-08T08:38:38Z</time>
      </trkpt>
      <trkpt lat="45.6506" lon="5.82788">
        <ele>1072.5</ele>
        <time>2015-09-08T08:38:42Z</time>
      </trkpt>
      <trkpt lat="45.65051" lon="5.82784">
        <ele>1073.4</ele>
        <time>2015-09-08T08:38:46Z</time>
      </trkpt>
      <trkpt lat="45.65042" lon="5.82781">
        <ele>1074.6</ele>
        <time>2015-09-08T08:38:51Z</time>
      </trkpt>
      <trkpt lat="45.65032" lon="5.82775">
        <ele>1075.8</ele>
        <time>2015-09-08T08:38:56Z</time>
      </trkpt>
      <trkpt lat="45.65024" lon="5.82769">
        <ele>1076.8</ele>
        <time>2015-09-08T08:39:01Z</time>
      </trkpt>
      <trkpt lat="45.65015" lon="5.82761">
        <ele>1077.8</ele>
        <time>2015-09-08T08:39:05Z</time>
      </trkpt>
      <trkpt lat="45.65005" lon="5.82754">
        <ele>1078.9</ele>
        <time>2015-09-08T08:39:10Z</time>
      </trkpt>
      <trkpt lat="45.64996" lon="5.82748">
        <ele>1080</ele>
        <time>2015-09-08T08:39:15Z</time>
      </trkpt>
      <trkpt lat="45.64987" lon="5.8274">
        <ele>1081.2</ele>
        <time>2015-09-08T08:39:20Z</time>
      </trkpt>
      <trkpt lat="45.64978" lon="5.82738">
        <ele>1082.1</ele>
        <time>2015-09-08T08:39:24Z</time>
      </trkpt>
      <trkpt lat="45.64968" lon="5.82733">
        <ele>1083.2</ele>
        <time>2015-09-08T08:39:29Z</time>
      </trkpt>
      <trkpt lat="45.64959" lon="5.82729">
        <ele>1084.3</ele>
        <time>2015-09-08T08:39:34Z</time>
      </trkpt>
      <trkpt lat="45.64949" lon="5.82724">
        <ele>1085.5</ele>
        <time>2015-09-08T08:39:39Z</time>
      </trkpt>
      <trkpt lat="45.6494" lon="5.82721">
        <ele>1086.3</ele>
        <time>2015-09-08T08:39:43Z</time>
      </trkpt>
      <trkpt lat="45.6493" lon="5.82717">
        <ele>1087.5</ele>
        <time>2015-09-08T08:39:48Z</time>
      </trkpt>
      <trkpt lat="45.64921" lon="5.82713">
        <ele>1088.5</ele>
        <time>2015-09-08T08:39:52Z</time>
      </trkpt>
      <trkpt lat="45.64912" lon="5.82707">
        <ele>1089.4</ele>
        <time>2015-09-08T08:39:56Z</time>
      </trkpt>
      <trkpt lat="45.64903" lon="5.82702">
        <ele>1090.6</ele>
        <time>2015-09-08T08:40:01Z</time>
      </trkpt>
      <trkpt lat="45.64894" lon="5.82695">
        <ele>1091.7</ele>
        <time>2015-09-08T08:40:06Z</time>
      </trkpt>
      <trkpt lat="45.64884" lon="5.8269">
        <ele>1092.9</ele>
        <time>2015-09-08T08:40:11Z</time>
      </trkpt>
      <trkpt lat="45.64876" lon="5.82682">
        <ele>1094.1</ele>
        <time>2015-09-08T08:40:16Z</time>
      </trkpt>
      <trkpt lat="45.64867" lon="5.82673">
        <ele>1095.4</ele>
        <time>2015-09-08T08:40:21Z</time>
      </trkpt>
      <trkpt lat="45.64859" lon="5.82666">
        <ele>1096.2</ele>
        <time>2015-09-08T08:40:25Z</time>
      </trkpt>
      <trkpt lat="45.6485" lon="5.82662">
        <ele>1097.1</ele>
        <time>2015-09-08T08:40:29Z</time>
      </trkpt>
      <trkpt lat="45.64841" lon="5.82658">
        <ele>1098</ele>
        <time>2015-09-08T08:40:33Z</time>
      </trkpt>
      <trkpt lat="45.6483" lon="5.82657">
        <ele>1099.1</ele>
        <time>2015-09-08T08:40:38Z</time>
      </trkpt>
      <trkpt lat="45.64819" lon="5.82656">
        <ele>1100.2</ele>
        <time>2015-09-08T08:40:43Z</time>
      </trkpt>
      <trkpt lat="45.64809" lon="5.82651">
        <ele>1101.4</ele>
        <time>2015-09-08T08:40:48Z</time>
      </trkpt>
      <trkpt lat="45.64798" lon="5.82646">
        <ele>1102.5</ele>
        <time>2015-09-08T08:40:53Z</time>
      </trkpt>
      <trkpt lat="45.64789" lon="5.82642">
        <ele>1103.3</ele>
        <time>2015-09-08T08:40:57Z</time>
      </trkpt>
      <trkpt lat="45.64779" lon="5.82637">
        <ele>1104.5</ele>
        <time>2015-09-08T08:41:02Z</time>
      </trkpt>
      <trkpt lat="45.6477" lon="5.82633">
        <ele>1105.4</ele>
        <time>2015-09-08T08:41:06Z</time>
      </trkpt>
      <trkpt lat="45.64761" lon="5.8263">
        <ele>1106.3</ele>
        <time>2015-09-08T08:41:10Z</time>
      </trkpt>
      <trkpt lat="45.64752" lon="5.82627">
        <ele>1107.3</ele>
        <time>2015-09-08T08:41:14Z</time>
      </trkpt>
      <trkpt lat="45.64743" lon="5.82626">
        <ele>1108.2</ele>
        <time>2015-09-08T08:41:18Z</time>
      </trkpt>
      <trkpt lat="45.64732" lon="5.82626">
        <ele>1109.3</ele>
        <time>2015-09-08T08:41:23Z</time>
      </trkpt>
      <trkpt lat="45.64722" lon="5.82625">
        <ele>1110.6</ele>
        <time>2015-09-08T08:41:28Z</time>
      </trkpt>
      <trkpt lat="45.64711" lon="5.82625">
        <ele>1111.7</ele>
        <time>2015-09-08T08:41:33Z</time>
      </trkpt>
      <trkpt lat="45.64702" lon="5.82625">
        <ele>1113.2</ele>
        <time>2015-09-08T08:41:38Z</time>
      </trkpt>
      <trkpt lat="45.64692" lon="5.82627">
        <ele>1114.4</ele>
        <time>2015-09-08T08:41:43Z</time>
      </trkpt>
      <trkpt lat="45.64682" lon="5.82625">
        <ele>1115.6</ele>
        <time>2015-09-08T08:41:48Z</time>
      </trkpt>
      <trkpt lat="45.64671" lon="5.82626">
        <ele>1116.8</ele>
        <time>2015-09-08T08:41:53Z</time>
      </trkpt>
      <trkpt lat="45.64661" lon="5.82627">
        <ele>1118</ele>
        <time>2015-09-08T08:41:58Z</time>
      </trkpt>
      <trkpt lat="45.64652" lon="5.82626">
        <ele>1119</ele>
        <time>2015-09-08T08:42:02Z</time>
      </trkpt>
      <trkpt lat="45.64642" lon="5.82622">
        <ele>1120.2</ele>
        <time>2015-09-08T08:42:07Z</time>
      </trkpt>
      <trkpt lat="45.64631" lon="5.8262">
        <ele>1121.5</ele>
        <time>2015-09-08T08:42:12Z</time>
      </trkpt>
      <trkpt lat="45.64622" lon="5.82615">
        <ele>1122.7</ele>
        <time>2015-09-08T08:42:17Z</time>
      </trkpt>
      <trkpt lat="45.64613" lon="5.8261">
        <ele>1123.8</ele>
        <time>2015-09-08T08:42:22Z</time>
      </trkpt>
      <trkpt lat="45.64603" lon="5.82606">
        <ele>1125</ele>
        <time>2015-09-08T08:42:27Z</time>
      </trkpt>
      <trkpt lat="45.64594" lon="5.82602">
        <ele>1126</ele>
        <time>2015-09-08T08:42:32Z</time>
      </trkpt>
      <trkpt lat="45.64585" lon="5.82594">
        <ele>1126.9</ele>
        <time>2015-09-08T08:42:37Z</time>
      </trkpt>
      <trkpt lat="45.64575" lon="5.82587">
        <ele>1127.9</ele>
        <time>2015-09-08T08:42:42Z</time>
      </trkpt>
      <trkpt lat="45.64565" lon="5.82583">
        <ele>1129</ele>
        <time>2015-09-08T08:42:47Z</time>
      </trkpt>
      <trkpt lat="45.64554" lon="5.82581">
        <ele>1130.2</ele>
        <time>2015-09-08T08:42:52Z</time>
      </trkpt>
      <trkpt lat="45.64544" lon="5.82579">
        <ele>1131.3</ele>
        <time>2015-09-08T08:42:57Z</time>
      </trkpt>
      <trkpt lat="45.64533" lon="5.82577">
        <ele>1132.6</ele>
        <time>2015-09-08T08:43:02Z</time>
      </trkpt>
      <trkpt lat="45.64523" lon="5.82574">
        <ele>1134</ele>
        <time>2015-09-08T08:43:07Z</time>
      </trkpt>
      <trkpt lat="45.64513" lon="5.82575">
        <ele>1135</ele>
        <time>2015-09-08T08:43:12Z</time>
      </trkpt>
      <trkpt lat="45.64504" lon="5.82581">
        <ele>1136.2</ele>
        <time>2015-09-08T08:43:17Z</time>
      </trkpt>
      <trkpt lat="45.64494" lon="5.82584">
        <ele>1137.3</ele>
        <time>2015-09-08T08:43:22Z</time>
      </trkpt>
      <trkpt lat="45.64484" lon="5.82583">
        <ele>1138</ele>
        <time>2015-09-08T08:43:26Z</time>
      </trkpt>
      <trkpt lat="45.64474" lon="5.8258">
        <ele>1139.2</ele>
        <time>2015-09-08T08:43:31Z</time>
      </trkpt>
      <trkpt lat="45.64465" lon="5.82577">
        <ele>1140.1</ele>
        <time>2015-09-08T08:43:35Z</time>
      </trkpt>
      <trkpt lat="45.64455" lon="5.82573">
        <ele>1141.4</ele>
        <time>2015-09-08T08:43:40Z</time>
      </trkpt>
      <trkpt lat="45.64445" lon="5.8257">
        <ele>1142.6</ele>
        <time>2015-09-08T08:43:45Z</time>
      </trkpt>
      <trkpt lat="45.64434" lon="5.82568">
        <ele>1144</ele>
        <time>2015-09-08T08:43:51Z</time>
      </trkpt>
      <trkpt lat="45.64424" lon="5.82571">
        <ele>1145.2</ele>
        <time>2015-09-08T08:43:56Z</time>
      </trkpt>
      <trkpt lat="45.64415" lon="5.82574">
        <ele>1146.5</ele>
        <time>2015-09-08T08:44:01Z</time>
      </trkpt>
      <trkpt lat="45.64405" lon="5.82575">
        <ele>1147.4</ele>
        <time>2015-09-08T08:44:05Z</time>
      </trkpt>
      <trkpt lat="45.64396" lon="5.82576">
        <ele>1148.4</ele>
        <time>2015-09-08T08:44:09Z</time>
      </trkpt>
      <trkpt lat="45.64384" lon="5.82576">
        <ele>1149.7</ele>
        <time>2015-09-08T08:44:14Z</time>
      </trkpt>
      <trkpt lat="45.64374" lon="5.82575">
        <ele>1151</ele>
        <time>2015-09-08T08:44:19Z</time>
      </trkpt>
      <trkpt lat="45.64364" lon="5.82575">
        <ele>1151.9</ele>
        <time>2015-09-08T08:44:23Z</time>
      </trkpt>
      <trkpt lat="45.64354" lon="5.82574">
        <ele>1153.1</ele>
        <time>2015-09-08T08:44:28Z</time>
      </trkpt>
      <trkpt lat="45.64343" lon="5.82574">
        <ele>1154.3</ele>
        <time>2015-09-08T08:44:33Z</time>
      </trkpt>
      <trkpt lat="45.64334" lon="5.82572">
        <ele>1155.2</ele>
        <time>2015-09-08T08:44:37Z</time>
      </trkpt>
      <trkpt lat="45.64323" lon="5.8257">
        <ele>1156.2</ele>
        <time>2015-09-08T08:44:42Z</time>
      </trkpt>
      <trkpt lat="45.64312" lon="5.82568">
        <ele>1157.2</ele>
        <time>2015-09-08T08:44:47Z</time>
      </trkpt>
      <trkpt lat="45.64303" lon="5.82567">
        <ele>1158</ele>
        <time>2015-09-08T08:44:51Z</time>
      </trkpt>
      <trkpt lat="45.64295" lon="5.82559">
        <ele>1158.9</ele>
        <time>2015-09-08T08:44:56Z</time>
      </trkpt>
      <trkpt lat="45.64304" lon="5.82555">
        <ele>1159.7</ele>
        <time>2015-09-08T08:45:01Z</time>
      </trkpt>
      <trkpt lat="45.64314" lon="5.82558">
        <ele>1160.7</ele>
        <time>2015-09-08T08:45:05Z</time>
      </trkpt>
      <trkpt lat="45.64324" lon="5.8256">
        <ele>1161.7</ele>
        <time>2015-09-08T08:45:10Z</time>
      </trkpt>
      <trkpt lat="45.64333" lon="5.82562">
        <ele>1162.4</ele>
        <time>2015-09-08T08:45:14Z</time>
      </trkpt>
      <trkpt lat="45.64343" lon="5.82561">
        <ele>1163.1</ele>
        <time>2015-09-08T08:45:18Z</time>
      </trkpt>
      <trkpt lat="45.64352" lon="5.82558">
        <ele>1163.8</ele>
        <time>2015-09-08T08:45:22Z</time>
      </trkpt>
      <trkpt lat="45.64361" lon="5.82552">
        <ele>1164.9</ele>
        <time>2015-09-08T08:45:27Z</time>
      </trkpt>
      <trkpt lat="45.64371" lon="5.82546">
        <ele>1166.1</ele>
        <time>2015-09-08T08:45:32Z</time>
      </trkpt>
      <trkpt lat="45.64382" lon="5.82537">
        <ele>1167</ele>
        <time>2015-09-08T08:45:36Z</time>
      </trkpt>
      <trkpt lat="45.6439" lon="5.82531">
        <ele>1167.7</ele>
        <time>2015-09-08T08:45:39Z</time>
      </trkpt>
      <trkpt lat="45.64398" lon="5.82523">
        <ele>1168.6</ele>
        <time>2015-09-08T08:45:43Z</time>
      </trkpt>
      <trkpt lat="45.64406" lon="5.82516">
        <ele>1169.7</ele>
        <time>2015-09-08T08:45:47Z</time>
      </trkpt>
      <trkpt lat="45.64415" lon="5.82512">
        <ele>1170.8</ele>
        <time>2015-09-08T08:45:51Z</time>
      </trkpt>
      <trkpt lat="45.64425" lon="5.82511">
        <ele>1171.9</ele>
        <time>2015-09-08T08:45:55Z</time>
      </trkpt>
      <trkpt lat="45.64435" lon="5.82509">
        <ele>1172.8</ele>
        <time>2015-09-08T08:45:59Z</time>
      </trkpt>
      <trkpt lat="45.64446" lon="5.82509">
        <ele>1173.9</ele>
        <time>2015-09-08T08:46:03Z</time>
      </trkpt>
      <trkpt lat="45.64457" lon="5.82507">
        <ele>1174.9</ele>
        <time>2015-09-08T08:46:07Z</time>
      </trkpt>
      <trkpt lat="45.64468" lon="5.82505">
        <ele>1175.8</ele>
        <time>2015-09-08T08:46:11Z</time>
      </trkpt>
      <trkpt lat="45.64477" lon="5.82502">
        <ele>1176.7</ele>
        <time>2015-09-08T08:46:15Z</time>
      </trkpt>
      <trkpt lat="45.64486" lon="5.82497">
        <ele>1177.6</ele>
        <time>2015-09-08T08:46:19Z</time>
      </trkpt>
      <trkpt lat="45.64496" lon="5.82492">
        <ele>1178.6</ele>
        <time>2015-09-08T08:46:24Z</time>
      </trkpt>
      <trkpt lat="45.64504" lon="5.82486">
        <ele>1179.7</ele>
        <time>2015-09-08T08:46:29Z</time>
      </trkpt>
      <trkpt lat="45.64512" lon="5.82479">
        <ele>1180.9</ele>
        <time>2015-09-08T08:46:34Z</time>
      </trkpt>
      <trkpt lat="45.64522" lon="5.82471">
        <ele>1181.9</ele>
        <time>2015-09-08T08:46:39Z</time>
      </trkpt>
      <trkpt lat="45.64533" lon="5.82469">
        <ele>1182.8</ele>
        <time>2015-09-08T08:46:43Z</time>
      </trkpt>
      <trkpt lat="45.64543" lon="5.82466">
        <ele>1183.8</ele>
        <time>2015-09-08T08:46:47Z</time>
      </trkpt>
      <trkpt lat="45.64553" lon="5.8246">
        <ele>1185</ele>
        <time>2015-09-08T08:46:52Z</time>
      </trkpt>
      <trkpt lat="45.64562" lon="5.82457">
        <ele>1186.3</ele>
        <time>2015-09-08T08:46:57Z</time>
      </trkpt>
      <trkpt lat="45.64572" lon="5.82452">
        <ele>1187.8</ele>
        <time>2015-09-08T08:47:03Z</time>
      </trkpt>
      <trkpt lat="45.64581" lon="5.82448">
        <ele>1189</ele>
        <time>2015-09-08T08:47:08Z</time>
      </trkpt>
      <trkpt lat="45.64592" lon="5.82447">
        <ele>1189.9</ele>
        <time>2015-09-08T08:47:12Z</time>
      </trkpt>
      <trkpt lat="45.64602" lon="5.82446">
        <ele>1191.3</ele>
        <time>2015-09-08T08:47:18Z</time>
      </trkpt>
      <trkpt lat="45.64611" lon="5.82446">
        <ele>1192.7</ele>
        <time>2015-09-08T08:47:24Z</time>
      </trkpt>
      <trkpt lat="45.64622" lon="5.82447">
        <ele>1194</ele>
        <time>2015-09-08T08:47:30Z</time>
      </trkpt>
      <trkpt lat="45.64631" lon="5.82448">
        <ele>1195</ele>
        <time>2015-09-08T08:47:35Z</time>
      </trkpt>
      <trkpt lat="45.6464" lon="5.82448">
        <ele>1196</ele>
        <time>2015-09-08T08:47:39Z</time>
      </trkpt>
      <trkpt lat="45.6465" lon="5.82446">
        <ele>1196.8</ele>
        <time>2015-09-08T08:47:43Z</time>
      </trkpt>
      <trkpt lat="45.6466" lon="5.8244">
        <ele>1198</ele>
        <time>2015-09-08T08:47:48Z</time>
      </trkpt>
      <trkpt lat="45.6467" lon="5.82436">
        <ele>1199.3</ele>
        <time>2015-09-08T08:47:53Z</time>
      </trkpt>
      <trkpt lat="45.64679" lon="5.82432">
        <ele>1200.5</ele>
        <time>2015-09-08T08:47:58Z</time>
      </trkpt>
      <trkpt lat="45.64689" lon="5.82429">
        <ele>1201.7</ele>
        <time>2015-09-08T08:48:03Z</time>
      </trkpt>
      <trkpt lat="45.64699" lon="5.82425">
        <ele>1202.9</ele>
        <time>2015-09-08T08:48:08Z</time>
      </trkpt>
      <trkpt lat="45.64708" lon="5.8242">
        <ele>1203.8</ele>
        <time>2015-09-08T08:48:12Z</time>
      </trkpt>
      <trkpt lat="45.64717" lon="5.82413">
        <ele>1204.9</ele>
        <time>2015-09-08T08:48:17Z</time>
      </trkpt>
      <trkpt lat="45.64725" lon="5.82403">
        <ele>1206.3</ele>
        <time>2015-09-08T08:48:23Z</time>
      </trkpt>
      <trkpt lat="45.64734" lon="5.82393">
        <ele>1207.2</ele>
        <time>2015-09-08T08:48:28Z</time>
      </trkpt>
      <trkpt lat="45.64744" lon="5.82388">
        <ele>1208.1</ele>
        <time>2015-09-08T08:48:32Z</time>
      </trkpt>
      <trkpt lat="45.64754" lon="5.82388">
        <ele>1209</ele>
        <time>2015-09-08T08:48:36Z</time>
      </trkpt>
      <trkpt lat="45.64765" lon="5.82391">
        <ele>1210.2</ele>
        <time>2015-09-08T08:48:41Z</time>
      </trkpt>
      <trkpt lat="45.64776" lon="5.82397">
        <ele>1210.8</ele>
        <time>2015-09-08T08:48:44Z</time>
      </trkpt>
      <trkpt lat="45.64787" lon="5.82402">
        <ele>1211.7</ele>
        <time>2015-09-08T08:48:48Z</time>
      </trkpt>
      <trkpt lat="45.64797" lon="5.82407">
        <ele>1212.5</ele>
        <time>2015-09-08T08:48:52Z</time>
      </trkpt>
      <trkpt lat="45.64806" lon="5.82409">
        <ele>1213.5</ele>
        <time>2015-09-08T08:48:57Z</time>
      </trkpt>
      <trkpt lat="45.64817" lon="5.82404">
        <ele>1214.7</ele>
        <time>2015-09-08T08:49:02Z</time>
      </trkpt>
      <trkpt lat="45.64827" lon="5.82402">
        <ele>1215.9</ele>
        <time>2015-09-08T08:49:07Z</time>
      </trkpt>
      <trkpt lat="45.64838" lon="5.82401">
        <ele>1217.3</ele>
        <time>2015-09-08T08:49:12Z</time>
      </trkpt>
      <trkpt lat="45.64848" lon="5.82402">
        <ele>1218.7</ele>
        <time>2015-09-08T08:49:17Z</time>
      </trkpt>
      <trkpt lat="45.64858" lon="5.82397">
        <ele>1219.9</ele>
        <time>2015-09-08T08:49:22Z</time>
      </trkpt>
      <trkpt lat="45.64867" lon="5.82392">
        <ele>1221.4</ele>
        <time>2015-09-08T08:49:28Z</time>
      </trkpt>
      <trkpt lat="45.64877" lon="5.82386">
        <ele>1222.6</ele>
        <time>2015-09-08T08:49:33Z</time>
      </trkpt>
      <trkpt lat="45.64886" lon="5.82383">
        <ele>1223.8</ele>
        <time>2015-09-08T08:49:38Z</time>
      </trkpt>
      <trkpt lat="45.64896" lon="5.82385">
        <ele>1225</ele>
        <time>2015-09-08T08:49:43Z</time>
      </trkpt>
      <trkpt lat="45.64905" lon="5.82393">
        <ele>1225.8</ele>
        <time>2015-09-08T08:49:47Z</time>
      </trkpt>
      <trkpt lat="45.64914" lon="5.824">
        <ele>1226.7</ele>
        <time>2015-09-08T08:49:51Z</time>
      </trkpt>
      <trkpt lat="45.64924" lon="5.82402">
        <ele>1227.8</ele>
        <time>2015-09-08T08:49:56Z</time>
      </trkpt>
      <trkpt lat="45.64935" lon="5.82403">
        <ele>1229</ele>
        <time>2015-09-08T08:50:01Z</time>
      </trkpt>
      <trkpt lat="45.64945" lon="5.82403">
        <ele>1230.2</ele>
        <time>2015-09-08T08:50:06Z</time>
      </trkpt>
      <trkpt lat="45.64954" lon="5.82405">
        <ele>1231.3</ele>
        <time>2015-09-08T08:50:11Z</time>
      </trkpt>
      <trkpt lat="45.64963" lon="5.82408">
        <ele>1232.5</ele>
        <time>2015-09-08T08:50:16Z</time>
      </trkpt>
      <trkpt lat="45.64974" lon="5.82412">
        <ele>1236</ele>
        <time>2015-09-08T08:50:21Z</time>
      </trkpt>
      <trkpt lat="45.64983" lon="5.82415">
        <ele>1237</ele>
        <time>2015-09-08T08:50:26Z</time>
      </trkpt>
      <trkpt lat="45.64994" lon="5.82413">
        <ele>1237.7</ele>
        <time>2015-09-08T08:50:31Z</time>
      </trkpt>
      <trkpt lat="45.65005" lon="5.82416">
        <ele>1238.3</ele>
        <time>2015-09-08T08:50:36Z</time>
      </trkpt>
      <trkpt lat="45.65014" lon="5.82421">
        <ele>1239</ele>
        <time>2015-09-08T08:50:40Z</time>
      </trkpt>
      <trkpt lat="45.65023" lon="5.82423">
        <ele>1239.5</ele>
        <time>2015-09-08T08:50:43Z</time>
      </trkpt>
      <trkpt lat="45.65033" lon="5.82425">
        <ele>1240.2</ele>
        <time>2015-09-08T08:50:47Z</time>
      </trkpt>
      <trkpt lat="45.65044" lon="5.82424">
        <ele>1241.3</ele>
        <time>2015-09-08T08:50:53Z</time>
      </trkpt>
      <trkpt lat="45.65053" lon="5.82424">
        <ele>1242.1</ele>
        <time>2015-09-08T08:50:57Z</time>
      </trkpt>
      <trkpt lat="45.65063" lon="5.82424">
        <ele>1242.9</ele>
        <time>2015-09-08T08:51:01Z</time>
      </trkpt>
      <trkpt lat="45.65072" lon="5.82426">
        <ele>1243.8</ele>
        <time>2015-09-08T08:51:05Z</time>
      </trkpt>
      <trkpt lat="45.65081" lon="5.82429">
        <ele>1245</ele>
        <time>2015-09-08T08:51:10Z</time>
      </trkpt>
      <trkpt lat="45.65092" lon="5.82432">
        <ele>1246</ele>
        <time>2015-09-08T08:51:15Z</time>
      </trkpt>
      <trkpt lat="45.65102" lon="5.82433">
        <ele>1247</ele>
        <time>2015-09-08T08:51:20Z</time>
      </trkpt>
      <trkpt lat="45.65112" lon="5.82431">
        <ele>1248</ele>
        <time>2015-09-08T08:51:25Z</time>
      </trkpt>
      <trkpt lat="45.65121" lon="5.82426">
        <ele>1249</ele>
        <time>2015-09-08T08:51:30Z</time>
      </trkpt>
      <trkpt lat="45.65131" lon="5.82422">
        <ele>1250</ele>
        <time>2015-09-08T08:51:35Z</time>
      </trkpt>
      <trkpt lat="45.65141" lon="5.82419">
        <ele>1251</ele>
        <time>2015-09-08T08:51:40Z</time>
      </trkpt>
      <trkpt lat="45.65151" lon="5.8242">
        <ele>1252.2</ele>
        <time>2015-09-08T08:51:45Z</time>
      </trkpt>
      <trkpt lat="45.65162" lon="5.82422">
        <ele>1253.4</ele>
        <time>2015-09-08T08:51:50Z</time>
      </trkpt>
      <trkpt lat="45.65173" lon="5.82424">
        <ele>1254.7</ele>
        <time>2015-09-08T08:51:55Z</time>
      </trkpt>
      <trkpt lat="45.65183" lon="5.82423">
        <ele>1255.9</ele>
        <time>2015-09-08T08:52:00Z</time>
      </trkpt>
      <trkpt lat="45.65193" lon="5.82422">
        <ele>1257</ele>
        <time>2015-09-08T08:52:05Z</time>
      </trkpt>
      <trkpt lat="45.65202" lon="5.82422">
        <ele>1258.3</ele>
        <time>2015-09-08T08:52:10Z</time>
      </trkpt>
      <trkpt lat="45.65212" lon="5.82421">
        <ele>1259.5</ele>
        <time>2015-09-08T08:52:15Z</time>
      </trkpt>
      <trkpt lat="45.65222" lon="5.82422">
        <ele>1260.8</ele>
        <time>2015-09-08T08:52:20Z</time>
      </trkpt>
      <trkpt lat="45.65231" lon="5.82426">
        <ele>1261.7</ele>
        <time>2015-09-08T08:52:24Z</time>
      </trkpt>
      <trkpt lat="45.6524" lon="5.82431">
        <ele>1262.6</ele>
        <time>2015-09-08T08:52:28Z</time>
      </trkpt>
      <trkpt lat="45.6525" lon="5.82433">
        <ele>1263.5</ele>
        <time>2015-09-08T08:52:32Z</time>
      </trkpt>
      <trkpt lat="45.6526" lon="5.82434">
        <ele>1264.8</ele>
        <time>2015-09-08T08:52:37Z</time>
      </trkpt>
      <trkpt lat="45.65271" lon="5.82434">
        <ele>1266</ele>
        <time>2015-09-08T08:52:42Z</time>
      </trkpt>
      <trkpt lat="45.6528" lon="5.82434">
        <ele>1267.1</ele>
        <time>2015-09-08T08:52:47Z</time>
      </trkpt>
      <trkpt lat="45.6529" lon="5.82435">
        <ele>1267.9</ele>
        <time>2015-09-08T08:52:51Z</time>
      </trkpt>
      <trkpt lat="45.65301" lon="5.82434">
        <ele>1268.9</ele>
        <time>2015-09-08T08:52:56Z</time>
      </trkpt>
      <trkpt lat="45.6531" lon="5.82431">
        <ele>1270</ele>
        <time>2015-09-08T08:53:01Z</time>
      </trkpt>
      <trkpt lat="45.65321" lon="5.82429">
        <ele>1271</ele>
        <time>2015-09-08T08:53:06Z</time>
      </trkpt>
      <trkpt lat="45.6533" lon="5.82428">
        <ele>1272.1</ele>
        <time>2015-09-08T08:53:11Z</time>
      </trkpt>
      <trkpt lat="45.65341" lon="5.82426">
        <ele>1273.2</ele>
        <time>2015-09-08T08:53:16Z</time>
      </trkpt>
      <trkpt lat="45.65351" lon="5.82424">
        <ele>1274.1</ele>
        <time>2015-09-08T08:53:20Z</time>
      </trkpt>
      <trkpt lat="45.6536" lon="5.82421">
        <ele>1275</ele>
        <time>2015-09-08T08:53:24Z</time>
      </trkpt>
      <trkpt lat="45.65371" lon="5.8242">
        <ele>1276.2</ele>
        <time>2015-09-08T08:53:29Z</time>
      </trkpt>
      <trkpt lat="45.6538" lon="5.82419">
        <ele>1277.3</ele>
        <time>2015-09-08T08:53:34Z</time>
      </trkpt>
      <trkpt lat="45.65391" lon="5.82419">
        <ele>1278.4</ele>
        <time>2015-09-08T08:53:39Z</time>
      </trkpt>
      <trkpt lat="45.65401" lon="5.82419">
        <ele>1279.5</ele>
        <time>2015-09-08T08:53:44Z</time>
      </trkpt>
      <trkpt lat="45.65412" lon="5.82419">
        <ele>1280.6</ele>
        <time>2015-09-08T08:53:49Z</time>
      </trkpt>
      <trkpt lat="45.65423" lon="5.8242">
        <ele>1281.8</ele>
        <time>2015-09-08T08:53:54Z</time>
      </trkpt>
      <trkpt lat="45.65433" lon="5.8242">
        <ele>1282.9</ele>
        <time>2015-09-08T08:53:59Z</time>
      </trkpt>
      <trkpt lat="45.65444" lon="5.82421">
        <ele>1284</ele>
        <time>2015-09-08T08:54:04Z</time>
      </trkpt>
      <trkpt lat="45.65453" lon="5.82423">
        <ele>1285.2</ele>
        <time>2015-09-08T08:54:09Z</time>
      </trkpt>
      <trkpt lat="45.65462" lon="5.82424">
        <ele>1286.2</ele>
        <time>2015-09-08T08:54:13Z</time>
      </trkpt>
      <trkpt lat="45.65473" lon="5.82426">
        <ele>1287.3</ele>
        <time>2015-09-08T08:54:18Z</time>
      </trkpt>
      <trkpt lat="45.65484" lon="5.82428">
        <ele>1288.3</ele>
        <time>2015-09-08T08:54:23Z</time>
      </trkpt>
      <trkpt lat="45.65493" lon="5.82431">
        <ele>1289.3</ele>
        <time>2015-09-08T08:54:27Z</time>
      </trkpt>
      <trkpt lat="45.65503" lon="5.82436">
        <ele>1290.5</ele>
        <time>2015-09-08T08:54:32Z</time>
      </trkpt>
      <trkpt lat="45.65512" lon="5.82439">
        <ele>1291.5</ele>
        <time>2015-09-08T08:54:37Z</time>
      </trkpt>
      <trkpt lat="45.65523" lon="5.8244">
        <ele>1292.5</ele>
        <time>2015-09-08T08:54:42Z</time>
      </trkpt>
      <trkpt lat="45.65534" lon="5.8244">
        <ele>1293.6</ele>
        <time>2015-09-08T08:54:47Z</time>
      </trkpt>
      <trkpt lat="45.65544" lon="5.82443">
        <ele>1294.8</ele>
        <time>2015-09-08T08:54:52Z</time>
      </trkpt>
      <trkpt lat="45.65552" lon="5.82448">
        <ele>1295.8</ele>
        <time>2015-09-08T08:54:56Z</time>
      </trkpt>
      <trkpt lat="45.65562" lon="5.82453">
        <ele>1296.9</ele>
        <time>2015-09-08T08:55:01Z</time>
      </trkpt>
      <trkpt lat="45.65573" lon="5.82455">
        <ele>1297.9</ele>
        <time>2015-09-08T08:55:06Z</time>
      </trkpt>
      <trkpt lat="45.65583" lon="5.82454">
        <ele>1299.1</ele>
        <time>2015-09-08T08:55:11Z</time>
      </trkpt>
      <trkpt lat="45.65593" lon="5.82454">
        <ele>1300.2</ele>
        <time>2015-09-08T08:55:16Z</time>
      </trkpt>
      <trkpt lat="45.65603" lon="5.82456">
        <ele>1301.2</ele>
        <time>2015-09-08T08:55:21Z</time>
      </trkpt>
      <trkpt lat="45.65615" lon="5.82458">
        <ele>1302.2</ele>
        <time>2015-09-08T08:55:26Z</time>
      </trkpt>
      <trkpt lat="45.65625" lon="5.82461">
        <ele>1303.2</ele>
        <time>2015-09-08T08:55:31Z</time>
      </trkpt>
      <trkpt lat="45.65634" lon="5.82465">
        <ele>1304</ele>
        <time>2015-09-08T08:55:35Z</time>
      </trkpt>
      <trkpt lat="45.65643" lon="5.82467">
        <ele>1304.7</ele>
        <time>2015-09-08T08:55:39Z</time>
      </trkpt>
      <trkpt lat="45.65654" lon="5.82469">
        <ele>1305.9</ele>
        <time>2015-09-08T08:55:44Z</time>
      </trkpt>
      <trkpt lat="45.65664" lon="5.8247">
        <ele>1307</ele>
        <time>2015-09-08T08:55:49Z</time>
      </trkpt>
      <trkpt lat="45.65674" lon="5.82469">
        <ele>1308.3</ele>
        <time>2015-09-08T08:55:54Z</time>
      </trkpt>
      <trkpt lat="45.65683" lon="5.82466">
        <ele>1309.2</ele>
        <time>2015-09-08T08:55:58Z</time>
      </trkpt>
      <trkpt lat="45.65694" lon="5.82463">
        <ele>1310.2</ele>
        <time>2015-09-08T08:56:03Z</time>
      </trkpt>
      <trkpt lat="45.65704" lon="5.8246">
        <ele>1311.4</ele>
        <time>2015-09-08T08:56:08Z</time>
      </trkpt>
      <trkpt lat="45.65714" lon="5.82458">
        <ele>1312.5</ele>
        <time>2015-09-08T08:56:13Z</time>
      </trkpt>
      <trkpt lat="45.65725" lon="5.82459">
        <ele>1313.6</ele>
        <time>2015-09-08T08:56:18Z</time>
      </trkpt>
      <trkpt lat="45.65735" lon="5.82464">
        <ele>1314.6</ele>
        <time>2015-09-08T08:56:23Z</time>
      </trkpt>
      <trkpt lat="45.65746" lon="5.82468">
        <ele>1315.8</ele>
        <time>2015-09-08T08:56:28Z</time>
      </trkpt>
      <trkpt lat="45.65755" lon="5.82472">
        <ele>1316.8</ele>
        <time>2015-09-08T08:56:32Z</time>
      </trkpt>
      <trkpt lat="45.65765" lon="5.82472">
        <ele>1318.2</ele>
        <time>2015-09-08T08:56:37Z</time>
      </trkpt>
      <trkpt lat="45.65776" lon="5.82472">
        <ele>1319.3</ele>
        <time>2015-09-08T08:56:42Z</time>
      </trkpt>
      <trkpt lat="45.65787" lon="5.82472">
        <ele>1320.4</ele>
        <time>2015-09-08T08:56:47Z</time>
      </trkpt>
      <trkpt lat="45.65797" lon="5.82473">
        <ele>1321.6</ele>
        <time>2015-09-08T08:56:52Z</time>
      </trkpt>
      <trkpt lat="45.65807" lon="5.82472">
        <ele>1323</ele>
        <time>2015-09-08T08:56:57Z</time>
      </trkpt>
      <trkpt lat="45.65816" lon="5.82472">
        <ele>1324</ele>
        <time>2015-09-08T08:57:01Z</time>
      </trkpt>
      <trkpt lat="45.65826" lon="5.8247">
        <ele>1324.8</ele>
        <time>2015-09-08T08:57:05Z</time>
      </trkpt>
      <trkpt lat="45.65836" lon="5.82465">
        <ele>1325.9</ele>
        <time>2015-09-08T08:57:10Z</time>
      </trkpt>
      <trkpt lat="45.65845" lon="5.82459">
        <ele>1327</ele>
        <time>2015-09-08T08:57:15Z</time>
      </trkpt>
      <trkpt lat="45.65855" lon="5.82454">
        <ele>1328.1</ele>
        <time>2015-09-08T08:57:20Z</time>
      </trkpt>
      <trkpt lat="45.65865" lon="5.82453">
        <ele>1329.4</ele>
        <time>2015-09-08T08:57:26Z</time>
      </trkpt>
      <trkpt lat="45.65876" lon="5.82453">
        <ele>1330.3</ele>
        <time>2015-09-08T08:57:30Z</time>
      </trkpt>
      <trkpt lat="45.65887" lon="5.82455">
        <ele>1331.5</ele>
        <time>2015-09-08T08:57:35Z</time>
      </trkpt>
      <trkpt lat="45.65896" lon="5.8246">
        <ele>1332.8</ele>
        <time>2015-09-08T08:57:40Z</time>
      </trkpt>
      <trkpt lat="45.65906" lon="5.82461">
        <ele>1333.8</ele>
        <time>2015-09-08T08:57:44Z</time>
      </trkpt>
      <trkpt lat="45.65915" lon="5.8246">
        <ele>1334.8</ele>
        <time>2015-09-08T08:57:48Z</time>
      </trkpt>
      <trkpt lat="45.65925" lon="5.82458">
        <ele>1335.6</ele>
        <time>2015-09-08T08:57:52Z</time>
      </trkpt>
      <trkpt lat="45.65935" lon="5.82459">
        <ele>1336.9</ele>
        <time>2015-09-08T08:57:57Z</time>
      </trkpt>
      <trkpt lat="45.65946" lon="5.82456">
        <ele>1337.9</ele>
        <time>2015-09-08T08:58:01Z</time>
      </trkpt>
      <trkpt lat="45.65956" lon="5.82453">
        <ele>1338.9</ele>
        <time>2015-09-08T08:58:05Z</time>
      </trkpt>
      <trkpt lat="45.65966" lon="5.82454">
        <ele>1340.3</ele>
        <time>2015-09-08T08:58:10Z</time>
      </trkpt>
      <trkpt lat="45.65976" lon="5.82453">
        <ele>1341.7</ele>
        <time>2015-09-08T08:58:15Z</time>
      </trkpt>
      <trkpt lat="45.65986" lon="5.82449">
        <ele>1342.7</ele>
        <time>2015-09-08T08:58:19Z</time>
      </trkpt>
      <trkpt lat="45.65995" lon="5.82441">
        <ele>1343.7</ele>
        <time>2015-09-08T08:58:23Z</time>
      </trkpt>
      <trkpt lat="45.66006" lon="5.82437">
        <ele>1344.7</ele>
        <time>2015-09-08T08:58:28Z</time>
      </trkpt>
      <trkpt lat="45.66015" lon="5.82438">
        <ele>1345.8</ele>
        <time>2015-09-08T08:58:33Z</time>
      </trkpt>
      <trkpt lat="45.66024" lon="5.8244">
        <ele>1346.7</ele>
        <time>2015-09-08T08:58:37Z</time>
      </trkpt>
      <trkpt lat="45.66035" lon="5.82437">
        <ele>1347.8</ele>
        <time>2015-09-08T08:58:42Z</time>
      </trkpt>
      <trkpt lat="45.66043" lon="5.82432">
        <ele>1348.8</ele>
        <time>2015-09-08T08:58:47Z</time>
      </trkpt>
      <trkpt lat="45.66053" lon="5.8243">
        <ele>1349.9</ele>
        <time>2015-09-08T08:58:52Z</time>
      </trkpt>
      <trkpt lat="45.66064" lon="5.82429">
        <ele>1351.1</ele>
        <time>2015-09-08T08:58:57Z</time>
      </trkpt>
      <trkpt lat="45.66074" lon="5.82432">
        <ele>1352.3</ele>
        <time>2015-09-08T08:59:02Z</time>
      </trkpt>
      <trkpt lat="45.66085" lon="5.82436">
        <ele>1353.5</ele>
        <time>2015-09-08T08:59:07Z</time>
      </trkpt>
      <trkpt lat="45.66096" lon="5.82438">
        <ele>1354.6</ele>
        <time>2015-09-08T08:59:12Z</time>
      </trkpt>
      <trkpt lat="45.66105" lon="5.82439">
        <ele>1355.7</ele>
        <time>2015-09-08T08:59:17Z</time>
      </trkpt>
      <trkpt lat="45.66115" lon="5.82435">
        <ele>1356.9</ele>
        <time>2015-09-08T08:59:22Z</time>
      </trkpt>
      <trkpt lat="45.66125" lon="5.8243">
        <ele>1358.2</ele>
        <time>2015-09-08T08:59:27Z</time>
      </trkpt>
      <trkpt lat="45.66134" lon="5.82427">
        <ele>1359.4</ele>
        <time>2015-09-08T08:59:32Z</time>
      </trkpt>
      <trkpt lat="45.66144" lon="5.82425">
        <ele>1360.2</ele>
        <time>2015-09-08T08:59:36Z</time>
      </trkpt>
      <trkpt lat="45.66154" lon="5.82427">
        <ele>1361.1</ele>
        <time>2015-09-08T08:59:40Z</time>
      </trkpt>
      <trkpt lat="45.66164" lon="5.82427">
        <ele>1362</ele>
        <time>2015-09-08T08:59:44Z</time>
      </trkpt>
      <trkpt lat="45.66174" lon="5.82426">
        <ele>1363.1</ele>
        <time>2015-09-08T08:59:49Z</time>
      </trkpt>
      <trkpt lat="45.66185" lon="5.82425">
        <ele>1364.2</ele>
        <time>2015-09-08T08:59:54Z</time>
      </trkpt>
      <trkpt lat="45.66194" lon="5.82421">
        <ele>1365.1</ele>
        <time>2015-09-08T08:59:58Z</time>
      </trkpt>
      <trkpt lat="45.66204" lon="5.82421">
        <ele>1366.2</ele>
        <time>2015-09-08T09:00:03Z</time>
      </trkpt>
      <trkpt lat="45.66214" lon="5.82424">
        <ele>1367.3</ele>
        <time>2015-09-08T09:00:08Z</time>
      </trkpt>
      <trkpt lat="45.66224" lon="5.82427">
        <ele>1368.6</ele>
        <time>2015-09-08T09:00:13Z</time>
      </trkpt>
      <trkpt lat="45.66234" lon="5.82432">
        <ele>1369.7</ele>
        <time>2015-09-08T09:00:18Z</time>
      </trkpt>
      <trkpt lat="45.66243" lon="5.82435">
        <ele>1370.9</ele>
        <time>2015-09-08T09:00:23Z</time>
      </trkpt>
      <trkpt lat="45.66253" lon="5.82438">
        <ele>1372.1</ele>
        <time>2015-09-08T09:00:28Z</time>
      </trkpt>
      <trkpt lat="45.66262" lon="5.82442">
        <ele>1373.2</ele>
        <time>2015-09-08T09:00:33Z</time>
      </trkpt>
      <trkpt lat="45.66271" lon="5.82447">
        <ele>1374.3</ele>
        <time>2015-09-08T09:00:38Z</time>
      </trkpt>
      <trkpt lat="45.6628" lon="5.82451">
        <ele>1375.1</ele>
        <time>2015-09-08T09:00:42Z</time>
      </trkpt>
      <trkpt lat="45.66289" lon="5.82457">
        <ele>1376</ele>
        <time>2015-09-08T09:00:46Z</time>
      </trkpt>
      <trkpt lat="45.66298" lon="5.82466">
        <ele>1377.3</ele>
        <time>2015-09-08T09:00:51Z</time>
      </trkpt>
      <trkpt lat="45.66307" lon="5.82476">
        <ele>1378.5</ele>
        <time>2015-09-08T09:00:56Z</time>
      </trkpt>
      <trkpt lat="45.66314" lon="5.82484">
        <ele>1379.5</ele>
        <time>2015-09-08T09:01:00Z</time>
      </trkpt>
      <trkpt lat="45.66321" lon="5.82495">
        <ele>1380.7</ele>
        <time>2015-09-08T09:01:05Z</time>
      </trkpt>
      <trkpt lat="45.66328" lon="5.82504">
        <ele>1381.7</ele>
        <time>2015-09-08T09:01:09Z</time>
      </trkpt>
      <trkpt lat="45.66337" lon="5.82512">
        <ele>1382.7</ele>
        <time>2015-09-08T09:01:14Z</time>
      </trkpt>
      <trkpt lat="45.66345" lon="5.82519">
        <ele>1383.7</ele>
        <time>2015-09-08T09:01:19Z</time>
      </trkpt>
      <trkpt lat="45.66354" lon="5.82525">
        <ele>1384.9</ele>
        <time>2015-09-08T09:01:24Z</time>
      </trkpt>
      <trkpt lat="45.66364" lon="5.82527">
        <ele>1385.5</ele>
        <time>2015-09-08T09:01:27Z</time>
      </trkpt>
      <trkpt lat="45.66374" lon="5.82531">
        <ele>1386.4</ele>
        <time>2015-09-08T09:01:31Z</time>
      </trkpt>
      <trkpt lat="45.66382" lon="5.82539">
        <ele>1387.6</ele>
        <time>2015-09-08T09:01:36Z</time>
      </trkpt>
      <trkpt lat="45.66392" lon="5.82543">
        <ele>1388.8</ele>
        <time>2015-09-08T09:01:41Z</time>
      </trkpt>
      <trkpt lat="45.66401" lon="5.82546">
        <ele>1389.8</ele>
        <time>2015-09-08T09:01:45Z</time>
      </trkpt>
      <trkpt lat="45.66411" lon="5.8255">
        <ele>1390.9</ele>
        <time>2015-09-08T09:01:50Z</time>
      </trkpt>
      <trkpt lat="45.66422" lon="5.82549">
        <ele>1392.4</ele>
        <time>2015-09-08T09:01:56Z</time>
      </trkpt>
      <trkpt lat="45.66431" lon="5.82546">
        <ele>1393.6</ele>
        <time>2015-09-08T09:02:01Z</time>
      </trkpt>
      <trkpt lat="45.66441" lon="5.82546">
        <ele>1394.5</ele>
        <time>2015-09-08T09:02:06Z</time>
      </trkpt>
      <trkpt lat="45.6645" lon="5.82546">
        <ele>1395.1</ele>
        <time>2015-09-08T09:02:10Z</time>
      </trkpt>
      <trkpt lat="45.66459" lon="5.82546">
        <ele>1395.9</ele>
        <time>2015-09-08T09:02:14Z</time>
      </trkpt>
      <trkpt lat="45.66469" lon="5.8255">
        <ele>1396.8</ele>
        <time>2015-09-08T09:02:19Z</time>
      </trkpt>
      <trkpt lat="45.66479" lon="5.82552">
        <ele>1397.9</ele>
        <time>2015-09-08T09:02:24Z</time>
      </trkpt>
      <trkpt lat="45.66488" lon="5.82558">
        <ele>1399</ele>
        <time>2015-09-08T09:02:29Z</time>
      </trkpt>
      <trkpt lat="45.66498" lon="5.82562">
        <ele>1400.1</ele>
        <time>2015-09-08T09:02:34Z</time>
      </trkpt>
      <trkpt lat="45.66508" lon="5.82566">
        <ele>1401.2</ele>
        <time>2015-09-08T09:02:39Z</time>
      </trkpt>
      <trkpt lat="45.66518" lon="5.8257">
        <ele>1402.2</ele>
        <time>2015-09-08T09:02:43Z</time>
      </trkpt>
      <trkpt lat="45.66528" lon="5.82574">
        <ele>1403.3</ele>
        <time>2015-09-08T09:02:48Z</time>
      </trkpt>
      <trkpt lat="45.66537" lon="5.8258">
        <ele>1404.4</ele>
        <time>2015-09-08T09:02:53Z</time>
      </trkpt>
      <trkpt lat="45.66547" lon="5.82585">
        <ele>1405.6</ele>
        <time>2015-09-08T09:02:58Z</time>
      </trkpt>
      <trkpt lat="45.66555" lon="5.8259">
        <ele>1406.5</ele>
        <time>2015-09-08T09:03:02Z</time>
      </trkpt>
      <trkpt lat="45.66565" lon="5.82597">
        <ele>1407.6</ele>
        <time>2015-09-08T09:03:07Z</time>
      </trkpt>
      <trkpt lat="45.66575" lon="5.82605">
        <ele>1408.6</ele>
        <time>2015-09-08T09:03:12Z</time>
      </trkpt>
      <trkpt lat="45.66586" lon="5.8261">
        <ele>1409.5</ele>
        <time>2015-09-08T09:03:16Z</time>
      </trkpt>
      <trkpt lat="45.66597" lon="5.82614">
        <ele>1410.4</ele>
        <time>2015-09-08T09:03:20Z</time>
      </trkpt>
      <trkpt lat="45.66607" lon="5.82612">
        <ele>1411.2</ele>
        <time>2015-09-08T09:03:24Z</time>
      </trkpt>
      <trkpt lat="45.66612" lon="5.82598">
        <ele>1412</ele>
        <time>2015-09-08T09:03:28Z</time>
      </trkpt>
      <trkpt lat="45.66605" lon="5.82587">
        <ele>1412.7</ele>
        <time>2015-09-08T09:03:32Z</time>
      </trkpt>
      <trkpt lat="45.66594" lon="5.82583">
        <ele>1413.5</ele>
        <time>2015-09-08T09:03:36Z</time>
      </trkpt>
      <trkpt lat="45.66584" lon="5.8258">
        <ele>1414.2</ele>
        <time>2015-09-08T09:03:40Z</time>
      </trkpt>
      <trkpt lat="45.66574" lon="5.82576">
        <ele>1414.9</ele>
        <time>2015-09-08T09:03:44Z</time>
      </trkpt>
      <trkpt lat="45.66565" lon="5.82569">
        <ele>1415.5</ele>
        <time>2015-09-08T09:03:48Z</time>
      </trkpt>
      <trkpt lat="45.66557" lon="5.8256">
        <ele>1416.3</ele>
        <time>2015-09-08T09:03:52Z</time>
      </trkpt>
      <trkpt lat="45.66551" lon="5.82549">
        <ele>1417</ele>
        <time>2015-09-08T09:03:56Z</time>
      </trkpt>
      <trkpt lat="45.66546" lon="5.82536">
        <ele>1418</ele>
        <time>2015-09-08T09:04:01Z</time>
      </trkpt>
      <trkpt lat="45.6654" lon="5.82523">
        <ele>1419.1</ele>
        <time>2015-09-08T09:04:06Z</time>
      </trkpt>
      <trkpt lat="45.66533" lon="5.82511">
        <ele>1420.1</ele>
        <time>2015-09-08T09:04:11Z</time>
      </trkpt>
      <trkpt lat="45.66527" lon="5.825">
        <ele>1421</ele>
        <time>2015-09-08T09:04:15Z</time>
      </trkpt>
      <trkpt lat="45.66521" lon="5.8249">
        <ele>1422</ele>
        <time>2015-09-08T09:04:19Z</time>
      </trkpt>
      <trkpt lat="45.66513" lon="5.82481">
        <ele>1423.1</ele>
        <time>2015-09-08T09:04:24Z</time>
      </trkpt>
      <trkpt lat="45.66506" lon="5.82471">
        <ele>1423.9</ele>
        <time>2015-09-08T09:04:28Z</time>
      </trkpt>
      <trkpt lat="45.665" lon="5.82463">
        <ele>1424.8</ele>
        <time>2015-09-08T09:04:32Z</time>
      </trkpt>
      <trkpt lat="45.66494" lon="5.82452">
        <ele>1425.5</ele>
        <time>2015-09-08T09:04:36Z</time>
      </trkpt>
      <trkpt lat="45.66489" lon="5.82439">
        <ele>1426.7</ele>
        <time>2015-09-08T09:04:41Z</time>
      </trkpt>
      <trkpt lat="45.66485" lon="5.82424">
        <ele>1427.7</ele>
        <time>2015-09-08T09:04:45Z</time>
      </trkpt>
      <trkpt lat="45.66477" lon="5.82413">
        <ele>1428.6</ele>
        <time>2015-09-08T09:04:49Z</time>
      </trkpt>
      <trkpt lat="45.66469" lon="5.82405">
        <ele>1429.5</ele>
        <time>2015-09-08T09:04:53Z</time>
      </trkpt>
      <trkpt lat="45.66458" lon="5.82404">
        <ele>1430.4</ele>
        <time>2015-09-08T09:04:57Z</time>
      </trkpt>
      <trkpt lat="45.66448" lon="5.824">
        <ele>1431.4</ele>
        <time>2015-09-08T09:05:01Z</time>
      </trkpt>
      <trkpt lat="45.66439" lon="5.82395">
        <ele>1432.3</ele>
        <time>2015-09-08T09:05:05Z</time>
      </trkpt>
      <trkpt lat="45.6643" lon="5.82387">
        <ele>1433.6</ele>
        <time>2015-09-08T09:05:10Z</time>
      </trkpt>
      <trkpt lat="45.66422" lon="5.8238">
        <ele>1434.7</ele>
        <time>2015-09-08T09:05:14Z</time>
      </trkpt>
      <trkpt lat="45.66415" lon="5.82371">
        <ele>1436</ele>
        <time>2015-09-08T09:05:19Z</time>
      </trkpt>
      <trkpt lat="45.66409" lon="5.8236">
        <ele>1437.3</ele>
        <time>2015-09-08T09:05:24Z</time>
      </trkpt>
      <trkpt lat="45.66403" lon="5.82346">
        <ele>1438.5</ele>
        <time>2015-09-08T09:05:29Z</time>
      </trkpt>
      <trkpt lat="45.66398" lon="5.82334">
        <ele>1439.7</ele>
        <time>2015-09-08T09:05:34Z</time>
      </trkpt>
      <trkpt lat="45.66391" lon="5.82321">
        <ele>1440.9</ele>
        <time>2015-09-08T09:05:39Z</time>
      </trkpt>
      <trkpt lat="45.66381" lon="5.82313">
        <ele>1442</ele>
        <time>2015-09-08T09:05:44Z</time>
      </trkpt>
      <trkpt lat="45.66372" lon="5.82307">
        <ele>1442.9</ele>
        <time>2015-09-08T09:05:48Z</time>
      </trkpt>
      <trkpt lat="45.66362" lon="5.82301">
        <ele>1444.1</ele>
        <time>2015-09-08T09:05:53Z</time>
      </trkpt>
      <trkpt lat="45.66354" lon="5.82293">
        <ele>1445.2</ele>
        <time>2015-09-08T09:05:58Z</time>
      </trkpt>
      <trkpt lat="45.66346" lon="5.82286">
        <ele>1446.2</ele>
        <time>2015-09-08T09:06:03Z</time>
      </trkpt>
      <trkpt lat="45.66338" lon="5.82276">
        <ele>1447.4</ele>
        <time>2015-09-08T09:06:08Z</time>
      </trkpt>
      <trkpt lat="45.66328" lon="5.82268">
        <ele>1448.4</ele>
        <time>2015-09-08T09:06:13Z</time>
      </trkpt>
      <trkpt lat="45.6632" lon="5.82262">
        <ele>1449.3</ele>
        <time>2015-09-08T09:06:17Z</time>
      </trkpt>
      <trkpt lat="45.66312" lon="5.82256">
        <ele>1450.6</ele>
        <time>2015-09-08T09:06:21Z</time>
      </trkpt>
      <trkpt lat="45.66301" lon="5.82252">
        <ele>1451.9</ele>
        <time>2015-09-08T09:06:26Z</time>
      </trkpt>
      <trkpt lat="45.66291" lon="5.8225">
        <ele>1453.1</ele>
        <time>2015-09-08T09:06:31Z</time>
      </trkpt>
      <trkpt lat="45.66281" lon="5.82244">
        <ele>1454.1</ele>
        <time>2015-09-08T09:06:36Z</time>
      </trkpt>
      <trkpt lat="45.6627" lon="5.82241">
        <ele>1455.2</ele>
        <time>2015-09-08T09:06:41Z</time>
      </trkpt>
      <trkpt lat="45.66261" lon="5.82234">
        <ele>1456.4</ele>
        <time>2015-09-08T09:06:46Z</time>
      </trkpt>
      <trkpt lat="45.66252" lon="5.8223">
        <ele>1457.3</ele>
        <time>2015-09-08T09:06:50Z</time>
      </trkpt>
      <trkpt lat="45.66242" lon="5.82223">
        <ele>1458.4</ele>
        <time>2015-09-08T09:06:55Z</time>
      </trkpt>
      <trkpt lat="45.66233" lon="5.82217">
        <ele>1459.3</ele>
        <time>2015-09-08T09:06:59Z</time>
      </trkpt>
      <trkpt lat="45.66224" lon="5.82211">
        <ele>1460.1</ele>
        <time>2015-09-08T09:07:03Z</time>
      </trkpt>
      <trkpt lat="45.66214" lon="5.82204">
        <ele>1461</ele>
        <time>2015-09-08T09:07:07Z</time>
      </trkpt>
      <trkpt lat="45.66204" lon="5.822">
        <ele>1462</ele>
        <time>2015-09-08T09:07:11Z</time>
      </trkpt>
      <trkpt lat="45.66193" lon="5.82197">
        <ele>1463.1</ele>
        <time>2015-09-08T09:07:15Z</time>
      </trkpt>
      <trkpt lat="45.66182" lon="5.82194">
        <ele>1463.9</ele>
        <time>2015-09-08T09:07:19Z</time>
      </trkpt>
      <trkpt lat="45.66171" lon="5.8219">
        <ele>1464.8</ele>
        <time>2015-09-08T09:07:23Z</time>
      </trkpt>
      <trkpt lat="45.6616" lon="5.82187">
        <ele>1465.7</ele>
        <time>2015-09-08T09:07:27Z</time>
      </trkpt>
      <trkpt lat="45.66151" lon="5.82183">
        <ele>1466.3</ele>
        <time>2015-09-08T09:07:30Z</time>
      </trkpt>
      <trkpt lat="45.66143" lon="5.82178">
        <ele>1466.9</ele>
        <time>2015-09-08T09:07:33Z</time>
      </trkpt>
      <trkpt lat="45.66134" lon="5.82175">
        <ele>1467.6</ele>
        <time>2015-09-08T09:07:36Z</time>
      </trkpt>
      <trkpt lat="45.66125" lon="5.82171">
        <ele>1468.1</ele>
        <time>2015-09-08T09:07:39Z</time>
      </trkpt>
      <trkpt lat="45.66116" lon="5.82168">
        <ele>1468.7</ele>
        <time>2015-09-08T09:07:42Z</time>
      </trkpt>
      <trkpt lat="45.66105" lon="5.82166">
        <ele>1469.4</ele>
        <time>2015-09-08T09:07:46Z</time>
      </trkpt>
      <trkpt lat="45.66095" lon="5.82167">
        <ele>1470</ele>
        <time>2015-09-08T09:07:50Z</time>
      </trkpt>
      <trkpt lat="45.66103" lon="5.82163">
        <ele>1471.6</ele>
        <time>2015-09-08T09:18:45Z</time>
      </trkpt>
      <trkpt lat="45.66113" lon="5.82164">
        <ele>1471.6</ele>
        <time>2015-09-08T09:18:50Z</time>
      </trkpt>
      <trkpt lat="45.66122" lon="5.82169">
        <ele>1471.5</ele>
        <time>2015-09-08T09:18:54Z</time>
      </trkpt>
      <trkpt lat="45.66132" lon="5.82172">
        <ele>1471.5</ele>
        <time>2015-09-08T09:18:58Z</time>
      </trkpt>
      <trkpt lat="45.66144" lon="5.82176">
        <ele>1471.5</ele>
        <time>2015-09-08T09:19:02Z</time>
      </trkpt>
      <trkpt lat="45.66154" lon="5.82178">
        <ele>1471.4</ele>
        <time>2015-09-08T09:19:05Z</time>
      </trkpt>
      <trkpt lat="45.66166" lon="5.82181">
        <ele>1471.1</ele>
        <time>2015-09-08T09:19:08Z</time>
      </trkpt>
      <trkpt lat="45.66176" lon="5.82182">
        <ele>1470.8</ele>
        <time>2015-09-08T09:19:10Z</time>
      </trkpt>
      <trkpt lat="45.66186" lon="5.82184">
        <ele>1470.5</ele>
        <time>2015-09-08T09:19:12Z</time>
      </trkpt>
      <trkpt lat="45.66195" lon="5.82189">
        <ele>1470.2</ele>
        <time>2015-09-08T09:19:14Z</time>
      </trkpt>
      <trkpt lat="45.66206" lon="5.82193">
        <ele>1469.7</ele>
        <time>2015-09-08T09:19:16Z</time>
      </trkpt>
      <trkpt lat="45.66215" lon="5.82197">
        <ele>1469</ele>
        <time>2015-09-08T09:19:18Z</time>
      </trkpt>
      <trkpt lat="45.66224" lon="5.82202">
        <ele>1468.3</ele>
        <time>2015-09-08T09:19:20Z</time>
      </trkpt>
      <trkpt lat="45.66232" lon="5.82211">
        <ele>1467.6</ele>
        <time>2015-09-08T09:19:22Z</time>
      </trkpt>
      <trkpt lat="45.66241" lon="5.8222">
        <ele>1466.8</ele>
        <time>2015-09-08T09:19:24Z</time>
      </trkpt>
      <trkpt lat="45.66255" lon="5.82227">
        <ele>1466</ele>
        <time>2015-09-08T09:19:26Z</time>
      </trkpt>
      <trkpt lat="45.66266" lon="5.82231">
        <ele>1465.2</ele>
        <time>2015-09-08T09:19:28Z</time>
      </trkpt>
      <trkpt lat="45.66276" lon="5.82237">
        <ele>1464.4</ele>
        <time>2015-09-08T09:19:30Z</time>
      </trkpt>
      <trkpt lat="45.66289" lon="5.82242">
        <ele>1463.5</ele>
        <time>2015-09-08T09:19:32Z</time>
      </trkpt>
      <trkpt lat="45.66301" lon="5.82249">
        <ele>1462.6</ele>
        <time>2015-09-08T09:19:34Z</time>
      </trkpt>
      <trkpt lat="45.66311" lon="5.82257">
        <ele>1461.6</ele>
        <time>2015-09-08T09:19:36Z</time>
      </trkpt>
      <trkpt lat="45.66321" lon="5.82266">
        <ele>1460.6</ele>
        <time>2015-09-08T09:19:38Z</time>
      </trkpt>
      <trkpt lat="45.6633" lon="5.82277">
        <ele>1459.1</ele>
        <time>2015-09-08T09:19:41Z</time>
      </trkpt>
      <trkpt lat="45.66338" lon="5.82286">
        <ele>1457.8</ele>
        <time>2015-09-08T09:19:44Z</time>
      </trkpt>
      <trkpt lat="45.66348" lon="5.82296">
        <ele>1456.5</ele>
        <time>2015-09-08T09:19:47Z</time>
      </trkpt>
      <trkpt lat="45.66358" lon="5.82306">
        <ele>1455.2</ele>
        <time>2015-09-08T09:19:50Z</time>
      </trkpt>
      <trkpt lat="45.66366" lon="5.82312">
        <ele>1454.3</ele>
        <time>2015-09-08T09:19:52Z</time>
      </trkpt>
      <trkpt lat="45.66375" lon="5.8232">
        <ele>1453.5</ele>
        <time>2015-09-08T09:19:54Z</time>
      </trkpt>
      <trkpt lat="45.66383" lon="5.82327">
        <ele>1452.6</ele>
        <time>2015-09-08T09:19:56Z</time>
      </trkpt>
      <trkpt lat="45.66391" lon="5.82338">
        <ele>1451.3</ele>
        <time>2015-09-08T09:19:59Z</time>
      </trkpt>
      <trkpt lat="45.66396" lon="5.82352">
        <ele>1449.9</ele>
        <time>2015-09-08T09:20:02Z</time>
      </trkpt>
      <trkpt lat="45.66401" lon="5.82364">
        <ele>1448.6</ele>
        <time>2015-09-08T09:20:05Z</time>
      </trkpt>
      <trkpt lat="45.66407" lon="5.82374">
        <ele>1447.4</ele>
        <time>2015-09-08T09:20:08Z</time>
      </trkpt>
      <trkpt lat="45.66405" lon="5.82389">
        <ele>1443.4</ele>
        <time>2015-09-08T09:20:17Z</time>
      </trkpt>
      <trkpt lat="45.66407" lon="5.82403">
        <ele>1441</ele>
        <time>2015-09-08T09:20:22Z</time>
      </trkpt>
      <trkpt lat="45.66409" lon="5.82419">
        <ele>1436.8</ele>
        <time>2015-09-08T09:20:31Z</time>
      </trkpt>
      <trkpt lat="45.66416" lon="5.82432">
        <ele>1434.9</ele>
        <time>2015-09-08T09:20:34Z</time>
      </trkpt>
      <trkpt lat="45.66409" lon="5.82441">
        <ele>1432</ele>
        <time>2015-09-08T09:20:39Z</time>
      </trkpt>
      <trkpt lat="45.6641" lon="5.82455">
        <ele>1429</ele>
        <time>2015-09-08T09:20:44Z</time>
      </trkpt>
      <trkpt lat="45.66407" lon="5.82468">
        <ele>1424.7</ele>
        <time>2015-09-08T09:20:52Z</time>
      </trkpt>
      <trkpt lat="45.66397" lon="5.82473">
        <ele>1422.5</ele>
        <time>2015-09-08T09:20:56Z</time>
      </trkpt>
      <trkpt lat="45.66402" lon="5.82485">
        <ele>1420.2</ele>
        <time>2015-09-08T09:21:00Z</time>
      </trkpt>
      <trkpt lat="45.66398" lon="5.82496">
        <ele>1413.3</ele>
        <time>2015-09-08T09:21:13Z</time>
      </trkpt>
      <trkpt lat="45.664" lon="5.8251">
        <ele>1410.6</ele>
        <time>2015-09-08T09:21:19Z</time>
      </trkpt>
      <trkpt lat="45.6639" lon="5.82506">
        <ele>1407.3</ele>
        <time>2015-09-08T09:21:28Z</time>
      </trkpt>
      <trkpt lat="45.6638" lon="5.82509">
        <ele>1401.3</ele>
        <time>2015-09-08T09:21:42Z</time>
      </trkpt>
      <trkpt lat="45.66372" lon="5.82503">
        <ele>1399.9</ele>
        <time>2015-09-08T09:21:45Z</time>
      </trkpt>
      <trkpt lat="45.66369" lon="5.82516">
        <ele>1394.9</ele>
        <time>2015-09-08T09:22:02Z</time>
      </trkpt>
      <trkpt lat="45.6636" lon="5.8252">
        <ele>1393.5</ele>
        <time>2015-09-08T09:22:08Z</time>
      </trkpt>
      <trkpt lat="45.66349" lon="5.82511">
        <ele>1392.6</ele>
        <time>2015-09-08T09:22:11Z</time>
      </trkpt>
      <trkpt lat="45.66351" lon="5.82524">
        <ele>1386.5</ele>
        <time>2015-09-08T09:23:04Z</time>
      </trkpt>
      <trkpt lat="45.66358" lon="5.82533">
        <ele>1385.4</ele>
        <time>2015-09-08T09:23:09Z</time>
      </trkpt>
      <trkpt lat="45.66358" lon="5.82548">
        <ele>1381</ele>
        <time>2015-09-08T09:23:27Z</time>
      </trkpt>
      <trkpt lat="45.66365" lon="5.82556">
        <ele>1379.6</ele>
        <time>2015-09-08T09:23:31Z</time>
      </trkpt>
      <trkpt lat="45.66372" lon="5.82569">
        <ele>1378.5</ele>
        <time>2015-09-08T09:23:34Z</time>
      </trkpt>
      <trkpt lat="45.66379" lon="5.8258">
        <ele>1377.1</ele>
        <time>2015-09-08T09:23:37Z</time>
      </trkpt>
      <trkpt lat="45.6637" lon="5.82582">
        <ele>1372</ele>
        <time>2015-09-08T09:23:48Z</time>
      </trkpt>
      <trkpt lat="45.66365" lon="5.82594">
        <ele>1367.1</ele>
        <time>2015-09-08T09:24:00Z</time>
      </trkpt>
      <trkpt lat="45.66362" lon="5.82609">
        <ele>1361.1</ele>
        <time>2015-09-08T09:24:15Z</time>
      </trkpt>
      <trkpt lat="45.66356" lon="5.82619">
        <ele>1355.3</ele>
        <time>2015-09-08T09:24:30Z</time>
      </trkpt>
      <trkpt lat="45.66354" lon="5.82632">
        <ele>1353.2</ele>
        <time>2015-09-08T09:24:36Z</time>
      </trkpt>
      <trkpt lat="45.66345" lon="5.82633">
        <ele>1351.8</ele>
        <time>2015-09-08T09:24:39Z</time>
      </trkpt>
      <trkpt lat="45.66333" lon="5.82634">
        <ele>1350.6</ele>
        <time>2015-09-08T09:24:42Z</time>
      </trkpt>
      <trkpt lat="45.66322" lon="5.82627">
        <ele>1348.6</ele>
        <time>2015-09-08T09:24:47Z</time>
      </trkpt>
      <trkpt lat="45.66315" lon="5.82618">
        <ele>1347</ele>
        <time>2015-09-08T09:24:51Z</time>
      </trkpt>
      <trkpt lat="45.66307" lon="5.82627">
        <ele>1344.6</ele>
        <time>2015-09-08T09:24:56Z</time>
      </trkpt>
      <trkpt lat="45.66297" lon="5.82633">
        <ele>1341.8</ele>
        <time>2015-09-08T09:25:00Z</time>
      </trkpt>
      <trkpt lat="45.66295" lon="5.82646">
        <ele>1338.6</ele>
        <time>2015-09-08T09:25:05Z</time>
      </trkpt>
      <trkpt lat="45.66289" lon="5.82659">
        <ele>1335.5</ele>
        <time>2015-09-08T09:25:11Z</time>
      </trkpt>
      <trkpt lat="45.66288" lon="5.82673">
        <ele>1332.5</ele>
        <time>2015-09-08T09:25:17Z</time>
      </trkpt>
      <trkpt lat="45.66287" lon="5.82688">
        <ele>1329.2</ele>
        <time>2015-09-08T09:25:24Z</time>
      </trkpt>
      <trkpt lat="45.66289" lon="5.82701">
        <ele>1327.2</ele>
        <time>2015-09-08T09:25:28Z</time>
      </trkpt>
      <trkpt lat="45.66293" lon="5.82714">
        <ele>1324.3</ele>
        <time>2015-09-08T09:25:33Z</time>
      </trkpt>
      <trkpt lat="45.66285" lon="5.82724">
        <ele>1318</ele>
        <time>2015-09-08T09:25:47Z</time>
      </trkpt>
      <trkpt lat="45.66292" lon="5.82737">
        <ele>1316.1</ele>
        <time>2015-09-08T09:25:52Z</time>
      </trkpt>
      <trkpt lat="45.66299" lon="5.8275">
        <ele>1314.5</ele>
        <time>2015-09-08T09:25:56Z</time>
      </trkpt>
      <trkpt lat="45.66306" lon="5.82761">
        <ele>1313.2</ele>
        <time>2015-09-08T09:25:59Z</time>
      </trkpt>
      <trkpt lat="45.66313" lon="5.82773">
        <ele>1310.7</ele>
        <time>2015-09-08T09:26:03Z</time>
      </trkpt>
      <trkpt lat="45.66322" lon="5.82784">
        <ele>1308.6</ele>
        <time>2015-09-08T09:26:07Z</time>
      </trkpt>
      <trkpt lat="45.66329" lon="5.82793">
        <ele>1307.1</ele>
        <time>2015-09-08T09:26:10Z</time>
      </trkpt>
      <trkpt lat="45.66329" lon="5.82807">
        <ele>1300.7</ele>
        <time>2015-09-08T09:26:24Z</time>
      </trkpt>
      <trkpt lat="45.66319" lon="5.82809">
        <ele>1298.8</ele>
        <time>2015-09-08T09:26:29Z</time>
      </trkpt>
      <trkpt lat="45.66309" lon="5.82811">
        <ele>1297.8</ele>
        <time>2015-09-08T09:26:32Z</time>
      </trkpt>
      <trkpt lat="45.66299" lon="5.82813">
        <ele>1296.1</ele>
        <time>2015-09-08T09:26:37Z</time>
      </trkpt>
      <trkpt lat="45.6629" lon="5.82817">
        <ele>1293.8</ele>
        <time>2015-09-08T09:26:44Z</time>
      </trkpt>
      <trkpt lat="45.6628" lon="5.82823">
        <ele>1291.2</ele>
        <time>2015-09-08T09:26:50Z</time>
      </trkpt>
      <trkpt lat="45.66276" lon="5.82834">
        <ele>1288.8</ele>
        <time>2015-09-08T09:26:55Z</time>
      </trkpt>
      <trkpt lat="45.6627" lon="5.82845">
        <ele>1286</ele>
        <time>2015-09-08T09:27:00Z</time>
      </trkpt>
      <trkpt lat="45.66265" lon="5.82856">
        <ele>1282.5</ele>
        <time>2015-09-08T09:27:06Z</time>
      </trkpt>
      <trkpt lat="45.66256" lon="5.82848">
        <ele>1279.4</ele>
        <time>2015-09-08T09:27:11Z</time>
      </trkpt>
      <trkpt lat="45.66246" lon="5.82847">
        <ele>1276.7</ele>
        <time>2015-09-08T09:27:16Z</time>
      </trkpt>
      <trkpt lat="45.66249" lon="5.82861">
        <ele>1274</ele>
        <time>2015-09-08T09:27:21Z</time>
      </trkpt>
      <trkpt lat="45.66248" lon="5.82875">
        <ele>1267.9</ele>
        <time>2015-09-08T09:27:35Z</time>
      </trkpt>
      <trkpt lat="45.66244" lon="5.82887">
        <ele>1259.4</ele>
        <time>2015-09-08T09:27:57Z</time>
      </trkpt>
      <trkpt lat="45.66242" lon="5.82905">
        <ele>1255.6</ele>
        <time>2015-09-08T09:28:19Z</time>
      </trkpt>
      <trkpt lat="45.66233" lon="5.82907">
        <ele>1252.9</ele>
        <time>2015-09-08T09:28:33Z</time>
      </trkpt>
      <trkpt lat="45.66235" lon="5.8292">
        <ele>1250.8</ele>
        <time>2015-09-08T09:28:41Z</time>
      </trkpt>
      <trkpt lat="45.6624" lon="5.82932">
        <ele>1249.6</ele>
        <time>2015-09-08T09:28:45Z</time>
      </trkpt>
      <trkpt lat="45.6623" lon="5.82935">
        <ele>1246</ele>
        <time>2015-09-08T09:28:58Z</time>
      </trkpt>
      <trkpt lat="45.66223" lon="5.82944">
        <ele>1240.2</ele>
        <time>2015-09-08T09:29:13Z</time>
      </trkpt>
      <trkpt lat="45.66227" lon="5.82957">
        <ele>1238</ele>
        <time>2015-09-08T09:29:19Z</time>
      </trkpt>
      <trkpt lat="45.66217" lon="5.82958">
        <ele>1234.3</ele>
        <time>2015-09-08T09:29:28Z</time>
      </trkpt>
      <trkpt lat="45.66216" lon="5.82971">
        <ele>1228.6</ele>
        <time>2015-09-08T09:29:40Z</time>
      </trkpt>
      <trkpt lat="45.66206" lon="5.82977">
        <ele>1221.8</ele>
        <time>2015-09-08T09:29:54Z</time>
      </trkpt>
      <trkpt lat="45.66206" lon="5.8299">
        <ele>1217.3</ele>
        <time>2015-09-08T09:30:04Z</time>
      </trkpt>
      <trkpt lat="45.66212" lon="5.83004">
        <ele>1214.7</ele>
        <time>2015-09-08T09:30:09Z</time>
      </trkpt>
      <trkpt lat="45.66217" lon="5.83015">
        <ele>1211.4</ele>
        <time>2015-09-08T09:30:16Z</time>
      </trkpt>
      <trkpt lat="45.66208" lon="5.83016">
        <ele>1204.6</ele>
        <time>2015-09-08T09:30:48Z</time>
      </trkpt>
      <trkpt lat="45.66202" lon="5.83026">
        <ele>1197.5</ele>
        <time>2015-09-08T09:31:24Z</time>
      </trkpt>
      <trkpt lat="45.66193" lon="5.8302">
        <ele>1195.3</ele>
        <time>2015-09-08T09:31:39Z</time>
      </trkpt>
      <trkpt lat="45.66182" lon="5.83017">
        <ele>1193.9</ele>
        <time>2015-09-08T09:31:44Z</time>
      </trkpt>
      <trkpt lat="45.66183" lon="5.83032">
        <ele>1190.3</ele>
        <time>2015-09-08T09:31:53Z</time>
      </trkpt>
      <trkpt lat="45.66186" lon="5.83045">
        <ele>1188.7</ele>
        <time>2015-09-08T09:31:57Z</time>
      </trkpt>
      <trkpt lat="45.66175" lon="5.83046">
        <ele>1185.5</ele>
        <time>2015-09-08T09:32:04Z</time>
      </trkpt>
      <trkpt lat="45.66166" lon="5.83042">
        <ele>1183.8</ele>
        <time>2015-09-08T09:32:08Z</time>
      </trkpt>
      <trkpt lat="45.66163" lon="5.83055">
        <ele>1178.1</ele>
        <time>2015-09-08T09:32:22Z</time>
      </trkpt>
      <trkpt lat="45.66169" lon="5.83066">
        <ele>1176</ele>
        <time>2015-09-08T09:32:27Z</time>
      </trkpt>
      <trkpt lat="45.66159" lon="5.8307">
        <ele>1171.2</ele>
        <time>2015-09-08T09:32:38Z</time>
      </trkpt>
      <trkpt lat="45.66152" lon="5.8308">
        <ele>1165.1</ele>
        <time>2015-09-08T09:32:52Z</time>
      </trkpt>
      <trkpt lat="45.66143" lon="5.83078">
        <ele>1162.2</ele>
        <time>2015-09-08T09:32:59Z</time>
      </trkpt>
      <trkpt lat="45.66144" lon="5.83091">
        <ele>1158.1</ele>
        <time>2015-09-08T09:33:09Z</time>
      </trkpt>
      <trkpt lat="45.66151" lon="5.83102">
        <ele>1156.1</ele>
        <time>2015-09-08T09:33:14Z</time>
      </trkpt>
      <trkpt lat="45.66141" lon="5.83107">
        <ele>1150.8</ele>
        <time>2015-09-08T09:33:27Z</time>
      </trkpt>
      <trkpt lat="45.66131" lon="5.83108">
        <ele>1147.7</ele>
        <time>2015-09-08T09:33:34Z</time>
      </trkpt>
      <trkpt lat="45.66127" lon="5.83121">
        <ele>1140.7</ele>
        <time>2015-09-08T09:33:56Z</time>
      </trkpt>
      <trkpt lat="45.66131" lon="5.83133">
        <ele>1138.3</ele>
        <time>2015-09-08T09:34:05Z</time>
      </trkpt>
      <trkpt lat="45.66136" lon="5.83146">
        <ele>1136.4</ele>
        <time>2015-09-08T09:34:11Z</time>
      </trkpt>
      <trkpt lat="45.66131" lon="5.83158">
        <ele>1126.3</ele>
        <time>2015-09-08T09:36:40Z</time>
      </trkpt>
      <trkpt lat="45.66121" lon="5.83161">
        <ele>1124.1</ele>
        <time>2015-09-08T09:36:47Z</time>
      </trkpt>
      <trkpt lat="45.6611" lon="5.83161">
        <ele>1122.5</ele>
        <time>2015-09-08T09:36:51Z</time>
      </trkpt>
      <trkpt lat="45.661" lon="5.83161">
        <ele>1120.2</ele>
        <time>2015-09-08T09:36:56Z</time>
      </trkpt>
      <trkpt lat="45.66103" lon="5.83174">
        <ele>1117.5</ele>
        <time>2015-09-08T09:37:03Z</time>
      </trkpt>
      <trkpt lat="45.66112" lon="5.83182">
        <ele>1115.9</ele>
        <time>2015-09-08T09:37:07Z</time>
      </trkpt>
      <trkpt lat="45.6612" lon="5.83191">
        <ele>1114.8</ele>
        <time>2015-09-08T09:37:10Z</time>
      </trkpt>
      <trkpt lat="45.66126" lon="5.83203">
        <ele>1113</ele>
        <time>2015-09-08T09:37:15Z</time>
      </trkpt>
      <trkpt lat="45.66133" lon="5.83215">
        <ele>1110.4</ele>
        <time>2015-09-08T09:37:21Z</time>
      </trkpt>
      <trkpt lat="45.66142" lon="5.83222">
        <ele>1108</ele>
        <time>2015-09-08T09:37:26Z</time>
      </trkpt>
      <trkpt lat="45.66154" lon="5.83221">
        <ele>1106.1</ele>
        <time>2015-09-08T09:37:30Z</time>
      </trkpt>
      <trkpt lat="45.66165" lon="5.8322">
        <ele>1104.2</ele>
        <time>2015-09-08T09:37:33Z</time>
      </trkpt>
      <trkpt lat="45.66176" lon="5.8322">
        <ele>1102.2</ele>
        <time>2015-09-08T09:37:36Z</time>
      </trkpt>
      <trkpt lat="45.66186" lon="5.83221">
        <ele>1099.7</ele>
        <time>2015-09-08T09:37:40Z</time>
      </trkpt>
      <trkpt lat="45.66197" lon="5.83223">
        <ele>1097.3</ele>
        <time>2015-09-08T09:37:44Z</time>
      </trkpt>
      <trkpt lat="45.66206" lon="5.83226">
        <ele>1095.4</ele>
        <time>2015-09-08T09:37:47Z</time>
      </trkpt>
      <trkpt lat="45.66216" lon="5.83232">
        <ele>1093.7</ele>
        <time>2015-09-08T09:37:50Z</time>
      </trkpt>
      <trkpt lat="45.66225" lon="5.83239">
        <ele>1091.2</ele>
        <time>2015-09-08T09:37:54Z</time>
      </trkpt>
      <trkpt lat="45.66234" lon="5.83246">
        <ele>1088.3</ele>
        <time>2015-09-08T09:37:59Z</time>
      </trkpt>
      <trkpt lat="45.66242" lon="5.83254">
        <ele>1085.4</ele>
        <time>2015-09-08T09:38:04Z</time>
      </trkpt>
      <trkpt lat="45.66241" lon="5.83271">
        <ele>1082.2</ele>
        <time>2015-09-08T09:38:10Z</time>
      </trkpt>
      <trkpt lat="45.66229" lon="5.83274">
        <ele>1079.8</ele>
        <time>2015-09-08T09:38:14Z</time>
      </trkpt>
      <trkpt lat="45.66218" lon="5.83274">
        <ele>1077.5</ele>
        <time>2015-09-08T09:38:18Z</time>
      </trkpt>
      <trkpt lat="45.66222" lon="5.83287">
        <ele>1073.2</ele>
        <time>2015-09-08T09:38:26Z</time>
      </trkpt>
      <trkpt lat="45.66231" lon="5.83297">
        <ele>1070.9</ele>
        <time>2015-09-08T09:38:30Z</time>
      </trkpt>
      <trkpt lat="45.6624" lon="5.83306">
        <ele>1068.5</ele>
        <time>2015-09-08T09:38:34Z</time>
      </trkpt>
      <trkpt lat="45.6625" lon="5.83311">
        <ele>1060.9</ele>
        <time>2015-09-08T09:38:57Z</time>
      </trkpt>
      <trkpt lat="45.66247" lon="5.83328">
        <ele>1060.5</ele>
        <time>2015-09-08T09:39:20Z</time>
      </trkpt>
      <trkpt lat="45.66257" lon="5.83321">
        <ele>1060.3</ele>
        <time>2015-09-08T09:39:28Z</time>
      </trkpt>
      <trkpt lat="45.66263" lon="5.8331">
        <ele>1060.1</ele>
        <time>2015-09-08T09:39:35Z</time>
      </trkpt>
      <trkpt lat="45.6627" lon="5.8332">
        <ele>1058.8</ele>
        <time>2015-09-08T09:39:59Z</time>
      </trkpt>
      <trkpt lat="45.6628" lon="5.83329">
        <ele>1058.5</ele>
        <time>2015-09-08T09:40:02Z</time>
      </trkpt>
      <trkpt lat="45.6629" lon="5.83337">
        <ele>1057.9</ele>
        <time>2015-09-08T09:40:05Z</time>
      </trkpt>
      <trkpt lat="45.66281" lon="5.83347">
        <ele>1053.2</ele>
        <time>2015-09-08T09:40:18Z</time>
      </trkpt>
      <trkpt lat="45.66271" lon="5.83346">
        <ele>1051.7</ele>
        <time>2015-09-08T09:40:21Z</time>
      </trkpt>
      <trkpt lat="45.66261" lon="5.83343">
        <ele>1048.6</ele>
        <time>2015-09-08T09:40:27Z</time>
      </trkpt>
      <trkpt lat="45.6625" lon="5.83342">
        <ele>1046.6</ele>
        <time>2015-09-08T09:40:31Z</time>
      </trkpt>
      <trkpt lat="45.66241" lon="5.83343">
        <ele>1044.4</ele>
        <time>2015-09-08T09:40:35Z</time>
      </trkpt>
      <trkpt lat="45.6623" lon="5.83346">
        <ele>1041.9</ele>
        <time>2015-09-08T09:40:40Z</time>
      </trkpt>
      <trkpt lat="45.66218" lon="5.83347">
        <ele>1040.3</ele>
        <time>2015-09-08T09:40:43Z</time>
      </trkpt>
      <trkpt lat="45.66208" lon="5.83349">
        <ele>1038.5</ele>
        <time>2015-09-08T09:40:46Z</time>
      </trkpt>
      <trkpt lat="45.66197" lon="5.83351">
        <ele>1036.5</ele>
        <time>2015-09-08T09:40:49Z</time>
      </trkpt>
      <trkpt lat="45.66186" lon="5.83353">
        <ele>1033.9</ele>
        <time>2015-09-08T09:40:53Z</time>
      </trkpt>
      <trkpt lat="45.66176" lon="5.83355">
        <ele>1031.1</ele>
        <time>2015-09-08T09:40:58Z</time>
      </trkpt>
      <trkpt lat="45.66163" lon="5.83358">
        <ele>1028.8</ele>
        <time>2015-09-08T09:41:02Z</time>
      </trkpt>
      <trkpt lat="45.66151" lon="5.83358">
        <ele>1027.2</ele>
        <time>2015-09-08T09:41:05Z</time>
      </trkpt>
      <trkpt lat="45.6614" lon="5.83362">
        <ele>1025.3</ele>
        <time>2015-09-08T09:41:08Z</time>
      </trkpt>
      <trkpt lat="45.6613" lon="5.83364">
        <ele>1023.7</ele>
        <time>2015-09-08T09:41:11Z</time>
      </trkpt>
      <trkpt lat="45.6612" lon="5.83367">
        <ele>1021.3</ele>
        <time>2015-09-08T09:41:15Z</time>
      </trkpt>
      <trkpt lat="45.66112" lon="5.83372">
        <ele>1019.1</ele>
        <time>2015-09-08T09:41:19Z</time>
      </trkpt>
      <trkpt lat="45.66117" lon="5.83383">
        <ele>1011.4</ele>
        <time>2015-09-08T09:41:45Z</time>
      </trkpt>
      <trkpt lat="45.66126" lon="5.83386">
        <ele>1010.2</ele>
        <time>2015-09-08T09:41:49Z</time>
      </trkpt>
      <trkpt lat="45.66135" lon="5.83394">
        <ele>1008.4</ele>
        <time>2015-09-08T09:41:53Z</time>
      </trkpt>
      <trkpt lat="45.66145" lon="5.83402">
        <ele>1006.8</ele>
        <time>2015-09-08T09:41:56Z</time>
      </trkpt>
      <trkpt lat="45.66155" lon="5.8341">
        <ele>1005.4</ele>
        <time>2015-09-08T09:41:59Z</time>
      </trkpt>
      <trkpt lat="45.66165" lon="5.83417">
        <ele>1003.9</ele>
        <time>2015-09-08T09:42:02Z</time>
      </trkpt>
      <trkpt lat="45.66174" lon="5.83422">
        <ele>1002.3</ele>
        <time>2015-09-08T09:42:05Z</time>
      </trkpt>
      <trkpt lat="45.66165" lon="5.8343">
        <ele>997.9</ele>
        <time>2015-09-08T09:42:14Z</time>
      </trkpt>
      <trkpt lat="45.66154" lon="5.83434">
        <ele>996.1</ele>
        <time>2015-09-08T09:42:17Z</time>
      </trkpt>
      <trkpt lat="45.66141" lon="5.83438">
        <ele>994.3</ele>
        <time>2015-09-08T09:42:20Z</time>
      </trkpt>
      <trkpt lat="45.66129" lon="5.83441">
        <ele>992.4</ele>
        <time>2015-09-08T09:42:23Z</time>
      </trkpt>
      <trkpt lat="45.66119" lon="5.83444">
        <ele>990.5</ele>
        <time>2015-09-08T09:42:26Z</time>
      </trkpt>
      <trkpt lat="45.66121" lon="5.83458">
        <ele>983.4</ele>
        <time>2015-09-08T09:42:38Z</time>
      </trkpt>
      <trkpt lat="45.6613" lon="5.83467">
        <ele>980.4</ele>
        <time>2015-09-08T09:42:43Z</time>
      </trkpt>
      <trkpt lat="45.66138" lon="5.83475">
        <ele>978.9</ele>
        <time>2015-09-08T09:42:46Z</time>
      </trkpt>
      <trkpt lat="45.66148" lon="5.83491">
        <ele>977.1</ele>
        <time>2015-09-08T09:42:49Z</time>
      </trkpt>
      <trkpt lat="45.66154" lon="5.83506">
        <ele>975.6</ele>
        <time>2015-09-08T09:42:52Z</time>
      </trkpt>
      <trkpt lat="45.66159" lon="5.83519">
        <ele>974.7</ele>
        <time>2015-09-08T09:42:54Z</time>
      </trkpt>
      <trkpt lat="45.66164" lon="5.83532">
        <ele>973.4</ele>
        <time>2015-09-08T09:42:56Z</time>
      </trkpt>
      <trkpt lat="45.6617" lon="5.83544">
        <ele>972.3</ele>
        <time>2015-09-08T09:42:58Z</time>
      </trkpt>
      <trkpt lat="45.66176" lon="5.83555">
        <ele>970.3</ele>
        <time>2015-09-08T09:43:02Z</time>
      </trkpt>
      <trkpt lat="45.66186" lon="5.83563">
        <ele>968.4</ele>
        <time>2015-09-08T09:43:06Z</time>
      </trkpt>
      <trkpt lat="45.66199" lon="5.8357">
        <ele>966.6</ele>
        <time>2015-09-08T09:43:09Z</time>
      </trkpt>
      <trkpt lat="45.66207" lon="5.83575">
        <ele>965.6</ele>
        <time>2015-09-08T09:43:11Z</time>
      </trkpt>
      <trkpt lat="45.66217" lon="5.8358">
        <ele>964.2</ele>
        <time>2015-09-08T09:43:14Z</time>
      </trkpt>
      <trkpt lat="45.66228" lon="5.8358">
        <ele>962.3</ele>
        <time>2015-09-08T09:43:17Z</time>
      </trkpt>
      <trkpt lat="45.66239" lon="5.83585">
        <ele>960.5</ele>
        <time>2015-09-08T09:43:20Z</time>
      </trkpt>
      <trkpt lat="45.66251" lon="5.83588">
        <ele>958.7</ele>
        <time>2015-09-08T09:43:23Z</time>
      </trkpt>
      <trkpt lat="45.66262" lon="5.8359">
        <ele>957</ele>
        <time>2015-09-08T09:43:26Z</time>
      </trkpt>
      <trkpt lat="45.66271" lon="5.83589">
        <ele>955.1</ele>
        <time>2015-09-08T09:43:30Z</time>
      </trkpt>
      <trkpt lat="45.66268" lon="5.83603">
        <ele>951.3</ele>
        <time>2015-09-08T09:43:39Z</time>
      </trkpt>
      <trkpt lat="45.66265" lon="5.83615">
        <ele>949.5</ele>
        <time>2015-09-08T09:43:44Z</time>
      </trkpt>
      <trkpt lat="45.66256" lon="5.83621">
        <ele>947.7</ele>
        <time>2015-09-08T09:43:49Z</time>
      </trkpt>
      <trkpt lat="45.66246" lon="5.8362">
        <ele>946.6</ele>
        <time>2015-09-08T09:43:52Z</time>
      </trkpt>
      <trkpt lat="45.66235" lon="5.83618">
        <ele>945.5</ele>
        <time>2015-09-08T09:43:55Z</time>
      </trkpt>
      <trkpt lat="45.66224" lon="5.83619">
        <ele>944.1</ele>
        <time>2015-09-08T09:43:59Z</time>
      </trkpt>
      <trkpt lat="45.66213" lon="5.83624">
        <ele>942.2</ele>
        <time>2015-09-08T09:44:03Z</time>
      </trkpt>
      <trkpt lat="45.66216" lon="5.83637">
        <ele>939.9</ele>
        <time>2015-09-08T09:44:08Z</time>
      </trkpt>
      <trkpt lat="45.66225" lon="5.83648">
        <ele>938.1</ele>
        <time>2015-09-08T09:44:11Z</time>
      </trkpt>
      <trkpt lat="45.66236" lon="5.83658">
        <ele>936.6</ele>
        <time>2015-09-08T09:44:14Z</time>
      </trkpt>
      <trkpt lat="45.66246" lon="5.83662">
        <ele>935.6</ele>
        <time>2015-09-08T09:44:16Z</time>
      </trkpt>
      <trkpt lat="45.66255" lon="5.83668">
        <ele>934.1</ele>
        <time>2015-09-08T09:44:19Z</time>
      </trkpt>
      <trkpt lat="45.66261" lon="5.8368">
        <ele>928.7</ele>
        <time>2015-09-08T09:44:38Z</time>
      </trkpt>
      <trkpt lat="45.66258" lon="5.83694">
        <ele>928.1</ele>
        <time>2015-09-08T09:44:42Z</time>
      </trkpt>
      <trkpt lat="45.66245" lon="5.83702">
        <ele>927.4</ele>
        <time>2015-09-08T09:44:45Z</time>
      </trkpt>
      <trkpt lat="45.66233" lon="5.83702">
        <ele>926.9</ele>
        <time>2015-09-08T09:44:47Z</time>
      </trkpt>
      <trkpt lat="45.66221" lon="5.83703">
        <ele>926.3</ele>
        <time>2015-09-08T09:44:49Z</time>
      </trkpt>
      <trkpt lat="45.66211" lon="5.83707">
        <ele>925.6</ele>
        <time>2015-09-08T09:44:51Z</time>
      </trkpt>
      <trkpt lat="45.66203" lon="5.83711">
        <ele>924.9</ele>
        <time>2015-09-08T09:44:53Z</time>
      </trkpt>
      <trkpt lat="45.66193" lon="5.83714">
        <ele>923.7</ele>
        <time>2015-09-08T09:44:56Z</time>
      </trkpt>
      <trkpt lat="45.66183" lon="5.83712">
        <ele>919.9</ele>
        <time>2015-09-08T09:45:11Z</time>
      </trkpt>
      <trkpt lat="45.66171" lon="5.83705">
        <ele>919.2</ele>
        <time>2015-09-08T09:45:14Z</time>
      </trkpt>
      <trkpt lat="45.66157" lon="5.83697">
        <ele>918.5</ele>
        <time>2015-09-08T09:45:16Z</time>
      </trkpt>
      <trkpt lat="45.66143" lon="5.83686">
        <ele>917.7</ele>
        <time>2015-09-08T09:45:18Z</time>
      </trkpt>
      <trkpt lat="45.66127" lon="5.83675">
        <ele>916.8</ele>
        <time>2015-09-08T09:45:20Z</time>
      </trkpt>
      <trkpt lat="45.66119" lon="5.83669">
        <ele>916.3</ele>
        <time>2015-09-08T09:45:21Z</time>
      </trkpt>
      <trkpt lat="45.66111" lon="5.83664">
        <ele>915.7</ele>
        <time>2015-09-08T09:45:22Z</time>
      </trkpt>
      <trkpt lat="45.66097" lon="5.83654">
        <ele>914.6</ele>
        <time>2015-09-08T09:45:24Z</time>
      </trkpt>
      <trkpt lat="45.66085" lon="5.8365">
        <ele>913.4</ele>
        <time>2015-09-08T09:45:26Z</time>
      </trkpt>
      <trkpt lat="45.66073" lon="5.83651">
        <ele>912.3</ele>
        <time>2015-09-08T09:45:28Z</time>
      </trkpt>
      <trkpt lat="45.66061" lon="5.83653">
        <ele>911</ele>
        <time>2015-09-08T09:45:30Z</time>
      </trkpt>
      <trkpt lat="45.66051" lon="5.83655">
        <ele>909.8</ele>
        <time>2015-09-08T09:45:32Z</time>
      </trkpt>
      <trkpt lat="45.66042" lon="5.83656">
        <ele>908.6</ele>
        <time>2015-09-08T09:45:34Z</time>
      </trkpt>
      <trkpt lat="45.66031" lon="5.83658">
        <ele>907.4</ele>
        <time>2015-09-08T09:45:36Z</time>
      </trkpt>
      <trkpt lat="45.66016" lon="5.83658">
        <ele>906.2</ele>
        <time>2015-09-08T09:45:38Z</time>
      </trkpt>
      <trkpt lat="45.66002" lon="5.83657">
        <ele>904.9</ele>
        <time>2015-09-08T09:45:40Z</time>
      </trkpt>
      <trkpt lat="45.65991" lon="5.83648">
        <ele>903.7</ele>
        <time>2015-09-08T09:45:42Z</time>
      </trkpt>
      <trkpt lat="45.65982" lon="5.83633">
        <ele>902.6</ele>
        <time>2015-09-08T09:45:44Z</time>
      </trkpt>
      <trkpt lat="45.65967" lon="5.83624">
        <ele>901.2</ele>
        <time>2015-09-08T09:45:46Z</time>
      </trkpt>
      <trkpt lat="45.65949" lon="5.8362">
        <ele>899.8</ele>
        <time>2015-09-08T09:45:48Z</time>
      </trkpt>
      <trkpt lat="45.6594" lon="5.83618">
        <ele>899.1</ele>
        <time>2015-09-08T09:45:49Z</time>
      </trkpt>
      <trkpt lat="45.6593" lon="5.83617">
        <ele>898.3</ele>
        <time>2015-09-08T09:45:50Z</time>
      </trkpt>
      <trkpt lat="45.65921" lon="5.83614">
        <ele>897.5</ele>
        <time>2015-09-08T09:45:51Z</time>
      </trkpt>
      <trkpt lat="45.6591" lon="5.83609">
        <ele>896.7</ele>
        <time>2015-09-08T09:45:52Z</time>
      </trkpt>
      <trkpt lat="45.65901" lon="5.83603">
        <ele>895.9</ele>
        <time>2015-09-08T09:45:53Z</time>
      </trkpt>
      <trkpt lat="45.65892" lon="5.83596">
        <ele>895</ele>
        <time>2015-09-08T09:45:54Z</time>
      </trkpt>
      <trkpt lat="45.65877" lon="5.83587">
        <ele>893.4</ele>
        <time>2015-09-08T09:45:56Z</time>
      </trkpt>
      <trkpt lat="45.65863" lon="5.83584">
        <ele>891.8</ele>
        <time>2015-09-08T09:45:58Z</time>
      </trkpt>
      <trkpt lat="45.65852" lon="5.83584">
        <ele>890.2</ele>
        <time>2015-09-08T09:46:00Z</time>
      </trkpt>
      <trkpt lat="45.65847" lon="5.83595">
        <ele>884.5</ele>
        <time>2015-09-08T09:46:08Z</time>
      </trkpt>
      <trkpt lat="45.65847" lon="5.83608">
        <ele>876.1</ele>
        <time>2015-09-08T09:46:23Z</time>
      </trkpt>
      <trkpt lat="45.65856" lon="5.83612">
        <ele>872.1</ele>
        <time>2015-09-08T09:46:34Z</time>
      </trkpt>
      <trkpt lat="45.65864" lon="5.83623">
        <ele>870.6</ele>
        <time>2015-09-08T09:46:39Z</time>
      </trkpt>
      <trkpt lat="45.65872" lon="5.83633">
        <ele>868.8</ele>
        <time>2015-09-08T09:46:43Z</time>
      </trkpt>
      <trkpt lat="45.65875" lon="5.83647">
        <ele>867.6</ele>
        <time>2015-09-08T09:46:46Z</time>
      </trkpt>
      <trkpt lat="45.6588" lon="5.83662">
        <ele>866.7</ele>
        <time>2015-09-08T09:46:48Z</time>
      </trkpt>
      <trkpt lat="45.65887" lon="5.83678">
        <ele>865.7</ele>
        <time>2015-09-08T09:46:50Z</time>
      </trkpt>
      <trkpt lat="45.65894" lon="5.83692">
        <ele>864.6</ele>
        <time>2015-09-08T09:46:52Z</time>
      </trkpt>
      <trkpt lat="45.65901" lon="5.837">
        <ele>863.7</ele>
        <time>2015-09-08T09:46:54Z</time>
      </trkpt>
      <trkpt lat="45.65909" lon="5.83707">
        <ele>862.5</ele>
        <time>2015-09-08T09:46:56Z</time>
      </trkpt>
      <trkpt lat="45.6592" lon="5.83718">
        <ele>861.1</ele>
        <time>2015-09-08T09:46:59Z</time>
      </trkpt>
      <trkpt lat="45.65931" lon="5.83727">
        <ele>859.8</ele>
        <time>2015-09-08T09:47:02Z</time>
      </trkpt>
      <trkpt lat="45.65942" lon="5.83736">
        <ele>857.9</ele>
        <time>2015-09-08T09:47:05Z</time>
      </trkpt>
      <trkpt lat="45.65951" lon="5.83744">
        <ele>856.3</ele>
        <time>2015-09-08T09:47:08Z</time>
      </trkpt>
      <trkpt lat="45.65962" lon="5.83753">
        <ele>854.3</ele>
        <time>2015-09-08T09:47:11Z</time>
      </trkpt>
      <trkpt lat="45.65972" lon="5.83759">
        <ele>852.7</ele>
        <time>2015-09-08T09:47:14Z</time>
      </trkpt>
      <trkpt lat="45.6598" lon="5.83767">
        <ele>851.4</ele>
        <time>2015-09-08T09:47:16Z</time>
      </trkpt>
      <trkpt lat="45.65989" lon="5.83774">
        <ele>850.2</ele>
        <time>2015-09-08T09:47:18Z</time>
      </trkpt>
      <trkpt lat="45.65998" lon="5.83784">
        <ele>848.2</ele>
        <time>2015-09-08T09:47:22Z</time>
      </trkpt>
      <trkpt lat="45.66006" lon="5.83797">
        <ele>846.5</ele>
        <time>2015-09-08T09:47:26Z</time>
      </trkpt>
      <trkpt lat="45.66015" lon="5.83809">
        <ele>845.2</ele>
        <time>2015-09-08T09:47:29Z</time>
      </trkpt>
      <trkpt lat="45.66026" lon="5.83818">
        <ele>843.9</ele>
        <time>2015-09-08T09:47:32Z</time>
      </trkpt>
      <trkpt lat="45.66038" lon="5.83821">
        <ele>842.5</ele>
        <time>2015-09-08T09:47:35Z</time>
      </trkpt>
      <trkpt lat="45.66048" lon="5.83825">
        <ele>841.6</ele>
        <time>2015-09-08T09:47:37Z</time>
      </trkpt>
      <trkpt lat="45.66057" lon="5.83832">
        <ele>840.2</ele>
        <time>2015-09-08T09:47:40Z</time>
      </trkpt>
      <trkpt lat="45.66067" lon="5.83838">
        <ele>838.4</ele>
        <time>2015-09-08T09:47:44Z</time>
      </trkpt>
      <trkpt lat="45.66077" lon="5.83846">
        <ele>837.1</ele>
        <time>2015-09-08T09:47:47Z</time>
      </trkpt>
      <trkpt lat="45.66085" lon="5.83853">
        <ele>835.8</ele>
        <time>2015-09-08T09:47:50Z</time>
      </trkpt>
      <trkpt lat="45.66094" lon="5.8386">
        <ele>834.5</ele>
        <time>2015-09-08T09:47:53Z</time>
      </trkpt>
      <trkpt lat="45.66103" lon="5.83862">
        <ele>832.5</ele>
        <time>2015-09-08T09:47:58Z</time>
      </trkpt>
      <trkpt lat="45.66112" lon="5.83866">
        <ele>830.7</ele>
        <time>2015-09-08T09:48:04Z</time>
      </trkpt>
      <trkpt lat="45.66121" lon="5.83871">
        <ele>829.5</ele>
        <time>2015-09-08T09:48:09Z</time>
      </trkpt>
      <trkpt lat="45.6613" lon="5.83876">
        <ele>828.2</ele>
        <time>2015-09-08T09:48:13Z</time>
      </trkpt>
      <trkpt lat="45.6614" lon="5.83886">
        <ele>827</ele>
        <time>2015-09-08T09:48:17Z</time>
      </trkpt>
      <trkpt lat="45.66149" lon="5.83893">
        <ele>825.6</ele>
        <time>2015-09-08T09:48:20Z</time>
      </trkpt>
      <trkpt lat="45.66159" lon="5.83897">
        <ele>824.3</ele>
        <time>2015-09-08T09:48:23Z</time>
      </trkpt>
      <trkpt lat="45.66168" lon="5.83901">
        <ele>822.8</ele>
        <time>2015-09-08T09:48:26Z</time>
      </trkpt>
      <trkpt lat="45.6618" lon="5.83909">
        <ele>821.8</ele>
        <time>2015-09-08T09:48:29Z</time>
      </trkpt>
      <trkpt lat="45.66188" lon="5.83916">
        <ele>820.7</ele>
        <time>2015-09-08T09:48:31Z</time>
      </trkpt>
      <trkpt lat="45.662" lon="5.8392">
        <ele>819.1</ele>
        <time>2015-09-08T09:48:34Z</time>
      </trkpt>
      <trkpt lat="45.66209" lon="5.83926">
        <ele>817.5</ele>
        <time>2015-09-08T09:48:37Z</time>
      </trkpt>
      <trkpt lat="45.66219" lon="5.83935">
        <ele>815.3</ele>
        <time>2015-09-08T09:48:41Z</time>
      </trkpt>
      <trkpt lat="45.66229" lon="5.8394">
        <ele>814</ele>
        <time>2015-09-08T09:48:44Z</time>
      </trkpt>
      <trkpt lat="45.66238" lon="5.83946">
        <ele>810.2</ele>
        <time>2015-09-08T09:48:56Z</time>
      </trkpt>
      <trkpt lat="45.66251" lon="5.83952">
        <ele>808.9</ele>
        <time>2015-09-08T09:49:00Z</time>
      </trkpt>
      <trkpt lat="45.66261" lon="5.8396">
        <ele>807.8</ele>
        <time>2015-09-08T09:49:03Z</time>
      </trkpt>
      <trkpt lat="45.66271" lon="5.83966">
        <ele>806.8</ele>
        <time>2015-09-08T09:49:06Z</time>
      </trkpt>
      <trkpt lat="45.6626" lon="5.83973">
        <ele>803.8</ele>
        <time>2015-09-08T09:49:16Z</time>
      </trkpt>
      <trkpt lat="45.66249" lon="5.83972">
        <ele>802.7</ele>
        <time>2015-09-08T09:49:18Z</time>
      </trkpt>
      <trkpt lat="45.66238" lon="5.83972">
        <ele>801.8</ele>
        <time>2015-09-08T09:49:20Z</time>
      </trkpt>
      <trkpt lat="45.66226" lon="5.83974">
        <ele>800.4</ele>
        <time>2015-09-08T09:49:23Z</time>
      </trkpt>
      <trkpt lat="45.66217" lon="5.83974">
        <ele>799.3</ele>
        <time>2015-09-08T09:49:25Z</time>
      </trkpt>
      <trkpt lat="45.66206" lon="5.83973">
        <ele>797.7</ele>
        <time>2015-09-08T09:49:27Z</time>
      </trkpt>
      <trkpt lat="45.66197" lon="5.83973">
        <ele>796.5</ele>
        <time>2015-09-08T09:49:29Z</time>
      </trkpt>
      <trkpt lat="45.66183" lon="5.83969">
        <ele>795.1</ele>
        <time>2015-09-08T09:49:31Z</time>
      </trkpt>
      <trkpt lat="45.66169" lon="5.83971">
        <ele>794.1</ele>
        <time>2015-09-08T09:49:33Z</time>
      </trkpt>
      <trkpt lat="45.66157" lon="5.83975">
        <ele>793</ele>
        <time>2015-09-08T09:49:35Z</time>
      </trkpt>
      <trkpt lat="45.66147" lon="5.83977">
        <ele>791.5</ele>
        <time>2015-09-08T09:49:37Z</time>
      </trkpt>
      <trkpt lat="45.66137" lon="5.83978">
        <ele>789.6</ele>
        <time>2015-09-08T09:49:39Z</time>
      </trkpt>
      <trkpt lat="45.66128" lon="5.83978">
        <ele>788</ele>
        <time>2015-09-08T09:49:41Z</time>
      </trkpt>
      <trkpt lat="45.66115" lon="5.83978">
        <ele>785.8</ele>
        <time>2015-09-08T09:49:44Z</time>
      </trkpt>
      <trkpt lat="45.66106" lon="5.83976">
        <ele>784.4</ele>
        <time>2015-09-08T09:49:46Z</time>
      </trkpt>
      <trkpt lat="45.66095" lon="5.83974">
        <ele>783.2</ele>
        <time>2015-09-08T09:49:48Z</time>
      </trkpt>
      <trkpt lat="45.66084" lon="5.83972">
        <ele>781.4</ele>
        <time>2015-09-08T09:49:50Z</time>
      </trkpt>
      <trkpt lat="45.66074" lon="5.83972">
        <ele>779.8</ele>
        <time>2015-09-08T09:49:52Z</time>
      </trkpt>
      <trkpt lat="45.66063" lon="5.83972">
        <ele>778.4</ele>
        <time>2015-09-08T09:49:54Z</time>
      </trkpt>
      <trkpt lat="45.66052" lon="5.83971">
        <ele>776.7</ele>
        <time>2015-09-08T09:49:56Z</time>
      </trkpt>
      <trkpt lat="45.66041" lon="5.83971">
        <ele>775.4</ele>
        <time>2015-09-08T09:49:58Z</time>
      </trkpt>
      <trkpt lat="45.66029" lon="5.83973">
        <ele>774.1</ele>
        <time>2015-09-08T09:50:00Z</time>
      </trkpt>
      <trkpt lat="45.66015" lon="5.8397">
        <ele>772.3</ele>
        <time>2015-09-08T09:50:02Z</time>
      </trkpt>
      <trkpt lat="45.66002" lon="5.8397">
        <ele>770.8</ele>
        <time>2015-09-08T09:50:04Z</time>
      </trkpt>
      <trkpt lat="45.65993" lon="5.83972">
        <ele>769</ele>
        <time>2015-09-08T09:50:06Z</time>
      </trkpt>
      <trkpt lat="45.65983" lon="5.83977">
        <ele>758.8</ele>
        <time>2015-09-08T09:50:30Z</time>
      </trkpt>
      <trkpt lat="45.65971" lon="5.83979">
        <ele>757.9</ele>
        <time>2015-09-08T09:50:33Z</time>
      </trkpt>
      <trkpt lat="45.65961" lon="5.83979">
        <ele>757.2</ele>
        <time>2015-09-08T09:50:35Z</time>
      </trkpt>
      <trkpt lat="45.65951" lon="5.8398">
        <ele>756.6</ele>
        <time>2015-09-08T09:50:37Z</time>
      </trkpt>
      <trkpt lat="45.6594" lon="5.83986">
        <ele>755.6</ele>
        <time>2015-09-08T09:50:40Z</time>
      </trkpt>
      <trkpt lat="45.65927" lon="5.83984">
        <ele>754.2</ele>
        <time>2015-09-08T09:50:43Z</time>
      </trkpt>
      <trkpt lat="45.65916" lon="5.83982">
        <ele>753.5</ele>
        <time>2015-09-08T09:50:45Z</time>
      </trkpt>
      <trkpt lat="45.65905" lon="5.83983">
        <ele>752.7</ele>
        <time>2015-09-08T09:50:47Z</time>
      </trkpt>
      <trkpt lat="45.65895" lon="5.83981">
        <ele>751.6</ele>
        <time>2015-09-08T09:50:49Z</time>
      </trkpt>
      <trkpt lat="45.65883" lon="5.83982">
        <ele>750.6</ele>
        <time>2015-09-08T09:50:51Z</time>
      </trkpt>
      <trkpt lat="45.6587" lon="5.83982">
        <ele>749.4</ele>
        <time>2015-09-08T09:50:53Z</time>
      </trkpt>
      <trkpt lat="45.65857" lon="5.83983">
        <ele>747.7</ele>
        <time>2015-09-08T09:50:55Z</time>
      </trkpt>
      <trkpt lat="45.65842" lon="5.83982">
        <ele>746</ele>
        <time>2015-09-08T09:50:57Z</time>
      </trkpt>
      <trkpt lat="45.65825" lon="5.83981">
        <ele>744.4</ele>
        <time>2015-09-08T09:50:59Z</time>
      </trkpt>
      <trkpt lat="45.65814" lon="5.8398">
        <ele>742.3</ele>
        <time>2015-09-08T09:51:02Z</time>
      </trkpt>
      <trkpt lat="45.65815" lon="5.83995">
        <ele>740.4</ele>
        <time>2015-09-08T09:51:05Z</time>
      </trkpt>
      <trkpt lat="45.65822" lon="5.84006">
        <ele>738.8</ele>
        <time>2015-09-08T09:51:07Z</time>
      </trkpt>
      <trkpt lat="45.6583" lon="5.84022">
        <ele>737.4</ele>
        <time>2015-09-08T09:51:09Z</time>
      </trkpt>
      <trkpt lat="45.65836" lon="5.84035">
        <ele>735.7</ele>
        <time>2015-09-08T09:51:11Z</time>
      </trkpt>
      <trkpt lat="45.65846" lon="5.84044">
        <ele>733.5</ele>
        <time>2015-09-08T09:51:14Z</time>
      </trkpt>
      <trkpt lat="45.65856" lon="5.84052">
        <ele>731.9</ele>
        <time>2015-09-08T09:51:16Z</time>
      </trkpt>
      <trkpt lat="45.65865" lon="5.84057">
        <ele>730</ele>
        <time>2015-09-08T09:51:18Z</time>
      </trkpt>
      <trkpt lat="45.65874" lon="5.84065">
        <ele>727.8</ele>
        <time>2015-09-08T09:51:21Z</time>
      </trkpt>
      <trkpt lat="45.65885" lon="5.84074">
        <ele>725.6</ele>
        <time>2015-09-08T09:51:24Z</time>
      </trkpt>
      <trkpt lat="45.65895" lon="5.84082">
        <ele>723</ele>
        <time>2015-09-08T09:51:27Z</time>
      </trkpt>
      <trkpt lat="45.65906" lon="5.84091">
        <ele>720.3</ele>
        <time>2015-09-08T09:51:30Z</time>
      </trkpt>
      <trkpt lat="45.65915" lon="5.84102">
        <ele>718.6</ele>
        <time>2015-09-08T09:51:32Z</time>
      </trkpt>
      <trkpt lat="45.65925" lon="5.84112">
        <ele>715.7</ele>
        <time>2015-09-08T09:51:35Z</time>
      </trkpt>
      <trkpt lat="45.65938" lon="5.84121">
        <ele>713.5</ele>
        <time>2015-09-08T09:51:38Z</time>
      </trkpt>
      <trkpt lat="45.65949" lon="5.84128">
        <ele>711.8</ele>
        <time>2015-09-08T09:51:40Z</time>
      </trkpt>
      <trkpt lat="45.65959" lon="5.84136">
        <ele>710</ele>
        <time>2015-09-08T09:51:42Z</time>
      </trkpt>
      <trkpt lat="45.65971" lon="5.84144">
        <ele>708</ele>
        <time>2015-09-08T09:51:44Z</time>
      </trkpt>
      <trkpt lat="45.65982" lon="5.84151">
        <ele>706.3</ele>
        <time>2015-09-08T09:51:46Z</time>
      </trkpt>
      <trkpt lat="45.65995" lon="5.84159">
        <ele>704.2</ele>
        <time>2015-09-08T09:51:48Z</time>
      </trkpt>
      <trkpt lat="45.66009" lon="5.84167">
        <ele>702.1</ele>
        <time>2015-09-08T09:51:50Z</time>
      </trkpt>
      <trkpt lat="45.66022" lon="5.84171">
        <ele>700.3</ele>
        <time>2015-09-08T09:51:52Z</time>
      </trkpt>
      <trkpt lat="45.66031" lon="5.84176">
        <ele>697.6</ele>
        <time>2015-09-08T09:51:55Z</time>
      </trkpt>
      <trkpt lat="45.66022" lon="5.84179">
        <ele>694.4</ele>
        <time>2015-09-08T09:51:59Z</time>
      </trkpt>
      <trkpt lat="45.66009" lon="5.84185">
        <ele>691.8</ele>
        <time>2015-09-08T09:52:02Z</time>
      </trkpt>
      <trkpt lat="45.65995" lon="5.84188">
        <ele>690.2</ele>
        <time>2015-09-08T09:52:04Z</time>
      </trkpt>
      <trkpt lat="45.65985" lon="5.84191">
        <ele>688.2</ele>
        <time>2015-09-08T09:52:06Z</time>
      </trkpt>
      <trkpt lat="45.65975" lon="5.84195">
        <ele>686.3</ele>
        <time>2015-09-08T09:52:08Z</time>
      </trkpt>
      <trkpt lat="45.65965" lon="5.84199">
        <ele>684.3</ele>
        <time>2015-09-08T09:52:10Z</time>
      </trkpt>
      <trkpt lat="45.65953" lon="5.84203">
        <ele>682.4</ele>
        <time>2015-09-08T09:52:12Z</time>
      </trkpt>
      <trkpt lat="45.65936" lon="5.84205">
        <ele>680.2</ele>
        <time>2015-09-08T09:52:14Z</time>
      </trkpt>
      <trkpt lat="45.6592" lon="5.84206">
        <ele>677.8</ele>
        <time>2015-09-08T09:52:16Z</time>
      </trkpt>
      <trkpt lat="45.6591" lon="5.84208">
        <ele>675.7</ele>
        <time>2015-09-08T09:52:18Z</time>
      </trkpt>
      <trkpt lat="45.659" lon="5.84209">
        <ele>674</ele>
        <time>2015-09-08T09:52:20Z</time>
      </trkpt>
      <trkpt lat="45.65888" lon="5.84209">
        <ele>672.3</ele>
        <time>2015-09-08T09:52:22Z</time>
      </trkpt>
      <trkpt lat="45.65874" lon="5.84209">
        <ele>670.3</ele>
        <time>2015-09-08T09:52:24Z</time>
      </trkpt>
      <trkpt lat="45.65863" lon="5.84209">
        <ele>668.3</ele>
        <time>2015-09-08T09:52:26Z</time>
      </trkpt>
      <trkpt lat="45.65852" lon="5.84208">
        <ele>666.5</ele>
        <time>2015-09-08T09:52:28Z</time>
      </trkpt>
      <trkpt lat="45.65843" lon="5.8421">
        <ele>664.9</ele>
        <time>2015-09-08T09:52:30Z</time>
      </trkpt>
      <trkpt lat="45.65833" lon="5.84213">
        <ele>663.5</ele>
        <time>2015-09-08T09:52:32Z</time>
      </trkpt>
      <trkpt lat="45.65823" lon="5.84216">
        <ele>662.2</ele>
        <time>2015-09-08T09:52:34Z</time>
      </trkpt>
      <trkpt lat="45.65809" lon="5.84215">
        <ele>661</ele>
        <time>2015-09-08T09:52:36Z</time>
      </trkpt>
      <trkpt lat="45.65795" lon="5.84211">
        <ele>659.3</ele>
        <time>2015-09-08T09:52:38Z</time>
      </trkpt>
      <trkpt lat="45.6578" lon="5.84208">
        <ele>657.6</ele>
        <time>2015-09-08T09:52:40Z</time>
      </trkpt>
      <trkpt lat="45.65766" lon="5.84205">
        <ele>655.8</ele>
        <time>2015-09-08T09:52:42Z</time>
      </trkpt>
      <trkpt lat="45.65754" lon="5.84199">
        <ele>653.9</ele>
        <time>2015-09-08T09:52:44Z</time>
      </trkpt>
      <trkpt lat="45.65739" lon="5.84194">
        <ele>652.2</ele>
        <time>2015-09-08T09:52:46Z</time>
      </trkpt>
      <trkpt lat="45.65726" lon="5.8419">
        <ele>650.6</ele>
        <time>2015-09-08T09:52:48Z</time>
      </trkpt>
      <trkpt lat="45.65715" lon="5.8419">
        <ele>648.6</ele>
        <time>2015-09-08T09:52:50Z</time>
      </trkpt>
      <trkpt lat="45.65704" lon="5.84188">
        <ele>647</ele>
        <time>2015-09-08T09:52:52Z</time>
      </trkpt>
      <trkpt lat="45.65694" lon="5.84186">
        <ele>645.6</ele>
        <time>2015-09-08T09:52:54Z</time>
      </trkpt>
      <trkpt lat="45.65681" lon="5.84184">
        <ele>643.4</ele>
        <time>2015-09-08T09:52:57Z</time>
      </trkpt>
      <trkpt lat="45.65672" lon="5.84181">
        <ele>641.2</ele>
        <time>2015-09-08T09:53:00Z</time>
      </trkpt>
      <trkpt lat="45.65672" lon="5.84196">
        <ele>636.7</ele>
        <time>2015-09-08T09:53:07Z</time>
      </trkpt>
      <trkpt lat="45.65679" lon="5.84207">
        <ele>634.8</ele>
        <time>2015-09-08T09:53:10Z</time>
      </trkpt>
      <trkpt lat="45.65686" lon="5.84222">
        <ele>632.7</ele>
        <time>2015-09-08T09:53:13Z</time>
      </trkpt>
      <trkpt lat="45.65693" lon="5.84233">
        <ele>630.9</ele>
        <time>2015-09-08T09:53:16Z</time>
      </trkpt>
      <trkpt lat="45.65704" lon="5.84244">
        <ele>628.8</ele>
        <time>2015-09-08T09:53:19Z</time>
      </trkpt>
      <trkpt lat="45.65712" lon="5.84251">
        <ele>627.6</ele>
        <time>2015-09-08T09:53:21Z</time>
      </trkpt>
      <trkpt lat="45.65721" lon="5.8426">
        <ele>625.5</ele>
        <time>2015-09-08T09:53:24Z</time>
      </trkpt>
      <trkpt lat="45.65728" lon="5.84269">
        <ele>623.9</ele>
        <time>2015-09-08T09:53:27Z</time>
      </trkpt>
      <trkpt lat="45.65738" lon="5.84281">
        <ele>622.3</ele>
        <time>2015-09-08T09:53:30Z</time>
      </trkpt>
      <trkpt lat="45.65746" lon="5.84294">
        <ele>621.2</ele>
        <time>2015-09-08T09:53:32Z</time>
      </trkpt>
      <trkpt lat="45.65752" lon="5.84309">
        <ele>619.9</ele>
        <time>2015-09-08T09:53:34Z</time>
      </trkpt>
      <trkpt lat="45.65757" lon="5.84325">
        <ele>618</ele>
        <time>2015-09-08T09:53:37Z</time>
      </trkpt>
      <trkpt lat="45.65765" lon="5.84336">
        <ele>616.7</ele>
        <time>2015-09-08T09:53:39Z</time>
      </trkpt>
      <trkpt lat="45.65772" lon="5.84346">
        <ele>615.6</ele>
        <time>2015-09-08T09:53:41Z</time>
      </trkpt>
      <trkpt lat="45.65762" lon="5.84345">
        <ele>612.3</ele>
        <time>2015-09-08T09:53:48Z</time>
      </trkpt>
      <trkpt lat="45.65763" lon="5.84358">
        <ele>604.1</ele>
        <time>2015-09-08T09:54:15Z</time>
      </trkpt>
      <trkpt lat="45.65769" lon="5.84368">
        <ele>602.7</ele>
        <time>2015-09-08T09:54:28Z</time>
      </trkpt>
      <trkpt lat="45.65778" lon="5.84379">
        <ele>602.5</ele>
        <time>2015-09-08T09:54:31Z</time>
      </trkpt>
      <trkpt lat="45.65786" lon="5.8439">
        <ele>602.4</ele>
        <time>2015-09-08T09:54:34Z</time>
      </trkpt>
      <trkpt lat="45.6579" lon="5.84403">
        <ele>602.1</ele>
        <time>2015-09-08T09:54:37Z</time>
      </trkpt>
      <trkpt lat="45.65785" lon="5.84416">
        <ele>601.7</ele>
        <time>2015-09-08T09:54:40Z</time>
      </trkpt>
      <trkpt lat="45.65775" lon="5.84423">
        <ele>601.4</ele>
        <time>2015-09-08T09:54:43Z</time>
      </trkpt>
      <trkpt lat="45.65765" lon="5.84424">
        <ele>600.8</ele>
        <time>2015-09-08T09:54:47Z</time>
      </trkpt>
      <trkpt lat="45.65768" lon="5.84408">
        <ele>599.5</ele>
        <time>2015-09-08T09:55:51Z</time>
      </trkpt>
      <trkpt lat="45.65763" lon="5.84392">
        <ele>599.3</ele>
        <time>2015-09-08T09:55:54Z</time>
      </trkpt>
      <trkpt lat="45.65758" lon="5.84378">
        <ele>598.9</ele>
        <time>2015-09-08T09:55:57Z</time>
      </trkpt>
      <trkpt lat="45.65747" lon="5.84369">
        <ele>598.3</ele>
        <time>2015-09-08T09:56:01Z</time>
      </trkpt>
      <trkpt lat="45.65738" lon="5.84364">
        <ele>597.8</ele>
        <time>2015-09-08T09:56:03Z</time>
      </trkpt>
      <trkpt lat="45.6573" lon="5.84358">
        <ele>597.3</ele>
        <time>2015-09-08T09:56:05Z</time>
      </trkpt>
      <trkpt lat="45.6572" lon="5.84347">
        <ele>596.6</ele>
        <time>2015-09-08T09:56:07Z</time>
      </trkpt>
      <trkpt lat="45.65711" lon="5.84334">
        <ele>595.7</ele>
        <time>2015-09-08T09:56:09Z</time>
      </trkpt>
      <trkpt lat="45.65705" lon="5.84324">
        <ele>594.8</ele>
        <time>2015-09-08T09:56:11Z</time>
      </trkpt>
      <trkpt lat="45.65694" lon="5.84316">
        <ele>593.5</ele>
        <time>2015-09-08T09:56:14Z</time>
      </trkpt>
      <trkpt lat="45.65685" lon="5.84315">
        <ele>592.4</ele>
        <time>2015-09-08T09:56:16Z</time>
      </trkpt>
      <trkpt lat="45.65671" lon="5.84316">
        <ele>591.3</ele>
        <time>2015-09-08T09:56:18Z</time>
      </trkpt>
      <trkpt lat="45.65655" lon="5.84322">
        <ele>590.1</ele>
        <time>2015-09-08T09:56:20Z</time>
      </trkpt>
      <trkpt lat="45.65639" lon="5.84326">
        <ele>588.8</ele>
        <time>2015-09-08T09:56:22Z</time>
      </trkpt>
      <trkpt lat="45.65622" lon="5.84327">
        <ele>587.4</ele>
        <time>2015-09-08T09:56:24Z</time>
      </trkpt>
      <trkpt lat="45.65606" lon="5.84321">
        <ele>585.8</ele>
        <time>2015-09-08T09:56:26Z</time>
      </trkpt>
      <trkpt lat="45.65596" lon="5.84319">
        <ele>585</ele>
        <time>2015-09-08T09:56:27Z</time>
      </trkpt>
      <trkpt lat="45.65586" lon="5.84318">
        <ele>584.1</ele>
        <time>2015-09-08T09:56:28Z</time>
      </trkpt>
      <trkpt lat="45.65576" lon="5.84317">
        <ele>583.2</ele>
        <time>2015-09-08T09:56:29Z</time>
      </trkpt>
      <trkpt lat="45.65561" lon="5.84311">
        <ele>581.4</ele>
        <time>2015-09-08T09:56:31Z</time>
      </trkpt>
      <trkpt lat="45.65552" lon="5.84305">
        <ele>580.4</ele>
        <time>2015-09-08T09:56:32Z</time>
      </trkpt>
      <trkpt lat="45.65545" lon="5.84296">
        <ele>579.6</ele>
        <time>2015-09-08T09:56:33Z</time>
      </trkpt>
      <trkpt lat="45.65537" lon="5.84288">
        <ele>578.5</ele>
        <time>2015-09-08T09:56:34Z</time>
      </trkpt>
      <trkpt lat="45.65528" lon="5.84282">
        <ele>577.5</ele>
        <time>2015-09-08T09:56:35Z</time>
      </trkpt>
      <trkpt lat="45.65513" lon="5.84281">
        <ele>575.4</ele>
        <time>2015-09-08T09:56:37Z</time>
      </trkpt>
      <trkpt lat="45.65498" lon="5.84293">
        <ele>573.3</ele>
        <time>2015-09-08T09:56:39Z</time>
      </trkpt>
      <trkpt lat="45.65484" lon="5.84305">
        <ele>571.2</ele>
        <time>2015-09-08T09:56:41Z</time>
      </trkpt>
      <trkpt lat="45.6547" lon="5.84303">
        <ele>569.1</ele>
        <time>2015-09-08T09:56:43Z</time>
      </trkpt>
      <trkpt lat="45.65455" lon="5.84289">
        <ele>566.9</ele>
        <time>2015-09-08T09:56:45Z</time>
      </trkpt>
      <trkpt lat="45.65441" lon="5.84279">
        <ele>564.8</ele>
        <time>2015-09-08T09:56:47Z</time>
      </trkpt>
      <trkpt lat="45.65428" lon="5.8428">
        <ele>562.7</ele>
        <time>2015-09-08T09:56:49Z</time>
      </trkpt>
      <trkpt lat="45.65417" lon="5.84297">
        <ele>560.6</ele>
        <time>2015-09-08T09:56:51Z</time>
      </trkpt>
      <trkpt lat="45.65406" lon="5.84312">
        <ele>558.6</ele>
        <time>2015-09-08T09:56:53Z</time>
      </trkpt>
      <trkpt lat="45.65392" lon="5.84315">
        <ele>556.5</ele>
        <time>2015-09-08T09:56:55Z</time>
      </trkpt>
      <trkpt lat="45.65375" lon="5.8431">
        <ele>554.3</ele>
        <time>2015-09-08T09:56:57Z</time>
      </trkpt>
      <trkpt lat="45.65365" lon="5.84309">
        <ele>553.2</ele>
        <time>2015-09-08T09:56:58Z</time>
      </trkpt>
      <trkpt lat="45.65355" lon="5.84309">
        <ele>552.1</ele>
        <time>2015-09-08T09:56:59Z</time>
      </trkpt>
      <trkpt lat="45.65345" lon="5.84309">
        <ele>551</ele>
        <time>2015-09-08T09:57:00Z</time>
      </trkpt>
      <trkpt lat="45.65335" lon="5.84311">
        <ele>549.9</ele>
        <time>2015-09-08T09:57:01Z</time>
      </trkpt>
      <trkpt lat="45.65324" lon="5.84313">
        <ele>548.8</ele>
        <time>2015-09-08T09:57:02Z</time>
      </trkpt>
      <trkpt lat="45.65313" lon="5.84315">
        <ele>547.7</ele>
        <time>2015-09-08T09:57:03Z</time>
      </trkpt>
      <trkpt lat="45.65302" lon="5.84318">
        <ele>546.5</ele>
        <time>2015-09-08T09:57:04Z</time>
      </trkpt>
      <trkpt lat="45.65291" lon="5.84323">
        <ele>545.4</ele>
        <time>2015-09-08T09:57:05Z</time>
      </trkpt>
      <trkpt lat="45.6528" lon="5.84328">
        <ele>544.2</ele>
        <time>2015-09-08T09:57:06Z</time>
      </trkpt>
      <trkpt lat="45.6527" lon="5.84337">
        <ele>543</ele>
        <time>2015-09-08T09:57:07Z</time>
      </trkpt>
      <trkpt lat="45.65261" lon="5.84345">
        <ele>541.8</ele>
        <time>2015-09-08T09:57:08Z</time>
      </trkpt>
      <trkpt lat="45.65252" lon="5.84352">
        <ele>540.6</ele>
        <time>2015-09-08T09:57:09Z</time>
      </trkpt>
      <trkpt lat="45.65243" lon="5.84355">
        <ele>539.4</ele>
        <time>2015-09-08T09:57:10Z</time>
      </trkpt>
      <trkpt lat="45.65233" lon="5.84357">
        <ele>538.3</ele>
        <time>2015-09-08T09:57:11Z</time>
      </trkpt>
      <trkpt lat="45.65224" lon="5.84357">
        <ele>537.1</ele>
        <time>2015-09-08T09:57:12Z</time>
      </trkpt>
      <trkpt lat="45.65214" lon="5.84356">
        <ele>535.9</ele>
        <time>2015-09-08T09:57:13Z</time>
      </trkpt>
      <trkpt lat="45.65204" lon="5.84355">
        <ele>534.7</ele>
        <time>2015-09-08T09:57:14Z</time>
      </trkpt>
      <trkpt lat="45.65192" lon="5.84355">
        <ele>533.6</ele>
        <time>2015-09-08T09:57:15Z</time>
      </trkpt>
      <trkpt lat="45.65182" lon="5.84354">
        <ele>532.3</ele>
        <time>2015-09-08T09:57:16Z</time>
      </trkpt>
      <trkpt lat="45.65172" lon="5.84354">
        <ele>531.1</ele>
        <time>2015-09-08T09:57:17Z</time>
      </trkpt>
      <trkpt lat="45.65158" lon="5.84356">
        <ele>528.8</ele>
        <time>2015-09-08T09:57:19Z</time>
      </trkpt>
      <trkpt lat="45.65148" lon="5.84366">
        <ele>526.5</ele>
        <time>2015-09-08T09:57:21Z</time>
      </trkpt>
      <trkpt lat="45.65143" lon="5.84383">
        <ele>524.2</ele>
        <time>2015-09-08T09:57:23Z</time>
      </trkpt>
      <trkpt lat="45.65139" lon="5.84398">
        <ele>521</ele>
        <time>2015-09-08T09:57:26Z</time>
      </trkpt>
      <trkpt lat="45.6513" lon="5.84406">
        <ele>517.2</ele>
        <time>2015-09-08T09:57:30Z</time>
      </trkpt>
      <trkpt lat="45.6512" lon="5.84413">
        <ele>514.7</ele>
        <time>2015-09-08T09:57:33Z</time>
      </trkpt>
      <trkpt lat="45.65107" lon="5.84423">
        <ele>512</ele>
        <time>2015-09-08T09:57:36Z</time>
      </trkpt>
      <trkpt lat="45.65095" lon="5.84431">
        <ele>510.2</ele>
        <time>2015-09-08T09:57:38Z</time>
      </trkpt>
      <trkpt lat="45.65087" lon="5.84435">
        <ele>508.5</ele>
        <time>2015-09-08T09:57:40Z</time>
      </trkpt>
      <trkpt lat="45.65091" lon="5.84447">
        <ele>505.7</ele>
        <time>2015-09-08T09:57:44Z</time>
      </trkpt>
      <trkpt lat="45.65098" lon="5.84458">
        <ele>504</ele>
        <time>2015-09-08T09:57:47Z</time>
      </trkpt>
      <trkpt lat="45.65098" lon="5.84471">
        <ele>502.6</ele>
        <time>2015-09-08T09:57:49Z</time>
      </trkpt>
      <trkpt lat="45.65103" lon="5.84485">
        <ele>500.5</ele>
        <time>2015-09-08T09:57:52Z</time>
      </trkpt>
      <trkpt lat="45.6511" lon="5.845">
        <ele>498.9</ele>
        <time>2015-09-08T09:57:55Z</time>
      </trkpt>
      <trkpt lat="45.65117" lon="5.8451">
        <ele>498.1</ele>
        <time>2015-09-08T09:57:57Z</time>
      </trkpt>
      <trkpt lat="45.65124" lon="5.84522">
        <ele>497.1</ele>
        <time>2015-09-08T09:57:59Z</time>
      </trkpt>
      <trkpt lat="45.65136" lon="5.84528">
        <ele>495.2</ele>
        <time>2015-09-08T09:58:02Z</time>
      </trkpt>
      <trkpt lat="45.65145" lon="5.84523">
        <ele>494.1</ele>
        <time>2015-09-08T09:58:04Z</time>
      </trkpt>
      <trkpt lat="45.65154" lon="5.84517">
        <ele>492.5</ele>
        <time>2015-09-08T09:58:06Z</time>
      </trkpt>
      <trkpt lat="45.65165" lon="5.8451">
        <ele>490.3</ele>
        <time>2015-09-08T09:58:09Z</time>
      </trkpt>
      <trkpt lat="45.65176" lon="5.8451">
        <ele>487.9</ele>
        <time>2015-09-08T09:58:13Z</time>
      </trkpt>
      <trkpt lat="45.65189" lon="5.84514">
        <ele>486.1</ele>
        <time>2015-09-08T09:58:16Z</time>
      </trkpt>
      <trkpt lat="45.65201" lon="5.8452">
        <ele>484.6</ele>
        <time>2015-09-08T09:58:18Z</time>
      </trkpt>
      <trkpt lat="45.6521" lon="5.84525">
        <ele>483.1</ele>
        <time>2015-09-08T09:58:20Z</time>
      </trkpt>
      <trkpt lat="45.65219" lon="5.84531">
        <ele>480.4</ele>
        <time>2015-09-08T09:58:23Z</time>
      </trkpt>
      <trkpt lat="45.65228" lon="5.84535">
        <ele>478.1</ele>
        <time>2015-09-08T09:58:26Z</time>
      </trkpt>
      <trkpt lat="45.65237" lon="5.84548">
        <ele>476</ele>
        <time>2015-09-08T09:58:29Z</time>
      </trkpt>
      <trkpt lat="45.6524" lon="5.84565">
        <ele>473.7</ele>
        <time>2015-09-08T09:58:32Z</time>
      </trkpt>
      <trkpt lat="45.65242" lon="5.84578">
        <ele>471.7</ele>
        <time>2015-09-08T09:58:34Z</time>
      </trkpt>
      <trkpt lat="45.65249" lon="5.84594">
        <ele>470</ele>
        <time>2015-09-08T09:58:36Z</time>
      </trkpt>
      <trkpt lat="45.65258" lon="5.84605">
        <ele>468.3</ele>
        <time>2015-09-08T09:58:38Z</time>
      </trkpt>
      <trkpt lat="45.6527" lon="5.84614">
        <ele>466.6</ele>
        <time>2015-09-08T09:58:40Z</time>
      </trkpt>
      <trkpt lat="45.6528" lon="5.84622">
        <ele>465</ele>
        <time>2015-09-08T09:58:42Z</time>
      </trkpt>
      <trkpt lat="45.65289" lon="5.84632">
        <ele>462.7</ele>
        <time>2015-09-08T09:58:45Z</time>
      </trkpt>
      <trkpt lat="45.65286" lon="5.84646">
        <ele>452.3</ele>
        <time>2015-09-08T09:59:06Z</time>
      </trkpt>
      <trkpt lat="45.65293" lon="5.84656">
        <ele>448.3</ele>
        <time>2015-09-08T09:59:30Z</time>
      </trkpt>
      <trkpt lat="45.65302" lon="5.84667">
        <ele>448.3</ele>
        <time>2015-09-08T09:59:34Z</time>
      </trkpt>
      <trkpt lat="45.65314" lon="5.84676">
        <ele>448.2</ele>
        <time>2015-09-08T09:59:37Z</time>
      </trkpt>
      <trkpt lat="45.65323" lon="5.84683">
        <ele>448</ele>
        <time>2015-09-08T09:59:39Z</time>
      </trkpt>
      <trkpt lat="45.65335" lon="5.84694">
        <ele>447.6</ele>
        <time>2015-09-08T09:59:41Z</time>
      </trkpt>
      <trkpt lat="45.65348" lon="5.84706">
        <ele>447.2</ele>
        <time>2015-09-08T09:59:43Z</time>
      </trkpt>
      <trkpt lat="45.65364" lon="5.84717">
        <ele>446.5</ele>
        <time>2015-09-08T09:59:45Z</time>
      </trkpt>
      <trkpt lat="45.65379" lon="5.84724">
        <ele>445.6</ele>
        <time>2015-09-08T09:59:47Z</time>
      </trkpt>
      <trkpt lat="45.65389" lon="5.84728">
        <ele>444.6</ele>
        <time>2015-09-08T09:59:49Z</time>
      </trkpt>
      <trkpt lat="45.65397" lon="5.84734">
        <ele>441.8</ele>
        <time>2015-09-08T09:59:55Z</time>
      </trkpt>
      <trkpt lat="45.65406" lon="5.84741">
        <ele>439.5</ele>
        <time>2015-09-08T10:00:00Z</time>
      </trkpt>
      <trkpt lat="45.65415" lon="5.84748">
        <ele>437.6</ele>
        <time>2015-09-08T10:00:03Z</time>
      </trkpt>
      <trkpt lat="45.65424" lon="5.84753">
        <ele>434.8</ele>
        <time>2015-09-08T10:00:07Z</time>
      </trkpt>
      <trkpt lat="45.65429" lon="5.84764">
        <ele>431.6</ele>
        <time>2015-09-08T10:00:12Z</time>
      </trkpt>
      <trkpt lat="45.65436" lon="5.84776">
        <ele>429</ele>
        <time>2015-09-08T10:00:16Z</time>
      </trkpt>
      <trkpt lat="45.65449" lon="5.84784">
        <ele>427.1</ele>
        <time>2015-09-08T10:00:19Z</time>
      </trkpt>
      <trkpt lat="45.65459" lon="5.84793">
        <ele>425.6</ele>
        <time>2015-09-08T10:00:21Z</time>
      </trkpt>
      <trkpt lat="45.65468" lon="5.84798">
        <ele>423.9</ele>
        <time>2015-09-08T10:00:23Z</time>
      </trkpt>
      <trkpt lat="45.65479" lon="5.84804">
        <ele>422.5</ele>
        <time>2015-09-08T10:00:25Z</time>
      </trkpt>
      <trkpt lat="45.65489" lon="5.84813">
        <ele>420.1</ele>
        <time>2015-09-08T10:00:27Z</time>
      </trkpt>
      <trkpt lat="45.65503" lon="5.84824">
        <ele>418.4</ele>
        <time>2015-09-08T10:00:29Z</time>
      </trkpt>
      <trkpt lat="45.65515" lon="5.84832">
        <ele>416.8</ele>
        <time>2015-09-08T10:00:31Z</time>
      </trkpt>
      <trkpt lat="45.65524" lon="5.84836">
        <ele>414.8</ele>
        <time>2015-09-08T10:00:33Z</time>
      </trkpt>
      <trkpt lat="45.65534" lon="5.84838">
        <ele>412.9</ele>
        <time>2015-09-08T10:00:35Z</time>
      </trkpt>
      <trkpt lat="45.65544" lon="5.84841">
        <ele>411</ele>
        <time>2015-09-08T10:00:37Z</time>
      </trkpt>
      <trkpt lat="45.65556" lon="5.84844">
        <ele>408.8</ele>
        <time>2015-09-08T10:00:40Z</time>
      </trkpt>
      <trkpt lat="45.65562" lon="5.84854">
        <ele>406.1</ele>
        <time>2015-09-08T10:00:44Z</time>
      </trkpt>
      <trkpt lat="45.6557" lon="5.84863">
        <ele>400.3</ele>
        <time>2015-09-08T10:00:54Z</time>
      </trkpt>
      <trkpt lat="45.65581" lon="5.84871">
        <ele>398.1</ele>
        <time>2015-09-08T10:00:58Z</time>
      </trkpt>
      <trkpt lat="45.65589" lon="5.84879">
        <ele>396.3</ele>
        <time>2015-09-08T10:01:01Z</time>
      </trkpt>
      <trkpt lat="45.65601" lon="5.84883">
        <ele>394.5</ele>
        <time>2015-09-08T10:01:04Z</time>
      </trkpt>
      <trkpt lat="45.65611" lon="5.84885">
        <ele>393.3</ele>
        <time>2015-09-08T10:01:06Z</time>
      </trkpt>
      <trkpt lat="45.65621" lon="5.84887">
        <ele>392.2</ele>
        <time>2015-09-08T10:01:08Z</time>
      </trkpt>
      <trkpt lat="45.65633" lon="5.84889">
        <ele>391</ele>
        <time>2015-09-08T10:01:10Z</time>
      </trkpt>
      <trkpt lat="45.65647" lon="5.84891">
        <ele>389.8</ele>
        <time>2015-09-08T10:01:12Z</time>
      </trkpt>
      <trkpt lat="45.65661" lon="5.84896">
        <ele>388.5</ele>
        <time>2015-09-08T10:01:14Z</time>
      </trkpt>
      <trkpt lat="45.65672" lon="5.84901">
        <ele>387.2</ele>
        <time>2015-09-08T10:01:16Z</time>
      </trkpt>
      <trkpt lat="45.65679" lon="5.84911">
        <ele>385.5</ele>
        <time>2015-09-08T10:01:19Z</time>
      </trkpt>
      <trkpt lat="45.65673" lon="5.84921">
        <ele>383.7</ele>
        <time>2015-09-08T10:01:22Z</time>
      </trkpt>
      <trkpt lat="45.65662" lon="5.84924">
        <ele>382.4</ele>
        <time>2015-09-08T10:01:24Z</time>
      </trkpt>
      <trkpt lat="45.65649" lon="5.84924">
        <ele>381.3</ele>
        <time>2015-09-08T10:01:26Z</time>
      </trkpt>
      <trkpt lat="45.65635" lon="5.84925">
        <ele>380.1</ele>
        <time>2015-09-08T10:01:28Z</time>
      </trkpt>
      <trkpt lat="45.65622" lon="5.84932">
        <ele>379</ele>
        <time>2015-09-08T10:01:30Z</time>
      </trkpt>
      <trkpt lat="45.6561" lon="5.84943">
        <ele>378</ele>
        <time>2015-09-08T10:01:32Z</time>
      </trkpt>
      <trkpt lat="45.65597" lon="5.84952">
        <ele>377</ele>
        <time>2015-09-08T10:01:34Z</time>
      </trkpt>
      <trkpt lat="45.65586" lon="5.84954">
        <ele>375.9</ele>
        <time>2015-09-08T10:01:36Z</time>
      </trkpt>
      <trkpt lat="45.65589" lon="5.84966">
        <ele>373.8</ele>
        <time>2015-09-08T10:01:40Z</time>
      </trkpt>
      <trkpt lat="45.65602" lon="5.84968">
        <ele>372.6</ele>
        <time>2015-09-08T10:01:42Z</time>
      </trkpt>
      <trkpt lat="45.6562" lon="5.84972">
        <ele>371.3</ele>
        <time>2015-09-08T10:01:44Z</time>
      </trkpt>
      <trkpt lat="45.6563" lon="5.84974">
        <ele>370.5</ele>
        <time>2015-09-08T10:01:45Z</time>
      </trkpt>
      <trkpt lat="45.65647" lon="5.84982">
        <ele>368.8</ele>
        <time>2015-09-08T10:01:47Z</time>
      </trkpt>
      <trkpt lat="45.65655" lon="5.84988">
        <ele>367.8</ele>
        <time>2015-09-08T10:01:48Z</time>
      </trkpt>
      <trkpt lat="45.65664" lon="5.84996">
        <ele>366.9</ele>
        <time>2015-09-08T10:01:49Z</time>
      </trkpt>
      <trkpt lat="45.65672" lon="5.85003">
        <ele>365.9</ele>
        <time>2015-09-08T10:01:50Z</time>
      </trkpt>
      <trkpt lat="45.65682" lon="5.85015">
        <ele>364</ele>
        <time>2015-09-08T10:01:52Z</time>
      </trkpt>
      <trkpt lat="45.65686" lon="5.8503">
        <ele>361.2</ele>
        <time>2015-09-08T10:01:55Z</time>
      </trkpt>
      <trkpt lat="45.6568" lon="5.8504">
        <ele>357.2</ele>
        <time>2015-09-08T10:02:00Z</time>
      </trkpt>
      <trkpt lat="45.65671" lon="5.85034">
        <ele>354.7</ele>
        <time>2015-09-08T10:02:04Z</time>
      </trkpt>
      <trkpt lat="45.65662" lon="5.85032">
        <ele>352.6</ele>
        <time>2015-09-08T10:02:08Z</time>
      </trkpt>
      <trkpt lat="45.65651" lon="5.8503">
        <ele>350.9</ele>
        <time>2015-09-08T10:02:12Z</time>
      </trkpt>
      <trkpt lat="45.6564" lon="5.85028">
        <ele>349.5</ele>
        <time>2015-09-08T10:02:16Z</time>
      </trkpt>
      <trkpt lat="45.65631" lon="5.85029">
        <ele>348.7</ele>
        <time>2015-09-08T10:02:19Z</time>
      </trkpt>
      <trkpt lat="45.6562" lon="5.85036">
        <ele>348</ele>
        <time>2015-09-08T10:02:22Z</time>
      </trkpt>
      <trkpt lat="45.65612" lon="5.85042">
        <ele>347.5</ele>
        <time>2015-09-08T10:02:24Z</time>
      </trkpt>
      <trkpt lat="45.65603" lon="5.85046">
        <ele>347.1</ele>
        <time>2015-09-08T10:02:26Z</time>
      </trkpt>
      <trkpt lat="45.65593" lon="5.8505">
        <ele>346.7</ele>
        <time>2015-09-08T10:02:28Z</time>
      </trkpt>
      <trkpt lat="45.65583" lon="5.85053">
        <ele>346.3</ele>
        <time>2015-09-08T10:02:30Z</time>
      </trkpt>
      <trkpt lat="45.65574" lon="5.85053">
        <ele>345.8</ele>
        <time>2015-09-08T10:02:32Z</time>
      </trkpt>
      <trkpt lat="45.65562" lon="5.85053">
        <ele>345.4</ele>
        <time>2015-09-08T10:02:34Z</time>
      </trkpt>
      <trkpt lat="45.65549" lon="5.85054">
        <ele>345.2</ele>
        <time>2015-09-08T10:02:36Z</time>
      </trkpt>
      <trkpt lat="45.65534" lon="5.85054">
        <ele>344.6</ele>
        <time>2015-09-08T10:02:38Z</time>
      </trkpt>
      <trkpt lat="45.65519" lon="5.85057">
        <ele>343.8</ele>
        <time>2015-09-08T10:02:40Z</time>
      </trkpt>
      <trkpt lat="45.65505" lon="5.8506">
        <ele>343</ele>
        <time>2015-09-08T10:02:42Z</time>
      </trkpt>
      <trkpt lat="45.65494" lon="5.85071">
        <ele>342.2</ele>
        <time>2015-09-08T10:02:44Z</time>
      </trkpt>
      <trkpt lat="45.65485" lon="5.85087">
        <ele>341.4</ele>
        <time>2015-09-08T10:02:46Z</time>
      </trkpt>
      <trkpt lat="45.65474" lon="5.85105">
        <ele>340.4</ele>
        <time>2015-09-08T10:02:48Z</time>
      </trkpt>
      <trkpt lat="45.65458" lon="5.85115">
        <ele>339.4</ele>
        <time>2015-09-08T10:02:50Z</time>
      </trkpt>
      <trkpt lat="45.65442" lon="5.8512">
        <ele>338.5</ele>
        <time>2015-09-08T10:02:52Z</time>
      </trkpt>
      <trkpt lat="45.65427" lon="5.85124">
        <ele>337.6</ele>
        <time>2015-09-08T10:02:54Z</time>
      </trkpt>
      <trkpt lat="45.65412" lon="5.85126">
        <ele>336.8</ele>
        <time>2015-09-08T10:02:56Z</time>
      </trkpt>
      <trkpt lat="45.65398" lon="5.85126">
        <ele>336</ele>
        <time>2015-09-08T10:02:58Z</time>
      </trkpt>
      <trkpt lat="45.65384" lon="5.85125">
        <ele>335.4</ele>
        <time>2015-09-08T10:03:00Z</time>
      </trkpt>
      <trkpt lat="45.6537" lon="5.85125">
        <ele>334.7</ele>
        <time>2015-09-08T10:03:02Z</time>
      </trkpt>
      <trkpt lat="45.65359" lon="5.85132">
        <ele>333.9</ele>
        <time>2015-09-08T10:03:04Z</time>
      </trkpt>
      <trkpt lat="45.65351" lon="5.85149">
        <ele>333.2</ele>
        <time>2015-09-08T10:03:06Z</time>
      </trkpt>
      <trkpt lat="45.65339" lon="5.85166">
        <ele>332.5</ele>
        <time>2015-09-08T10:03:08Z</time>
      </trkpt>
      <trkpt lat="45.65327" lon="5.85182">
        <ele>331.6</ele>
        <time>2015-09-08T10:03:10Z</time>
      </trkpt>
      <trkpt lat="45.65319" lon="5.85203">
        <ele>330.7</ele>
        <time>2015-09-08T10:03:12Z</time>
      </trkpt>
      <trkpt lat="45.6531" lon="5.85226">
        <ele>329.8</ele>
        <time>2015-09-08T10:03:14Z</time>
      </trkpt>
      <trkpt lat="45.65305" lon="5.85237">
        <ele>329.3</ele>
        <time>2015-09-08T10:03:15Z</time>
      </trkpt>
      <trkpt lat="45.65294" lon="5.85255">
        <ele>328.3</ele>
        <time>2015-09-08T10:03:17Z</time>
      </trkpt>
      <trkpt lat="45.65281" lon="5.85271">
        <ele>327.3</ele>
        <time>2015-09-08T10:03:19Z</time>
      </trkpt>
      <trkpt lat="45.65267" lon="5.85284">
        <ele>326.3</ele>
        <time>2015-09-08T10:03:21Z</time>
      </trkpt>
      <trkpt lat="45.65259" lon="5.85289">
        <ele>325.2</ele>
        <time>2015-09-08T10:03:23Z</time>
      </trkpt>
      <trkpt lat="45.65267" lon="5.85297">
        <ele>321</ele>
        <time>2015-09-08T10:03:34Z</time>
      </trkpt>
      <trkpt lat="45.65272" lon="5.85311">
        <ele>320.5</ele>
        <time>2015-09-08T10:03:36Z</time>
      </trkpt>
      <trkpt lat="45.65276" lon="5.85329">
        <ele>319.9</ele>
        <time>2015-09-08T10:03:38Z</time>
      </trkpt>
      <trkpt lat="45.65279" lon="5.85348">
        <ele>319.2</ele>
        <time>2015-09-08T10:03:40Z</time>
      </trkpt>
      <trkpt lat="45.65285" lon="5.85359">
        <ele>318.6</ele>
        <time>2015-09-08T10:03:42Z</time>
      </trkpt>
      <trkpt lat="45.65295" lon="5.85367">
        <ele>317.9</ele>
        <time>2015-09-08T10:03:44Z</time>
      </trkpt>
      <trkpt lat="45.65306" lon="5.85377">
        <ele>317.2</ele>
        <time>2015-09-08T10:03:46Z</time>
      </trkpt>
      <trkpt lat="45.65317" lon="5.85386">
        <ele>316.5</ele>
        <time>2015-09-08T10:03:48Z</time>
      </trkpt>
      <trkpt lat="45.65326" lon="5.85393">
        <ele>315.9</ele>
        <time>2015-09-08T10:03:50Z</time>
      </trkpt>
      <trkpt lat="45.65335" lon="5.85402">
        <ele>315.3</ele>
        <time>2015-09-08T10:03:52Z</time>
      </trkpt>
      <trkpt lat="45.65346" lon="5.85411">
        <ele>314.8</ele>
        <time>2015-09-08T10:03:54Z</time>
      </trkpt>
      <trkpt lat="45.65358" lon="5.85422">
        <ele>314</ele>
        <time>2015-09-08T10:03:56Z</time>
      </trkpt>
      <trkpt lat="45.65369" lon="5.85433">
        <ele>313.2</ele>
        <time>2015-09-08T10:03:58Z</time>
      </trkpt>
      <trkpt lat="45.65381" lon="5.85447">
        <ele>312.2</ele>
        <time>2015-09-08T10:04:00Z</time>
      </trkpt>
      <trkpt lat="45.65391" lon="5.85463">
        <ele>311.2</ele>
        <time>2015-09-08T10:04:02Z</time>
      </trkpt>
      <trkpt lat="45.65403" lon="5.85475">
        <ele>309.8</ele>
        <time>2015-09-08T10:04:04Z</time>
      </trkpt>
      <trkpt lat="45.65416" lon="5.85484">
        <ele>308.3</ele>
        <time>2015-09-08T10:04:06Z</time>
      </trkpt>
      <trkpt lat="45.6543" lon="5.85487">
        <ele>307</ele>
        <time>2015-09-08T10:04:08Z</time>
      </trkpt>
      <trkpt lat="45.6544" lon="5.8548">
        <ele>305.6</ele>
        <time>2015-09-08T10:04:10Z</time>
      </trkpt>
      <trkpt lat="45.6545" lon="5.85465">
        <ele>304.4</ele>
        <time>2015-09-08T10:04:12Z</time>
      </trkpt>
      <trkpt lat="45.65459" lon="5.85448">
        <ele>303.1</ele>
        <time>2015-09-08T10:04:14Z</time>
      </trkpt>
      <trkpt lat="45.65469" lon="5.85436">
        <ele>301.7</ele>
        <time>2015-09-08T10:04:16Z</time>
      </trkpt>
      <trkpt lat="45.65483" lon="5.85436">
        <ele>300.4</ele>
        <time>2015-09-08T10:04:18Z</time>
      </trkpt>
      <trkpt lat="45.65497" lon="5.85447">
        <ele>299</ele>
        <time>2015-09-08T10:04:20Z</time>
      </trkpt>
      <trkpt lat="45.65512" lon="5.85458">
        <ele>297.7</ele>
        <time>2015-09-08T10:04:22Z</time>
      </trkpt>
      <trkpt lat="45.65521" lon="5.85471">
        <ele>296.3</ele>
        <time>2015-09-08T10:04:24Z</time>
      </trkpt>
      <trkpt lat="45.65522" lon="5.8549">
        <ele>294.8</ele>
        <time>2015-09-08T10:04:26Z</time>
      </trkpt>
      <trkpt lat="45.6552" lon="5.85513">
        <ele>293.3</ele>
        <time>2015-09-08T10:04:28Z</time>
      </trkpt>
      <trkpt lat="45.65523" lon="5.85537">
        <ele>291.8</ele>
        <time>2015-09-08T10:04:30Z</time>
      </trkpt>
      <trkpt lat="45.65522" lon="5.85556">
        <ele>290.1</ele>
        <time>2015-09-08T10:04:32Z</time>
      </trkpt>
      <trkpt lat="45.6552" lon="5.8557">
        <ele>288.3</ele>
        <time>2015-09-08T10:04:34Z</time>
      </trkpt>
      <trkpt lat="45.65512" lon="5.85576">
        <ele>286.6</ele>
        <time>2015-09-08T10:04:36Z</time>
      </trkpt>
      <trkpt lat="45.65498" lon="5.85573">
        <ele>285</ele>
        <time>2015-09-08T10:04:38Z</time>
      </trkpt>
      <trkpt lat="45.65487" lon="5.85574">
        <ele>283.5</ele>
        <time>2015-09-08T10:04:40Z</time>
      </trkpt>
      <trkpt lat="45.65483" lon="5.85587">
        <ele>282</ele>
        <time>2015-09-08T10:04:42Z</time>
      </trkpt>
      <trkpt lat="45.65484" lon="5.85607">
        <ele>280.4</ele>
        <time>2015-09-08T10:04:44Z</time>
      </trkpt>
      <trkpt lat="45.65485" lon="5.85631">
        <ele>278.7</ele>
        <time>2015-09-08T10:04:46Z</time>
      </trkpt>
      <trkpt lat="45.65483" lon="5.85656">
        <ele>276.9</ele>
        <time>2015-09-08T10:04:48Z</time>
      </trkpt>
      <trkpt lat="45.65477" lon="5.85681">
        <ele>275.2</ele>
        <time>2015-09-08T10:04:50Z</time>
      </trkpt>
      <trkpt lat="45.65472" lon="5.85694">
        <ele>274.2</ele>
        <time>2015-09-08T10:04:51Z</time>
      </trkpt>
      <trkpt lat="45.65467" lon="5.85708">
        <ele>273.3</ele>
        <time>2015-09-08T10:04:52Z</time>
      </trkpt>
      <trkpt lat="45.65463" lon="5.85723">
        <ele>272.4</ele>
        <time>2015-09-08T10:04:53Z</time>
      </trkpt>
      <trkpt lat="45.65458" lon="5.85737">
        <ele>271.4</ele>
        <time>2015-09-08T10:04:54Z</time>
      </trkpt>
      <trkpt lat="45.65454" lon="5.85752">
        <ele>270.4</ele>
        <time>2015-09-08T10:04:55Z</time>
      </trkpt>
      <trkpt lat="45.6545" lon="5.85767">
        <ele>269.4</ele>
        <time>2015-09-08T10:04:56Z</time>
      </trkpt>
      <trkpt lat="45.65446" lon="5.85782">
        <ele>268.4</ele>
        <time>2015-09-08T10:04:57Z</time>
      </trkpt>
      <trkpt lat="45.65444" lon="5.85797">
        <ele>267.4</ele>
        <time>2015-09-08T10:04:58Z</time>
      </trkpt>
      <trkpt lat="45.65442" lon="5.85811">
        <ele>266.4</ele>
        <time>2015-09-08T10:04:59Z</time>
      </trkpt>
      <trkpt lat="45.65439" lon="5.85834">
        <ele>264.3</ele>
        <time>2015-09-08T10:05:01Z</time>
      </trkpt>
      <trkpt lat="45.65437" lon="5.85851">
        <ele>262.4</ele>
        <time>2015-09-08T10:05:03Z</time>
      </trkpt>
      <trkpt lat="45.6543" lon="5.85864">
        <ele>259.8</ele>
        <time>2015-09-08T10:05:06Z</time>
      </trkpt>
      <trkpt lat="45.65421" lon="5.85868">
        <ele>257</ele>
        <time>2015-09-08T10:05:10Z</time>
      </trkpt>
      <trkpt lat="45.65414" lon="5.85878">
        <ele>250.6</ele>
        <time>2015-09-08T10:05:23Z</time>
      </trkpt>
      <trkpt lat="45.65421" lon="5.85893">
        <ele>249.8</ele>
        <time>2015-09-08T10:05:26Z</time>
      </trkpt>
      <trkpt lat="45.65428" lon="5.85905">
        <ele>249.3</ele>
        <time>2015-09-08T10:05:28Z</time>
      </trkpt>
      <trkpt lat="45.65434" lon="5.85919">
        <ele>248.8</ele>
        <time>2015-09-08T10:05:30Z</time>
      </trkpt>
      <trkpt lat="45.65442" lon="5.85935">
        <ele>248.1</ele>
        <time>2015-09-08T10:05:32Z</time>
      </trkpt>
      <trkpt lat="45.6545" lon="5.85951">
        <ele>247.4</ele>
        <time>2015-09-08T10:05:34Z</time>
      </trkpt>
      <trkpt lat="45.65459" lon="5.85964">
        <ele>246.8</ele>
        <time>2015-09-08T10:05:36Z</time>
      </trkpt>
      <trkpt lat="45.65463" lon="5.85977">
        <ele>246.3</ele>
        <time>2015-09-08T10:05:38Z</time>
      </trkpt>
      <trkpt lat="45.65464" lon="5.85993">
        <ele>245.5</ele>
        <time>2015-09-08T10:05:41Z</time>
      </trkpt>
      <trkpt lat="45.65473" lon="5.86006">
        <ele>244.9</ele>
        <time>2015-09-08T10:05:44Z</time>
      </trkpt>
      <trkpt lat="45.65481" lon="5.86014">
        <ele>244.5</ele>
        <time>2015-09-08T10:05:46Z</time>
      </trkpt>
      <trkpt lat="45.65488" lon="5.86023">
        <ele>244.1</ele>
        <time>2015-09-08T10:05:48Z</time>
      </trkpt>
      <trkpt lat="45.65494" lon="5.86034">
        <ele>243.8</ele>
        <time>2015-09-08T10:05:50Z</time>
      </trkpt>
      <trkpt lat="45.65498" lon="5.86047">
        <ele>243.4</ele>
        <time>2015-09-08T10:05:52Z</time>
      </trkpt>
      <trkpt lat="45.655" lon="5.86062">
        <ele>243.1</ele>
        <time>2015-09-08T10:05:54Z</time>
      </trkpt>
      <trkpt lat="45.65503" lon="5.86077">
        <ele>242.8</ele>
        <time>2015-09-08T10:05:56Z</time>
      </trkpt>
      <trkpt lat="45.65505" lon="5.86093">
        <ele>242.6</ele>
        <time>2015-09-08T10:05:58Z</time>
      </trkpt>
      <trkpt lat="45.65508" lon="5.86109">
        <ele>242.4</ele>
        <time>2015-09-08T10:06:00Z</time>
      </trkpt>
      <trkpt lat="45.65511" lon="5.86125">
        <ele>242.2</ele>
        <time>2015-09-08T10:06:02Z</time>
      </trkpt>
      <trkpt lat="45.65512" lon="5.8614">
        <ele>242.1</ele>
        <time>2015-09-08T10:06:04Z</time>
      </trkpt>
      <trkpt lat="45.65515" lon="5.86156">
        <ele>241.9</ele>
        <time>2015-09-08T10:06:06Z</time>
      </trkpt>
      <trkpt lat="45.65518" lon="5.8617">
        <ele>241.8</ele>
        <time>2015-09-08T10:06:08Z</time>
      </trkpt>
      <trkpt lat="45.6552" lon="5.86186">
        <ele>241.7</ele>
        <time>2015-09-08T10:06:10Z</time>
      </trkpt>
      <trkpt lat="45.65523" lon="5.86201">
        <ele>241.6</ele>
        <time>2015-09-08T10:06:12Z</time>
      </trkpt>
      <trkpt lat="45.65525" lon="5.86215">
        <ele>241.5</ele>
        <time>2015-09-08T10:06:14Z</time>
      </trkpt>
      <trkpt lat="45.65528" lon="5.86229">
        <ele>241.4</ele>
        <time>2015-09-08T10:06:16Z</time>
      </trkpt>
      <trkpt lat="45.65532" lon="5.86242">
        <ele>241.4</ele>
        <time>2015-09-08T10:06:18Z</time>
      </trkpt>
      <trkpt lat="45.65542" lon="5.86255">
        <ele>241.3</ele>
        <time>2015-09-08T10:06:21Z</time>
      </trkpt>
      <trkpt lat="45.65551" lon="5.86258">
        <ele>241.3</ele>
        <time>2015-09-08T10:06:23Z</time>
      </trkpt>
      <trkpt lat="45.65563" lon="5.86265">
        <ele>241.2</ele>
        <time>2015-09-08T10:06:26Z</time>
      </trkpt>
      <trkpt lat="45.65576" lon="5.8627">
        <ele>241.2</ele>
        <time>2015-09-08T10:06:29Z</time>
      </trkpt>
      <trkpt lat="45.65588" lon="5.86275">
        <ele>241.2</ele>
        <time>2015-09-08T10:06:32Z</time>
      </trkpt>
      <trkpt lat="45.656" lon="5.86278">
        <ele>241.2</ele>
        <time>2015-09-08T10:06:35Z</time>
      </trkpt>
      <trkpt lat="45.65609" lon="5.8628">
        <ele>241.2</ele>
        <time>2015-09-08T10:06:38Z</time>
      </trkpt>
      <trkpt lat="45.65619" lon="5.86284">
        <ele>241</ele>
        <time>2015-09-08T10:06:42Z</time>
      </trkpt>
      <trkpt lat="45.6563" lon="5.86284">
        <ele>240.8</ele>
        <time>2015-09-08T10:06:48Z</time>
      </trkpt>
      <trkpt lat="45.6564" lon="5.8629">
        <ele>240.9</ele>
        <time>2015-09-08T10:06:53Z</time>
      </trkpt>
      <trkpt lat="45.65646" lon="5.86297">
        <ele>241.3</ele>
        <time>2015-09-08T10:07:17Z</time>
      </trkpt>
    </trkseg>
  </trk>
</gpx>